[[{"header":{"parameterUnit":"m.s-1","parameterCategory":1,"la1":31.0,"la2":29.5877,"lo1":-88.7671,"lo2":-86.6584,"dy":0.0162,"dx":0.0185,"nx":115,"ny":88,"refTime":"2024-09-02T06:00:00:Z","depth":0,"parameterNumber":2,"parameterNumberName":"U-component_of_WINDS"},"data":[0.0,0.0,0.0,0.0,0.0,0.0,0.0,0.0,0.0,0.0,0.0,0.0,0.0,0.0,0.0,0.0,0.0,0.0,0.0,0.0,0.0,0.0,0.0,0.0,0.0,0.0,0.0,0.0,0.0,0.0,0.0,0.0,0.0,0.0,0.0,0.0,0.0,0.0,0.0,0.0,0.0,0.0,0.0,0.0,0.0,0.0,0.0,0.0,0.0,0.0,0.0,0.0,0.0,0.0,0.0,0.0,0.0,0.0,0.0,0.0,0.0,0.0,0.0,0.0,0.0,0.0,0.0,0.0,0.0,0.0,0.0,0.0,0.0,0.0,0.0,0.0,0.0,0.0,0.0,0.0,0.0,0.0,0.0,0.0,0.0,0.0,0.0,0.0,0.0,0.0,0.0,0.0,0.0,0.0,0.0,0.0,0.0,0.0,0.0,0.0,0.0,0.0,0.0,0.0,0.0,0.0,0.0,0.0,0.0,0.0,0.0,0.0,0.0,0.0,0.0,0.0,0.0,0.0,0.0,0.0,0.0,0.0,0.0,0.0,0.0,0.0,0.0,0.0,0.0,0.0,0.0,0.0,0.0,0.0,0.0,0.0,0.0,0.0,0.0,0.0,0.0,0.0,0.0,0.0,0.0,0.0,0.0,0.0,0.0,0.0,0.0,0.0,0.0,0.0,0.0,0.0,0.0,0.0,0.0,0.0,0.0,0.0,0.0,0.0,0.0,0.0,0.0,0.0,0.0,0.0,0.0,0.0,0.0,0.0,0.0,0.0,0.0,0.0,0.0,0.0,0.0,0.0,0.0,0.0,0.0,0.0,0.0,0.0,0.0,0.0,0.0,0.0,0.0,0.0,0.0,0.0,0.0,0.0,0.0,0.0,0.0,0.0,0.0,0.0,0.0,0.0,0.0,0.0,0.0,0.0,0.0,0.0,0.0,0.0,0.0,0.0,0.0,0.0,0.0,0.0,0.0,0.0,0.0,0.0,0.0,0.0,0.0,0.0,0.0,0.0,0.0,0.0,0.0,0.0,0.0,0.0,0.0,0.0,0.0,0.0,0.0,0.0,0.0,0.0,0.0,0.0,0.0,0.0,0.0,0.0,0.0,0.0,0.0,0.0,0.0,0.0,0.0,0.0,0.0,0.0,0.0,0.0,0.0,0.0,0.0,0.0,0.0,0.0,0.0,0.0,0.0,0.0,0.0,0.0,0.0,0.0,0.0,0.0,0.0,0.0,0.0,0.0,0.0,0.0,0.0,0.0,0.0,0.0,0.0,0.0,0.0,0.0,0.0,0.0,0.0,0.0,0.0,0.0,0.0,0.0,0.0,0.0,0.0,0.0,0.0,0.0,0.0,0.0,0.0,0.0,0.0,0.0,0.0,0.0,0.0,0.0,0.0,0.0,0.0,0.0,0.0,0.0,0.0,0.0,0.0,0.0,0.0,0.0,0.0,0.0,0.0,0.0,0.0,0.0,0.0,0.0,0.0,0.0,0.0,0.0,0.0,0.0,0.0,0.0,0.0,0.0,0.0,0.0,0.0,0.0,0.0,0.0,0.0,0.0,0.0,0.0,0.0,0.0,0.0,0.0,0.0,0.0,0.0,0.0,0.0,0.0,0.0,0.0,0.0,0.0,0.0,0.0,0.0,0.0,0.0,0.0,0.0,0.0,0.0,0.0,0.0,0.0,0.0,0.0,0.0,0.0,0.0,0.0,0.0,0.0,0.0,0.0,0.0,0.0,0.0,0.0,0.0,0.0,0.0,0.0,0.0,0.0,0.0,0.0,0.0,0.0,0.0,0.0,0.0,0.0,0.0,0.0,0.0,0.0,0.0,0.0,0.0,0.0,0.0,0.0,0.0,0.0,0.0,0.0,0.0,0.0,0.0,0.0,0.0,0.0,0.0,0.0,0.0,0.0,0.0,0.0,0.0,0.0,0.0,0.0,0.0,0.0,0.0,0.0,0.0,0.0,0.0,0.0,0.0,0.0,0.0,0.0,0.0,0.0,0.0,0.0,0.0,0.0,0.0,0.0,0.0,0.0,0.0,0.0,0.0,0.0,0.0,0.0,0.0,0.0,0.0,0.0,0.0,0.0,0.0,0.0,0.0,0.0,0.0,0.0,0.0,0.0,0.0,0.0,0.0,0.0,0.0,0.0,0.0,0.0,0.0,0.0,0.0,0.0,0.0,0.0,0.0,0.0,0.0,0.0,0.0,0.0,0.0,0.0,0.0,0.0,0.0,0.0,0.0,0.0,0.0,0.0,0.0,0.0,0.0,0.0,0.0,0.0,0.0,0.0,0.0,0.0,0.0,0.0,0.0,0.0,0.0,0.0,0.0,0.0,0.0,0.0,0.0,0.0,0.0,0.0,0.0,0.0,0.0,0.0,0.0,0.0,0.0,0.0,0.0,0.0,0.0,0.0,0.0,0.0,0.0,0.0,0.0,0.0,0.0,0.0,0.0,0.0,0.0,0.0,0.0,0.0,0.0,0.0,0.0,0.0,0.0,0.0,0.0,0.0,0.0,0.0,0.0,0.0,0.0,0.0,0.0,0.0,0.0,0.0,0.0,0.0,0.0,0.0,0.0,0.0,0.0,0.0,0.0,0.0,0.0,0.0,0.0,0.0,0.0,0.0,0.0,0.0,0.0,0.0,0.0,0.0,0.0,0.0,0.0,0.0,0.0,0.0,0.0,0.0,0.0,0.0,0.0,0.0,0.0,0.0,0.0,0.0,0.0,0.0,0.0,0.0,0.0,0.0,0.0,0.0,0.0,0.0,0.0,0.0,0.0,0.0,0.0,0.0,0.0,0.0,0.0,0.0,0.0,0.0,0.0,0.0,0.0,0.0,0.0,0.0,0.0,0.0,0.0,0.0,0.0,0.0,0.0,0.0,0.0,0.0,0.0,0.0,0.0,0.0,0.0,0.0,0.0,0.0,0.0,0.0,0.0,0.0,0.0,0.0,0.0,0.0,0.0,0.0,0.0,0.0,0.0,0.0,0.0,0.0,0.0,0.0,0.0,0.0,0.0,0.0,0.0,0.0,0.0,0.0,0.0,0.0,0.0,0.0,0.0,0.0,0.0,0.0,0.0,0.0,0.0,0.0,0.0,0.0,0.0,0.0,0.0,0.0,0.0,0.0,0.0,0.0,0.0,0.0,0.0,0.0,0.0,0.0,0.0,0.0,0.0,0.0,0.0,0.0,0.0,0.0,0.0,0.0,0.0,0.0,0.0,0.0,0.0,0.0,0.0,0.0,0.0,0.0,0.0,0.0,0.0,0.0,0.0,0.0,0.0,0.0,0.0,0.0,0.0,0.0,0.0,0.0,0.0,0.0,0.0,0.0,0.0,0.0,0.0,0.0,0.0,0.0,0.0,0.0,0.0,0.0,0.0,0.0,0.0,0.0,0.0,0.0,0.0,0.0,0.0,0.0,0.0,0.0,0.0,0.0,0.0,0.0,0.0,0.0,0.0,0.0,0.0,0.0,0.0,0.0,0.0,0.0,0.0,0.0,0.0,0.0,0.0,0.0,0.0,0.0,0.0,0.0,0.0,0.0,0.0,0.0,0.0,0.0,0.0,0.0,0.0,0.0,0.0,0.0,0.0,0.0,0.0,0.0,0.0,0.0,0.0,0.0,0.0,0.0,0.0,0.0,0.0,0.0,0.0,0.0,0.0,0.0,0.0,0.0,0.0,0.0,0.0,0.0,0.0,0.0,0.0,0.0,0.0,0.0,0.0,0.0,0.0,0.0,0.0,0.0,0.0,0.0,0.0,0.0,0.0,0.0,0.0,0.0,0.0,0.0,0.0,0.0,0.0,0.0,0.0,0.0,0.0,0.0,0.0,0.0,0.0,0.0,0.0,0.0,0.0,0.0,0.0,0.0,0.0,0.0,0.0,0.0,0.0,0.0,0.0,0.0,0.0,0.0,0.0,0.0,0.0,0.0,0.0,0.0,0.0,0.0,0.0,0.0,0.0,0.0,0.0,0.0,0.0,0.0,0.0,0.0,0.0,0.0,0.0,0.0,0.0,0.0,0.0,0.0,0.0,0.0,0.0,0.0,0.0,0.0,0.0,0.0,0.0,0.0,0.0,0.0,0.0,0.0,0.0,0.0,0.0,0.0,0.0,0.0,0.0,0.0,0.0,0.0,0.0,0.0,0.0,0.0,0.0,0.0,0.0,0.0,0.0,0.0,0.0,0.0,0.0,0.0,0.0,0.0,0.0,0.0,0.0,0.0,0.0,0.0,0.0,0.0,0.0,0.0,0.0,0.0,0.487,0.0,0.0,0.0,0.0,0.0,0.0,0.0,0.0,0.0,0.0,0.0,0.0,0.0,0.0,0.0,0.0,0.0,0.0,0.0,0.0,0.0,0.0,0.0,0.0,0.0,0.0,0.0,0.0,0.0,0.0,0.0,0.0,0.0,0.0,0.0,0.0,0.0,0.0,0.0,0.0,0.0,0.0,0.0,0.0,0.0,0.0,0.0,0.0,0.0,0.0,0.0,0.0,0.0,0.0,0.0,0.0,0.0,0.0,0.0,0.0,0.0,0.0,0.0,0.0,0.0,0.0,0.0,0.0,0.0,0.0,0.0,0.0,0.0,0.0,0.0,0.0,0.0,0.0,0.0,0.0,0.0,0.0,0.0,0.0,0.0,0.0,0.0,0.0,0.0,0.0,0.0,0.0,0.0,0.0,0.0,0.0,0.0,0.0,0.0,0.0,0.0,0.0,0.0,0.0,0.0,0.0,0.0,0.0,0.0,0.0,0.3413,0.4821,0.4894,0.4893,0.4901,0.0,0.0,0.0,0.0,0.0,0.0,0.0,0.0,0.0,0.0,0.0,0.0,0.0,0.0,0.0,0.0,0.0,0.0,0.0,0.0,0.0,0.0,0.0,0.0,0.0,0.0,0.0,0.0,0.0,0.0,0.0,0.0,0.0,0.0,0.0,0.0,0.0,0.0,0.0,0.0,0.0,0.0,0.0,0.0,0.0,0.0,0.0,0.0,0.0,0.0,0.0,0.0,0.0,0.0,0.0,0.0,0.0,0.0,0.0,0.0,0.0,0.0,0.0,0.0,0.0,0.0,0.0,0.0,0.0,0.0,0.0,0.0,0.0,0.0,0.0,0.0,0.0,0.0,0.0,0.0,0.0,0.0,0.0,0.0,0.0,0.0,0.0,0.0,0.0,0.0,0.0,0.0,0.0,0.0,0.0,0.0,0.0,0.0,0.0,0.0,0.0,0.0,0.0,0.0,0.0,0.0,0.0,0.0,0.0,0.0,0.0,0.0,0.4928,0.4873,0.4697,0.0,0.0,0.0,0.0,0.0,0.0,0.0,0.0,0.0,0.0,0.0,0.0,0.0,0.0,0.0,0.0,0.0,0.0,0.0,0.0,0.0,0.0,0.0,0.0,0.0,0.0,0.0,0.0,0.0,0.0,0.0,0.0,0.0,0.0,0.0,0.0,0.0,0.0,0.0,0.0,0.0,0.0,0.0,0.0,0.0,0.0,0.0,0.0,0.0,0.0,0.0,0.0,0.0,0.0,0.0,0.0,0.0,0.0,0.0,0.0,0.0,0.0,0.0,0.0,0.0,0.0,0.0,0.0,0.0,0.0,0.0,0.0,0.0,0.0,0.0,0.0,0.0,0.0,0.0,0.0,0.0,0.0,0.0,0.0,0.0,0.0,0.0,0.0,0.0,0.0,0.0,0.0,0.0,0.0,0.0,0.0,0.0,0.0,0.0,0.0,0.0,0.0,0.0,0.0,0.0,0.0,0.0,0.0,0.0,0.0,0.2643,0.354,0.3585,0.0,0.4116,0.0,0.0,0.0,0.0,0.0,0.0,0.0,0.0,0.0,0.0,0.0,0.0,0.0,0.0,0.0,0.0,0.0,0.0,0.0,0.0,0.0,0.0,0.0,0.0,0.0,0.0,0.0,0.0,0.0,0.0,0.0,0.0,0.0,0.0,0.0,0.0,0.0,0.0,0.0,0.0,0.0,0.0,0.0,0.0,0.0,0.0,0.0,0.0,0.0,0.0,0.0,0.0,0.0,0.0,0.0,0.0,0.0,0.0,0.0,0.0,0.0,0.0,0.0,0.0,0.0,0.0,0.0,0.0,0.0,0.0,0.0,0.0,0.0,0.0,0.0,0.0,0.0,0.0,0.0,0.0,0.0,0.0,0.0,0.0,0.0,0.0,0.0,0.0,0.0,0.0,0.0,0.0,0.0,0.0,0.0,0.0,0.0,0.0,0.0,0.0,0.0,0.0,0.0,0.0,0.0,0.0,0.0,0.0,0.0,0.0,0.2599,0.3359,0.3297,0.3461,0.0,0.0,0.0,0.0,0.0,0.0,0.0,0.0,0.0,0.0,0.0,0.0,0.0,0.0,0.0,0.0,0.0,0.0,0.0,0.0,0.0,0.0,0.0,0.0,0.0,0.0,0.0,0.0,0.0,0.0,0.0,0.0,0.0,0.0,0.0,0.0,0.0,0.0,0.0,0.0,0.0,0.0,0.0,0.0,0.0,0.0,0.0,0.0,0.0,0.0,0.0,0.0,0.0,0.0,0.0,0.0,0.0,0.0,0.0,0.0,0.0,0.0,0.0,0.0,0.0,0.0,0.0,0.0,0.0,0.0,0.0,0.0,0.0,0.0,0.0,0.0,0.0,0.0,0.0,0.0,0.0,0.0,0.0,0.0,0.0,0.0,0.0,0.0,0.0,0.0,0.0,0.0,0.0,0.0,0.0,0.0,0.0,0.0,0.0,0.0,0.0,0.0,0.0,0.0,0.0,0.0,0.0,0.0,0.0,0.0,0.1964,0.0,0.2809,0.2996,0.3179,0.3457,0.0,0.0,0.0,0.0,0.0,0.0,0.0,0.0,0.0,0.0,0.0,0.0,0.0,0.0,0.0,0.0,0.0,0.0,0.0,0.0,0.0,0.0,0.0,0.0,0.0,0.0,0.0,0.0,0.0,0.0,0.0,0.0,0.0,0.0,0.0,0.0,0.0,0.0,0.0,0.0,0.0,0.0,0.0,0.0,0.0,0.0,0.0,0.0,0.0,0.0,0.0,0.0,0.0,0.0,0.0,0.0,0.0,0.0,0.0,0.0,0.0,0.0,0.0,0.0,0.0,0.0,0.0,0.0,0.0,0.0,0.0,0.0,0.0,0.0,0.0,0.0,0.0,0.0,0.0,0.0,0.0,0.0,0.0,0.0,0.0,0.0,0.0,0.0,0.0,0.0,0.0,0.0,0.0,0.0,0.0,0.0,0.0,0.0,0.0,0.0,0.0,0.0,0.0,0.0,0.0,0.0,0.0,0.0,0.0,0.1277,0.1278,0.146,0.2434,0.2741,0.0,0.0,0.0,0.0,0.0,0.0,0.0,0.0,0.0,0.0,0.0,0.0,0.0,0.0,0.0,0.0,0.0,0.0,0.0,0.0,0.0,0.0,0.0,0.0,0.0,0.0,0.0,0.0,0.0,0.0,0.0,0.0,0.0,0.0,0.0,0.0,0.0,0.0,0.0,0.0,0.0,0.0,0.0,0.0,0.0,0.0,0.0,0.0,0.0,0.0,0.0,0.0,0.0,0.0,0.0,0.0,0.0,0.0,0.0,0.0,0.0,0.0,0.0,0.0,0.0,0.0,0.0,0.0,0.0,0.0,0.0,0.0,0.0,0.0,0.0,0.0,0.0,0.0,0.0,0.0,0.0,0.0,0.0,0.0,0.0,0.0,0.0,0.0,0.0,0.0,0.0,0.0,0.0,0.0,0.0,0.0,0.0,0.0,0.0,0.0,0.0,0.0,0.0,0.0,0.0,0.0,0.0,0.0,0.0,0.1092,0.1183,0.1277,0.1448,0.1676,0.187,0.0,0.0,0.0,0.0,0.0,0.0,0.0,0.0,0.0,0.0,0.0,0.0,0.0,0.0,0.0,0.0,0.0,0.0,0.0,0.0,0.0,0.0,0.0,0.0,0.0,0.0,0.0,0.0,0.0,0.0,0.0,0.0,0.0,0.0,0.0,0.0,0.0,0.0,0.0,0.0,0.0,0.0,0.0,0.0,0.0,0.0,0.0,0.0,0.0,0.0,0.0,0.0,0.0,0.0,0.0,0.0,0.0,0.0,0.0,0.0,0.0,0.0,0.0,0.0,0.0,0.0,0.0,0.0,0.0,0.0,0.0,0.0,0.0,0.0,0.0,0.0,0.0,0.0,0.0,0.0,0.0,0.0,0.0,0.0,0.0,0.0,0.0,0.0,0.0,0.0,0.0,0.0,0.0,0.0,0.0,0.0,0.0,0.0,0.0,0.0,0.0,0.0,0.0,0.0,0.0,0.0,0.0,0.0,0.0,0.1086,0.0,0.134,0.0,0.1265,0.1355,0.0,0.0,0.0,0.0,0.0,0.0,0.0,0.0,0.0,0.0,0.0,0.0,0.0,0.0,0.0,0.0,0.0,0.0,0.0,0.0,0.0,0.0,0.0,0.0,0.0,0.0,0.0,0.0,0.0,0.0,0.0,0.0,0.0,0.0,0.0,0.0,0.0,0.0,0.0,0.0,0.0,0.0,0.0,0.0,0.0,0.0,0.0,0.0,0.0,0.0,0.0,0.0,0.0,0.0,0.0,0.0,0.0,0.0,0.0,0.0,0.0,0.0,0.0,0.0,0.0,0.0,0.0,0.0,0.0,0.0,0.0,0.0,0.0,0.0,0.0,0.0,0.0,0.0,0.0,0.0,0.0,0.0,0.0,0.0,0.0,0.0,0.0,0.0,0.0,0.0,0.0,0.0,0.0,0.0,0.0,0.0,0.0,0.0,0.0,0.0,0.0,0.0,0.0,0.0,0.0,0.0,0.0,0.0,0.1092,0.1291,0.141,0.1462,0.1311,0.1299,0.1189,0.0,0.0,0.0,0.0,0.0,0.0,0.0,0.0,0.0,0.0,0.0,0.0,0.0,0.0,0.0,0.0,0.0,0.0,0.0,0.0,0.0,0.0,0.0,0.0,0.0,0.0,0.0,0.0,0.0,0.0,0.0,0.0,0.0,0.0,0.0,0.0,0.0,0.0,0.0,0.0,0.0,0.0,0.0,0.0,0.0,0.0,0.0,0.0,0.0,0.0,0.0,0.0,0.0,0.0,0.0,0.0,0.0,0.0,0.0,0.0,0.0,0.0,0.0,0.0,0.0,0.0,0.0,0.0,0.0,0.0,0.0,0.0,0.0,0.0,0.0,0.0,0.0,0.0,0.0,0.0,0.0,0.0,0.0,0.0,0.0,0.0,0.0,0.0,0.0,0.0,0.0,0.0,0.0,0.0,0.0,0.0,0.0,0.0,0.0,0.0,0.0,0.0,0.0,0.0,0.0,0.0,0.0,0.0,0.0,0.1211,0.1326,0.1367,0.1449,0.1295,0.1204,0.0,0.0,0.0,0.0,0.0,0.0,0.0,0.0,0.0,0.0,0.0,0.0,0.0,0.0,0.0,0.0,0.0,0.0,0.0,0.0,0.0,0.0,0.0,0.0,0.0,0.0,0.0,0.0,0.0,0.0,0.0,0.0,0.0,0.0,0.0,0.0,0.0,0.0,0.0,0.0,0.0,0.0,0.0,0.0,0.0,0.0,0.0,0.0,0.0,0.0,0.0,0.0,0.0,0.0,0.0,0.0,0.0,0.0,0.0,0.0,0.0,0.0,0.0,0.0,0.0,0.0,0.0,0.0,0.0,0.0,0.0,0.0,0.0,0.0,0.0,0.0,0.0,0.0,0.0,0.0,0.0,0.0,0.0,0.0,0.0,0.0,0.0,0.0,0.0,0.0,0.0,0.0,0.0,0.0,0.0,0.0,0.0,0.0,0.0,0.0,0.0,0.0,0.0,0.0,0.0,0.0,0.0,0.0,0.0,0.1306,0.1408,0.1438,0.1478,0.1347,0.125,0.1247,0.0,0.0,0.0,0.0,0.0,0.0,0.0,0.0,0.0,0.0,0.0,0.0,0.0,0.0,0.0,0.0,0.0,0.0,0.0,0.0,0.0,0.0,0.0,0.0,0.0,0.0,0.0,0.0,0.0,0.0,0.0,0.0,0.0,0.0,0.0,0.0,0.0,0.0,0.0,0.0,0.0,0.0,0.0,0.0,0.0,0.0,0.0,0.0,0.0,0.0,0.0,0.0,0.0,0.0,0.0,0.0,0.0,0.0,0.0,0.0,0.0,0.0,0.0,0.0,0.0,0.0,0.0,0.0,0.0,0.0,0.0,0.0,0.0,0.0,0.0,0.0,0.0,0.0,0.0,0.0,0.0,0.0,0.0,0.0,0.0,0.0,0.0,0.0,0.0,0.0,0.0,0.0,0.0,0.0,0.0,0.0,0.0,0.0,0.0,0.0,0.0,0.0,0.0,0.0,0.0,0.0,0.0,0.0,0.1479,0.162,0.1625,0.1539,0.1442,0.1325,0.0,0.0,0.0,0.0,0.0,0.0,0.0,0.0,0.0,0.0,0.0,0.0,0.0,0.0,0.0,0.0,0.0,0.0,0.0,0.0,0.0,0.0,0.0,0.0,0.0,0.0,0.0,0.0,0.0,0.0,0.0,0.0,0.0,0.0,0.0,0.0,0.0,0.0,0.0,0.0,0.0,0.0,0.0,0.0,0.0,0.0,0.0,0.0,0.0,0.0,0.0,0.0,0.0,0.0,0.0,0.0,0.0,0.0,0.0,0.0,0.0,0.0,0.0,0.0,0.0,0.0,0.0,0.0,0.0,0.0,0.0,0.0,0.0,0.0,0.0,0.0,0.0,0.0,0.0,0.0,0.0,0.0,0.0,0.0,0.0,0.0,0.0,0.0,0.0,0.0,0.0,0.0,0.0,0.0,0.0,0.0,0.0,0.0,0.0,0.0,0.0,0.0,0.0,0.0,0.0,0.0,0.0,0.0,0.0,0.156,0.1721,0.1757,0.1656,0.1505,0.1385,0.0,0.0,0.0,0.0,0.0,0.0,0.0,0.0,0.0,0.0,0.0,0.0,0.0,0.0,0.0,0.0,0.0,0.0,0.0,0.0,0.0,0.0,0.0,0.0,0.0,0.0,0.0,0.0,0.0,0.0,0.0,0.0,0.0,0.0,0.0,0.0,0.0,0.0,0.0,0.0,0.0,0.0,0.0,0.0,0.0,0.0,0.0,0.0,0.0,0.0,0.0,0.0,0.0,0.0,0.0,0.0,0.0,0.0,0.0,0.0,0.0,0.0,0.0,0.0,0.0,0.0,0.0,0.0,0.0,0.0,0.0,0.0,0.0,0.0,0.0,0.0,0.0,0.0,0.0,0.0,0.0,0.0,0.0,0.0,0.0,0.0,0.0,0.0,0.0,0.0,0.0,0.0,0.0,0.0,0.0,0.0,0.0,0.0,0.0,0.0,0.0,0.0,0.0,0.0,0.0,0.0,0.0,0.0,0.1523,0.1625,0.1773,0.1755,0.1723,0.1598,0.1479,0.0,0.0,0.0,0.0,0.0,0.0,0.0,0.0,0.0,0.0,0.0,0.0,0.0,0.0,0.0,0.0,0.0,0.0,0.0,0.0,0.0,0.0,0.0,0.0,0.0,0.0,0.0,0.0,0.0,0.0,0.0,0.0,0.0,0.0,0.0,0.0,0.0,0.0,0.0,0.0,0.0,0.0,0.0,0.0,0.0,0.0,0.0,0.0,0.0,0.0,0.0,0.0,0.0,0.0,0.0,0.0,0.0,0.0,0.0,0.0,0.0,0.0,0.0,0.0,0.0,0.0,0.0,0.0,0.0,0.0,0.0,0.0,0.0,0.0,0.0,0.0,0.0,0.0,0.0,0.0,0.0,0.0,0.0,0.0,0.0,0.0,0.0,0.0,0.0,0.0,0.0,0.0,0.0,0.0,0.0,0.0,0.0,0.0,0.0,0.0,0.0,0.0,0.0,0.0,0.0,0.0,0.0,0.0,0.159,0.1697,0.1761,0.1782,0.1809,0.1745,0.1624,0.0,0.0,0.0,0.0,0.0,0.0,0.0,0.0,0.0,0.0,0.0,0.0,0.0,0.0,0.0,0.0,0.0,0.0,0.0,0.0,0.0,0.0,0.0,0.0,0.0,0.0,0.0,0.0,0.0,0.0,0.0,0.0,0.0,0.0,0.0,0.0,0.0,0.0,0.0,0.0,0.0,0.0,0.0,0.0,0.0,0.0,0.0,0.0,0.0,0.0,0.0,0.0,0.0,0.0,0.0,0.0,0.0,0.0,0.0,0.0,0.0,0.0,0.0,0.0,0.0,0.0,0.0,0.0,0.0,0.0,0.0,0.0,0.0,0.0,0.0,0.0,0.0,0.0,0.0,0.0,0.0,0.0,0.0,0.0,0.0,0.0,0.0,0.0,0.0,0.0,0.0,0.0,0.0,0.0,0.0,0.0,0.0,0.0,0.0,0.0,0.0,0.0,0.0,0.0,0.0,0.0,0.0,0.0,0.1621,0.1724,0.1752,0.1791,0.1785,0.1682,0.1564,0.0,0.0,0.0,0.0,0.0,0.0,0.0,0.0,0.0,0.0,0.0,0.0,0.0,0.0,0.0,0.0,0.0,0.0,0.0,0.0,0.0,0.0,0.0,0.0,0.0,0.0,0.0,0.0,0.0,0.0,0.0,0.0,0.0,0.0,0.0,0.0,0.0,0.0,0.0,0.0,0.0,0.0,0.0,0.0,0.0,0.0,0.0,0.0,0.6231,0.0,0.0,0.0,0.0,0.0,0.0,0.0,0.0,0.0,0.0,0.0,0.0,0.0,0.0,0.0,0.0,0.0,0.0,0.0,0.0,0.0,0.0,0.0,0.0,0.0,0.0,0.0,0.0,0.0,0.0,0.0,0.0,0.0,0.0,0.0,0.0,0.0,0.0,0.0,0.0,0.0,0.0,0.0,0.0,0.0,0.0,0.0,0.0,0.0,0.0,0.0,0.0,0.0,0.0,0.0,0.0,0.0,0.0,0.0,0.1659,0.1756,0.1764,0.1794,0.1791,0.1705,0.1595,0.0,0.0,0.0,0.0,0.0,0.0,0.0,0.0,0.0,0.0,0.0,0.0,0.0,0.0,0.0,0.0,0.0,0.0,0.0,0.0,0.0,0.0,0.0,0.0,0.0,0.0,0.0,0.0,0.0,0.0,0.0,0.0,0.0,0.0,0.0,0.0,0.0,0.0,0.0,0.0,0.0,0.0,0.0,0.0,0.0,0.0,0.0,0.0,0.0,0.0,0.0,0.0,0.0,0.0,0.0,0.0,0.0,0.0,0.0,0.0,0.0,0.0,0.0,0.0,0.0,0.0,0.0,0.0,0.0,0.0,0.0,0.0,0.0,0.0,0.0,0.0,0.0,0.0,0.0,0.0,0.0,0.0,0.0,0.0,0.0,0.0,0.0,0.0,0.0,0.0,0.0,0.0,0.0,0.0,0.0,0.0,0.0,0.0,0.0,0.0,0.0,0.0,0.0,0.0,0.0,0.0,0.0,0.1627,0.174,0.1809,0.1782,0.1794,0.1794,0.1735,0.1633,0.1486,0.0,0.0,0.0,0.0,0.0,0.0,0.0,0.0,0.0,0.0,0.0,0.0,0.0,0.0,0.0,0.0,0.0,0.0,0.0,0.0,0.0,0.0,0.0,0.0,0.0,0.0,0.0,0.0,0.0,0.0,0.0,0.0,0.0,0.0,0.0,0.0,0.0,0.0,0.5942,0.6322,0.0,0.0,0.0,0.0,0.0,0.0,0.0,0.0,0.6742,0.0,0.0,0.0,0.0,0.0,0.0,0.0,0.0,0.0,0.0,0.0,0.0,0.0,0.0,0.0,0.0,0.0,0.0,0.0,0.0,0.0,0.0,0.0,0.0,0.0,0.0,0.0,0.0,0.0,0.0,0.0,0.0,0.0,0.0,0.0,0.0,0.0,0.0,0.0,0.0,0.0,0.0,0.0,0.0,0.0,0.0,0.0,0.0,0.0,0.0,0.0,0.0,0.0,0.0,0.0,0.0,0.1576,0.161,0.1677,0.1785,0.1793,0.1794,0.1793,0.1735,0.1635,0.1531,0.0,0.0,0.0,0.0,0.0,0.0,0.0,0.0,0.0,0.0,0.0,0.0,0.0,0.0,0.0,0.0,0.0,0.0,0.0,0.0,0.0,0.0,0.0,0.0,0.0,0.0,0.0,0.0,0.0,0.0,0.0,0.0,0.0,0.0,0.0,0.0,0.0,0.0,0.0,0.6869,0.7082,0.0,0.0,0.0,0.0,0.0,0.0,0.0,0.0,0.6803,0.0,0.0,0.0,0.0,0.0,0.0,0.0,0.0,0.0,0.0,0.0,0.0,0.0,0.0,0.0,0.0,0.0,0.0,0.0,0.0,0.0,0.0,0.0,0.0,0.0,0.0,0.0,0.0,0.0,0.0,0.0,0.0,0.0,0.0,0.0,0.0,0.0,0.0,0.0,0.0,0.0,0.0,0.0,0.0,0.0,0.0,0.0,0.0,0.0,0.0,0.0,0.0,0.0,0.0,0.0,0.1471,0.1313,0.1332,0.1512,0.157,0.157,0.1512,0.1571,0.157,0.0,0.0,0.0,0.0,0.0,0.0,0.0,0.0,0.0,0.0,0.0,0.0,0.0,0.0,0.0,0.0,0.0,0.0,0.0,0.0,0.0,0.0,0.0,0.0,0.0,0.0,0.0,0.0,0.0,0.0,0.0,0.0,0.0,0.0,0.0,0.0,0.0,0.0,0.0,0.0,0.7011,0.7179,0.7455,0.0,0.0,0.0,0.0,0.0,0.0,0.693,0.693,0.0,0.0,0.0,0.0,0.0,0.0,0.0,0.0,0.0,0.0,0.0,0.0,0.0,0.0,0.0,0.0,0.0,0.0,0.0,0.0,0.0,0.0,0.0,0.0,0.0,0.0,0.0,0.0,0.0,0.0,0.0,0.0,0.0,0.0,0.0,0.0,0.0,0.0,0.0,0.0,0.0,0.0,0.0,0.0,0.0,0.0,0.0,0.0,0.0,0.0,0.0,0.0,0.0,0.0,0.0,0.0636,0.0352,0.0269,0.0503,0.0504,0.0504,0.0556,0.0871,0.105,0.0,0.0,0.0,0.0,0.0,0.0,0.0,0.0,0.0,0.0,0.0,0.0,0.0,0.0,0.0,0.0,0.0,0.0,0.0,0.0,0.0,0.0,0.0,0.0,0.0,0.0,0.0,0.0,0.0,0.0,0.0,0.0,0.0,0.0,0.0,0.0,0.0,0.0,0.0,0.0,0.0,0.7145,0.753,0.733,0.0,0.0,0.0,0.0,0.6917,0.7098,0.0,0.0,0.0,0.0,0.0,0.0,0.0,0.0,0.0,0.0,0.0,0.0,0.0,0.0,0.0,0.0,0.0,0.0,0.0,0.0,0.0,0.0,0.0,0.0,0.0,0.0,0.0,0.0,0.0,0.0,0.0,0.0,0.0,0.0,0.0,0.0,0.0,0.0,0.0,0.0,0.0,0.0,0.0,0.0,0.0,0.0,0.0,0.0,0.0,0.0,0.0,0.0,0.0,0.0,0.0,0.0,-0.1881,-0.2079,-0.22,-0.2227,-0.2237,-0.2165,-0.2077,-0.1118,-0.0543,0.0,0.0,0.0,0.0,0.0,0.0,0.0,0.0,0.0,0.0,0.0,0.0,0.0,0.0,0.0,0.0,0.0,0.0,0.0,0.0,0.0,0.0,0.0,0.0,0.0,0.0,0.0,0.0,0.0,0.0,0.0,0.0,0.0,0.0,0.0,0.0,0.0,0.0,0.0,0.0,0.0,0.6807,0.7509,0.6774,0.6165,0.0,0.0,0.7352,0.6285,0.7129,0.0,0.0,0.0,0.0,0.0,0.0,0.0,0.0,0.0,0.0,0.0,0.0,0.0,0.0,0.0,0.0,0.0,0.0,0.0,0.0,0.0,0.0,0.0,0.0,0.0,0.0,0.0,0.0,0.0,0.0,0.0,0.0,0.0,0.0,0.0,0.0,0.0,0.0,0.0,0.0,0.0,0.0,0.0,0.0,0.0,0.0,0.0,0.0,0.0,0.0,0.0,0.0,0.0,0.0,0.0,-0.2389,-0.2332,-0.2807,-0.3032,-0.2901,-0.2908,-0.2883,-0.278,-0.2216,-0.1565,0.0,0.0,0.0,0.0,0.0,0.0,0.0,0.0,0.0,0.0,0.0,0.0,0.0,0.0,0.0,0.0,0.0,0.0,0.0,0.0,0.0,0.0,0.0,0.0,0.0,0.0,0.0,0.0,0.0,0.0,0.0,0.0,0.0,0.0,0.0,0.0,0.0,0.0,0.0,0.0,0.0,0.0,0.6834,0.6575,0.0,0.0,0.0,0.755,0.6426,0.0,0.0,0.0,0.0,0.0,0.0,0.0,0.0,0.0,0.0,0.0,0.0,0.0,0.0,0.0,0.0,0.0,0.0,0.0,0.0,0.0,0.0,0.0,0.0,0.0,0.0,0.0,0.0,0.0,0.0,0.0,0.0,0.0,0.0,0.0,0.0,0.0,0.0,0.0,0.0,0.0,0.0,0.0,0.0,0.0,0.0,0.0,0.0,0.0,0.0,0.0,0.0,0.0,0.0,0.0,0.0,0.0,-0.3251,-0.3913,-0.4213,-0.4129,-0.4136,-0.4095,-0.3949,-0.3552,0.0,0.0,0.0,0.0,0.0,0.0,0.0,0.0,0.0,0.0,0.0,0.0,0.0,0.0,0.0,0.0,0.0,0.0,0.0,0.0,0.0,0.0,0.0,0.0,0.0,0.0,0.0,0.0942,0.0,0.0,0.0,0.0,0.0,0.0,0.0,0.0,0.0,0.0,0.0,0.0,0.0,0.0,0.4704,0.5843,0.5841,0.5418,0.0,0.0,0.6992,0.6251,0.7004,0.7703,0.0,0.0,0.0,0.0,0.0,0.0,0.0,0.0,0.0,0.0,0.0,0.0,0.0,0.0,0.0,0.0,0.0,0.0,0.0,0.0,0.0,0.0,0.0,0.0,0.0,0.0,0.0,0.0,0.0,0.0,0.0,0.0,0.0,0.0,0.0,0.0,0.0,0.0,0.0,0.0,0.0,0.0,0.0,0.0,0.0,0.0,0.0,0.0,0.0,0.0,0.0,0.0,0.0,0.0,0.0,-0.5826,-0.6297,-0.6647,-0.6922,-0.6932,-0.6827,-0.6553,-0.5554,-0.4647,0.0,0.0,0.0,0.0,0.0,0.0,0.0,0.0,0.0,0.0,0.0,0.0,0.0,0.0,0.0,0.0,0.0,0.0,0.0,0.0,0.0,0.0,0.0,0.0,0.0,0.0,0.0,0.0,0.0,0.0,0.0,0.0,0.0,0.0,0.0,0.0,0.0,0.0,0.0,0.0,0.0,0.3731,0.4521,0.406,0.3575,0.0,0.0,0.5202,0.5037,0.6104,0.7067,0.7336,0.0,0.0,0.0,0.0,0.0,0.0,0.0,0.0,0.0,0.0,0.0,0.0,0.0,0.0,0.0,0.0,0.0,0.0,0.0,0.0,0.0,0.0,0.0,0.0,0.0,0.0,0.0,0.0,0.0,0.0,0.0,0.0,0.0,0.0,0.0,0.0,0.0,0.0,0.0,0.0,0.0,0.0,0.0,0.0,0.0,0.0,0.0,0.0,0.0,0.0,0.0,0.0,0.0,-0.5556,-0.6131,-0.6562,-0.6915,-0.7199,-0.721,-0.7133,-0.6921,-0.6467,-0.5648,0.0,0.0,0.0,0.0,0.0,0.0,0.0,0.0,0.0,0.0,0.0,0.0,0.0,0.0,0.0,0.0,0.0,0.0,0.0,0.0,0.0,0.0,0.0,0.0,0.0,0.0,0.0,0.0,0.1181,0.1217,0.1247,0.0,0.0,0.0,0.0,0.0,0.0,0.0,0.0,0.0,0.0,0.2776,0.3662,0.3575,0.0,0.0,0.3938,0.4847,0.4182,0.5066,0.6008,0.6746,0.6726,0.0,0.0,0.0,0.0,0.0,0.0,0.0,0.0,0.0,0.0,0.0,0.0,0.0,0.0,0.0,0.0,0.0,0.0,0.0,0.0,0.0,0.0,0.0,0.0,0.0,0.0,0.0,0.0,0.0,0.0,0.0,0.0,0.0,0.0,0.0,0.0,0.0,0.0,0.0,0.0,0.0,0.0,0.0,0.0,0.0,0.0,0.0,0.0,0.0,0.0,0.0,0.0,-0.5665,-0.618,-0.6611,-0.6953,-0.7204,-0.721,-0.7155,-0.6986,-0.6866,-0.6295,0.0,0.0,0.0,0.0,0.0,0.0,0.0,0.0,0.0,0.0,0.0,0.0,0.0,0.0,0.0,0.0,0.0,0.0,0.0,0.0,0.0,0.0,0.0,0.0,0.0,0.0,0.0,0.0,0.1273,0.1302,0.1316,0.0,0.0,0.0,0.0,0.0,0.0,0.0,0.0,0.0,0.0,0.2074,0.2817,0.2945,0.2662,0.1909,0.3105,0.3966,0.3609,0.4153,0.4915,0.5817,0.0,0.0,0.0,0.0,0.0,0.0,0.0,0.0,0.0,0.0,0.0,0.0,0.0,0.0,0.0,0.0,0.0,0.0,0.0,0.0,0.0,0.0,0.0,0.0,0.0,0.0,0.0,-0.4378,0.0,0.0,-0.3704,0.0,0.0,0.0,0.0,0.0,0.0,0.0,0.0,0.0,0.0,0.0,0.0,0.0,0.0,0.0,0.0,0.0,0.0,0.0,0.0,0.0,0.0,-0.5714,-0.6257,-0.673,-0.7035,-0.7204,-0.721,-0.7155,-0.6991,-0.6866,-0.6573,-0.6036,0.0,0.0,0.0,0.0,0.0,0.0,0.0,0.0,0.0,0.0,0.0,0.0,0.0,0.0,0.0,0.0,0.0,0.0,0.0,0.0,0.0,0.0,0.0,0.0,0.0,0.0,0.1256,0.1352,0.1376,0.0,0.0,0.0,0.0,0.0,0.0,0.0,0.0,0.0,0.0,0.1638,0.1873,0.1844,0.1865,0.192,0.1805,0.1851,0.223,0.3241,0.3377,0.3734,0.0,0.0,0.0,0.0,0.0,0.0,0.0,0.0,0.0,0.0,0.0,0.0,0.0,0.0,0.0,0.0,0.0,0.0,0.0,0.0,0.0,0.0,0.0,0.0,0.0,0.0,0.0,-0.4972,-0.388,0.0,0.0,0.0,0.0,0.0,0.0,0.0,0.0,0.0,0.0,0.0,-0.6323,-0.641,0.0,0.0,0.0,0.0,0.0,0.0,0.0,0.0,0.0,0.0,0.0,0.0,-0.5828,-0.6317,-0.6741,-0.704,-0.7204,-0.721,-0.7193,-0.7155,-0.6986,-0.6622,-0.5986,0.0,0.0,0.0,0.0,0.0,0.0,0.0,0.0,0.0,0.0,0.0,0.0,0.0,0.0,0.0,0.0,0.0,0.0,0.0,0.0,0.0,0.0,0.0,0.0,0.0,0.1035,0.0,0.0,0.0,0.0,0.0,0.0,0.0,0.0,0.0,0.0,0.0,0.1048,0.1038,0.1133,0.1209,0.119,0.1253,0.1307,0.0,0.0,0.0,0.0,0.0,0.0,0.0,0.0,0.0,0.0,0.0,0.0,0.0,0.0,0.665,0.5537,0.6044,0.6623,0.6662,0.0,0.0,0.0,0.0,0.0,0.0,0.0,0.0,0.0,0.0,0.0,0.0,0.0,0.0,-0.5651,0.0,-0.5359,0.0,0.0,0.0,0.0,0.0,0.0,0.0,0.0,-0.6584,-0.6893,-0.7116,-0.7236,-0.723,0.0,-0.6915,-0.6458,0.0,0.0,0.0,0.0,0.0,0.0,0.0,0.0,-0.6072,-0.6393,-0.6876,-0.7139,-0.7204,-0.721,-0.721,-0.721,-0.7046,-0.6719,-0.617,-0.5926,-0.5687,0.0,0.0,0.0,0.0,0.0,0.0,0.0,0.0,0.0,0.0,0.0,0.0,0.0,0.0,0.0,0.0,0.0,0.0,0.0,0.0,0.0,0.0,0.0,0.0844,0.0,0.0,0.0,0.0,0.0,0.0,0.0,0.0,0.0,0.0856,0.0841,0.0826,0.0738,0.0869,0.0932,0.0927,0.0,0.0,0.0,0.0,0.0,0.0,0.0,0.2116,0.2864,0.2979,0.3162,0.3932,0.4232,0.438,0.4377,0.0,0.0,0.4772,0.5472,0.6084,0.6149,0.7044,0.7769,0.7872,0.811,0.8346,0.0,0.0,0.0,0.0,0.0,0.0,0.0,0.0,-0.6866,-0.679,0.0,-0.6431,0.0,0.0,0.0,0.0,0.0,-0.6257,0.0,0.0,-0.747,-0.7714,-0.7731,-0.7823,-0.7823,-0.7736,-0.7812,-0.767,-0.7182,-0.6127,0.0,0.0,0.0,0.0,0.0,0.0,-0.6399,-0.6622,-0.698,-0.7215,-0.721,-0.721,-0.721,-0.721,-0.7046,-0.6872,-0.6638,-0.6399,-0.6165,-0.592,-0.536,0.0,0.0,0.0,0.0,0.0,0.0,0.0,0.0,0.0,0.0,0.0,0.0,0.0,0.0,0.0,0.0,0.0,0.0,0.0,0.0,0.0645,0.0,0.0,0.0,0.0,0.0,0.0,0.0,0.0,0.0,0.0,0.0398,0.0656,0.0751,0.0515,0.0,0.0,0.0,0.0,0.0866,0.0866,0.1175,0.136,0.1422,0.175,0.2008,0.2048,0.0,0.0,0.214,0.2183,0.2271,0.2148,0.2257,0.3032,0.5436,0.573,0.5812,0.582,0.5824,0.5763,0.5904,0.6308,0.638,-0.8795,0.0,0.0,0.0,0.0,-0.7584,-0.7758,-0.8073,-0.7986,-0.779,-0.7508,-0.7442,0.0,0.0,0.0,0.0,0.0,0.0,-0.7274,-0.7616,-0.7758,-0.7959,-0.8209,-0.8155,-0.816,-0.8209,-0.8068,-0.7993,-0.7834,-0.723,-0.6603,-0.6067,0.0,0.0,0.0,0.0,-0.6681,-0.6763,-0.71,-0.7241,-0.721,-0.721,-0.721,-0.721,-0.7046,-0.6953,-0.6877,-0.6649,-0.6448,-0.6236,-0.5877,0.0,0.0,0.0,0.0,0.0,0.0,0.0,0.0,0.0,0.0,0.0,0.0,0.0,0.0,0.0,0.0,0.0,0.0,0.0,-0.0767,-0.0748,-0.0532,0.0,0.0,0.0,0.0,0.0,0.0,0.0,0.0,0.0,0.0128,0.0193,0.0195,0.0,0.0,0.0263,0.0259,0.0256,0.0319,0.0574,0.0702,0.0,0.1401,0.1584,0.172,0.2094,0.2161,0.2134,0.2195,0.2208,0.2221,0.2222,0.224,0.2538,0.3191,0.4055,0.4635,0.4796,0.5508,0.6236,0.646,0.6617,0.6673,-1.0436,-0.9684,-0.9236,-0.8897,-0.8765,-0.8626,-0.8741,-0.8981,-0.8959,-0.8815,-0.8603,-0.8649,-0.8424,-0.7893,-0.7522,0.0,0.0,0.0,-0.8042,-0.8529,-0.8523,-0.8678,-0.8936,-0.8802,-0.8873,-0.887,-0.8741,-0.8643,-0.8638,-0.8311,-0.7829,-0.7269,0.0,0.0,-0.6518,-0.6844,-0.6991,-0.6959,-0.7252,-0.7323,-0.7215,-0.721,-0.721,-0.721,-0.7144,-0.7029,-0.6986,-0.6796,-0.6632,-0.6462,-0.6165,-0.5801,0.0,0.0,0.0,0.0,0.0,0.0,0.0,0.0,0.0,0.0,0.0,-0.3041,-0.2449,0.0,0.0,0.0,-0.2909,-0.2854,-0.2363,-0.1952,0.0,0.0,0.0,0.0,0.0,0.0,0.0,0.0,0.0,0.0,0.0,0.0,0.0,0.0,0.0,0.0,0.0,0.0,0.0066,0.0263,0.0396,0.0662,0.1059,0.1254,0.1532,0.1923,0.1958,0.2055,0.2207,0.2279,0.2286,0.2303,0.2308,0.2312,0.2257,0.2922,0.3431,0.3514,0.4241,0.4843,0.4952,0.5063,0.5159,-1.1958,-1.1499,-1.0423,-0.996,-0.9881,-0.9814,-0.974,-0.9629,-0.9679,-0.9783,-0.9789,-0.9888,-0.9801,-0.9608,-0.8803,0.0,-0.8934,-0.8688,-0.8878,-0.9537,-0.9537,-0.9539,-0.9728,-0.9728,-0.9728,-0.9721,-0.9533,-0.9537,-0.9459,-0.9266,-0.9008,-0.8749,-0.7795,-0.7321,-0.7287,-0.7352,-0.7363,-0.7299,-0.7525,-0.7473,-0.7287,-0.7226,-0.7215,-0.7193,-0.7199,-0.7139,-0.697,-0.685,-0.6736,-0.6616,-0.6295,-0.6007,-0.5718,0.0,0.0,0.0,0.0,0.0,0.0,0.0,0.0,0.0,0.0,0.0,0.0,0.0,0.0,0.0,-0.3893,0.0,-0.4112,-0.3076,0.0,0.0,0.0,-0.087,-0.218,-0.118,-0.0409,-0.0414,0.0,0.0,-0.0366,0.0,0.0,-0.0216,-0.007,0.0,0.0,0.0,0.0,0.0,0.0273,0.0482,0.0549,0.0902,0.1264,0.1564,0.1647,0.1799,0.2105,0.2257,0.2258,0.2258,0.2334,0.2264,0.2337,0.2431,0.2373,0.2415,0.2412,0.2412,0.2562,0.256,0.263,-1.2424,-1.2219,-1.1898,-1.1257,-1.065,-1.065,-1.057,-1.037,-1.0367,-1.0281,-1.0113,-1.0109,-1.0041,-0.9974,-0.9783,-0.9685,-0.9678,-0.9546,-0.9612,-0.9612,-0.9678,-0.9697,-0.9728,-0.9728,-0.9728,-0.9728,-0.9697,-0.9678,-0.9672,-0.9506,-0.934,-0.9168,-0.8793,-0.8432,-0.8055,-0.8258,-0.8306,-0.8175,-0.8342,-0.8178,-0.7692,-0.763,-0.7483,-0.7084,-0.7078,-0.697,-0.685,-0.673,-0.6649,-0.6616,-0.6398,-0.6246,-0.6013,-0.568,0.0,0.0,0.0,0.0,0.0,0.0,0.0,0.0,0.0,-0.5649,-0.4836,0.0,-0.5752,0.0,-0.6029,-0.6074,-0.5614,-0.5248,0.0,0.0,-0.4061,-0.3821,-0.4123,-0.3942,-0.3803,-0.378,-0.3775,-0.3818,-0.3818,-0.2675,-0.192,-0.1913,-0.0792,0.0,0.0,0.0,0.0,0.0,0.0,0.0209,0.0489,0.0847,0.1141,0.1216,0.1298,0.1455,0.1821,0.1895,0.2041,0.2261,0.2353,0.2365,0.2367,0.2393,0.2409,0.2403,0.2402,0.2402,0.2402,0.2383,0.2367,-1.2745,-1.2603,-1.2589,-1.2229,-1.1637,-1.1376,-1.1247,-1.1158,-1.0959,-1.0863,-1.085,-1.0767,-1.0697,-1.0639,-1.0499,-1.0486,-1.0496,-1.0284,-1.0215,-1.0223,-1.0223,-1.0184,-1.0127,-1.0127,-1.0127,-1.0127,-1.0127,-1.0127,-1.012,-1.0043,-0.9934,-0.9851,-0.978,-0.9522,-0.9044,-0.8875,-0.8737,-0.8595,-0.8608,-0.8454,-0.8188,-0.8076,-0.7809,-0.7292,-0.7391,-0.7223,-0.673,-0.6813,-0.6752,-0.6545,-0.6425,-0.6377,-0.6246,-0.6067,-0.5888,0.0,0.0,0.0,0.0,0.0,0.0,0.0,0.0,0.0,0.0,0.0,-0.6899,-0.6948,-0.7334,-0.7475,-0.7307,-0.6813,-0.6593,-0.6777,-0.5684,-0.5211,-0.5842,-0.54,-0.5009,-0.4968,-0.503,-0.4978,-0.4954,-0.3561,-0.248,-0.2453,-0.1028,0.0,0.0,0.0,0.0,0.0,0.0,0.0071,0.0285,0.0431,0.065,0.0867,0.0871,0.1094,0.1459,0.1677,0.1899,0.2057,0.2219,0.2383,0.2397,0.2423,0.2443,0.2446,0.2455,0.2454,0.2429,0.241,0.2398,-1.2895,-1.2773,-1.2881,-1.2766,-1.2467,-1.206,-1.1891,-1.187,-1.1592,-1.1518,-1.1592,-1.1592,-1.1518,-1.1396,-1.1127,-1.1061,-1.1192,-1.0846,-1.0767,-1.0914,-1.0907,-1.0907,-1.0778,-1.0758,-1.0751,-1.0751,-1.0731,-1.0717,-1.0717,-1.0717,-1.0643,-1.05,-1.0493,-1.0358,-1.0024,-0.9396,-0.9012,-0.8856,-0.8732,-0.8719,-0.876,-0.8537,-0.8168,-0.7727,-0.7864,-0.757,-0.6695,-0.6997,-0.6958,-0.6502,-0.6513,-0.6468,-0.6457,-0.6415,-0.6355,0.0,-0.6295,0.0,0.0,0.0,0.0,0.0,0.0,0.0,0.0,-0.7374,-0.7486,-0.779,-0.8127,-0.8465,-0.8807,-0.8007,-0.8016,-0.9308,-0.7309,-0.6305,-0.7444,-0.6437,-0.5637,-0.5627,-0.5689,-0.5705,-0.5714,-0.4165,-0.3213,-0.3224,-0.1933,0.0,0.0,0.0,0.0,0.0,0.0,0.0,0.0,0.0,0.0146,0.0438,0.0511,0.0657,0.1025,0.139,0.1615,0.1708,0.2017,0.2326,0.2349,0.2377,0.2474,0.2474,0.2493,0.2493,0.2453,0.2433,0.2429,-1.3044,-1.2908,-1.2813,-1.2671,-1.2488,-1.2291,-1.2203,-1.2189,-1.2013,-1.1748,-1.1436,-1.1436,-1.1416,-1.1402,-1.1453,-1.142,-1.1348,-1.1278,-1.1197,-1.1118,-1.1124,-1.1104,-1.107,-1.0962,-1.084,-1.0826,-1.0712,-1.0717,-1.0717,-1.0717,-1.0643,-1.0493,-1.0493,-1.0405,-1.0243,0.0,0.0,0.0,-0.9566,-0.9393,-0.9129,-0.9071,-0.8691,-0.8005,-0.7938,0.0,-0.7061,-0.7154,-0.7042,-0.6741,-0.6915,0.0,0.0,0.0,0.0,0.0,0.0,0.0,0.0,0.0,0.0,0.0,-0.7801,-0.7676,-0.7796,-0.8182,-0.8454,-0.8432,-0.866,-0.8852,-0.9177,-0.9149,-0.926,-0.9683,-0.9444,-0.9296,-0.9506,-0.9271,-0.9149,-0.9061,-0.9144,-0.9169,-0.8832,-0.7722,-0.6597,-0.6263,-0.4954,-0.3999,-0.3829,-0.1679,0.0,0.0,0.0,0.0,0.0,0.0,0.0,0.0073,0.0146,0.0293,0.0591,0.0815,0.0967,0.1205,0.1598,0.1915,0.1921,0.2252,0.2503,0.2506,0.251,0.2511,0.2499,0.2477,0.2461,-1.32,0.0,-1.3064,-1.2935,0.0,-1.2651,-1.2535,-1.2372,-1.2074,-1.1823,-1.1606,-1.1538,-1.1545,-1.1606,-1.1538,-1.1504,-1.1504,-1.1504,-1.1423,-1.128,-1.1274,-1.1233,-1.1227,-1.109,-1.1016,-1.088,-1.0799,-1.0792,-1.0724,-1.0717,-1.0683,-1.0609,-1.0602,-1.0527,-1.0385,-1.0317,-1.0168,-0.9876,-0.9856,-0.9727,-0.9526,-0.94,-0.9111,-0.8603,-0.8633,0.0,0.0,0.0,0.0,0.0,0.0,0.0,0.0,0.0,0.0,-0.7415,-0.7535,-0.7655,-0.7774,-0.7943,-0.8204,-0.8557,-0.8584,-0.8481,-0.8247,-0.8617,-0.8861,-0.8867,-0.9079,-0.9313,-0.9546,-0.9786,-1.0003,-1.0172,-1.0302,-1.0351,-1.0291,-1.0231,-1.0204,-1.0204,-1.0199,-1.0177,-1.0117,-0.8688,-0.7681,-0.7403,-0.6011,-0.4959,-0.4675,-0.3447,-0.2331,-0.2258,-0.153,0.0,-0.1093,0.0,0.0,0.0,0.0,0.0,0.0297,0.0521,0.0673,0.0913,0.1229,0.1545,0.1788,0.2035,0.2278,0.2435,0.2514,0.2514,0.2514,0.2502,0.2491,-1.3329,-1.3227,-1.3349,-1.3247,-1.3077,-1.2969,-1.2786,-1.2474,0.0,0.0,0.0,-1.1721,-1.1694,-1.1735,-1.1552,-1.1511,-1.1579,-1.1606,-1.1552,-1.143,-1.143,-1.1362,-1.1246,-1.1282,-1.1138,-1.0961,-1.0934,-1.084,-1.0765,-1.0758,-1.0744,-1.0724,-1.0717,-1.0656,-1.0527,-1.0392,-1.0256,-1.0127,-0.9978,-0.989,-0.9863,-0.9747,-0.9486,-0.9137,-0.9305,-0.9063,-0.8301,-0.8666,-0.8705,-0.8257,-0.8105,-0.8108,-0.8195,-0.8085,-0.8066,-0.8324,-0.8325,-0.836,-0.8426,-0.8678,-0.8791,-0.8829,-0.9128,-0.9128,-0.8715,-0.8889,-0.8992,-0.9188,-0.9394,-0.9612,-0.9851,-1.0177,-1.0433,-1.0541,-1.0574,-1.0579,-1.0547,-1.0389,-1.0302,-1.0362,-1.0313,-1.0259,-1.0237,-0.9133,-0.819,-0.7864,-0.703,-0.5813,-0.5602,-0.507,-0.4371,-0.4309,-0.3429,-0.2694,-0.2548,-0.19,-0.0877,0.0,0.0,-0.0885,-0.0818,-0.0374,0.0,-0.0077,0.0541,0.1166,0.1568,0.1731,0.1891,0.2207,0.2289,0.2293,0.2372,0.2372,0.237,-1.339,-1.337,-1.339,-1.3302,-1.3132,-1.301,-1.2786,-1.2467,-1.2026,-1.1904,-1.202,-1.187,-1.1674,-1.1463,-1.1674,-1.1647,-1.1436,-1.1558,-1.1606,-1.1586,-1.1586,-1.1579,-1.1552,-1.1423,-1.1348,-1.1321,-1.1199,-1.1056,-1.0928,-1.0847,-1.0786,-1.0738,-1.0717,-1.0704,-1.0677,-1.0534,-1.0453,-1.0426,-1.029,-1.0154,-0.9957,-0.9936,-0.9795,-0.9532,-0.9585,-0.932,-0.8871,-0.911,-0.9118,-0.8811,-0.8977,-0.9068,-0.8971,-0.9024,-0.9121,-0.91,-0.8904,-0.8987,-0.9297,-0.9006,-0.8861,-0.9068,-0.922,-0.9231,-0.9079,-0.9177,-0.9307,-0.9427,-0.9568,-0.9742,-0.9976,-1.0237,-1.0443,-1.0547,-1.065,-1.0672,-1.0574,-1.0525,-1.0465,-1.0411,-1.046,-1.046,-1.0384,-1.019,-0.991,-0.9792,-0.908,-0.9049,-0.8394,-0.6496,-0.4903,-0.4785,-0.4541,-0.4371,-0.4309,-0.426,-0.3827,-0.4083,-0.4004,-0.3825,-0.3765,-0.281,-0.2074,-0.2027,-0.0703,0.047,0.0707,0.111,0.1353,0.1514,0.1604,0.1616,0.1939,0.2019,0.209,-1.3397,-1.3397,-1.3397,-1.3363,-1.3281,-1.3138,-1.2786,-1.2481,-1.2203,-1.2162,-1.2271,-1.206,-1.1932,-1.1877,-1.1843,-1.1714,-1.1525,-1.1667,-1.1647,-1.1511,-1.1586,-1.1619,-1.1613,-1.1545,-1.147,-1.1389,-1.1321,-1.1206,-1.107,-1.0921,-1.0847,-1.0772,-1.0765,-1.0717,-1.0717,-1.0649,-1.0616,-1.0609,-1.0392,-1.0243,-1.0175,-1.0175,-1.0107,-0.9971,-0.9971,-0.9883,-0.9693,-0.9819,-0.9761,-0.9636,-0.964,-0.9652,-0.9595,-0.9528,-0.9568,-0.9641,-0.9504,-0.9581,-0.9838,-0.9515,-0.9392,-0.9501,-0.9479,-0.9383,-0.9329,-0.9372,-0.9454,-0.9579,-0.9807,-1.003,-1.0204,-1.0433,-1.0596,-1.0645,-1.0704,-1.0715,-1.0655,-1.059,-1.0563,-1.0568,-1.0563,-1.0536,-1.0487,-1.0525,-1.0465,-1.0237,-1.0052,-0.99,-0.9856,-0.8525,-0.7364,-0.7397,-0.67,-0.6163,-0.6086,-0.5366,-0.5,-0.4829,-0.4945,-0.4993,-0.4872,-0.4221,-0.3942,-0.3749,-0.2352,-0.1177,-0.0784,0.0159,0.0878,0.1281,0.1292,0.1382,0.1546,0.1546,0.1783,-1.3397,-1.3397,-1.3397,-1.3397,-1.3383,-1.3159,-1.2901,-1.2651,-1.2542,-1.2515,-1.2508,-1.2244,-1.2162,-1.221,-1.202,-1.1803,-1.1606,-1.1714,-1.1619,-1.1369,-1.1463,-1.1518,-1.1518,-1.1518,-1.1457,-1.1355,-1.1369,-1.1314,-1.1165,-1.105,-1.0962,-1.0826,-1.0778,-1.0717,-1.0717,-1.0717,-1.0717,-1.0704,-1.0493,-1.0365,-1.0331,-1.0331,-1.031,-1.0347,-1.031,-1.0331,-1.0331,-1.0365,-1.0399,-1.0432,-1.0247,-1.0169,-1.0202,-1.0016,-0.999,-1.0109,-1.0085,-1.011,-1.0132,-1.0036,-0.9924,-1.0017,-0.9753,-0.9601,-0.9628,-0.956,-0.9546,-0.9715,-0.9998,-1.0242,-1.0378,-1.059,-1.0726,-1.0704,-1.0721,-1.0721,-1.0693,-1.0634,-1.0628,-1.071,-1.0655,-1.0596,-1.0596,-1.0596,-1.052,-1.0318,-1.0074,-0.9976,-1.0047,-0.9921,-0.9802,-0.9542,-0.8658,-0.7915,-0.7774,-0.7038,-0.6355,-0.6046,-0.6225,-0.6412,-0.6298,-0.5928,-0.5575,-0.5393,-0.4229,-0.3133,-0.2588,-0.1746,-0.0721,-0.008,0.0081,0.0408,0.1063,0.1226,0.1549,-1.3397,-1.3397,-1.3397,-1.3397,-1.3397,-1.3363,-1.3247,-1.3098,-1.3091,-1.2942,-1.2671,-1.24,-1.2203,-1.2115,-1.2203,-1.1945,-1.147,-1.1572,-1.1491,-1.1295,-1.1199,-1.1206,-1.1233,-1.1219,-1.1199,-1.1206,-1.1321,-1.1307,-1.1185,-1.1151,-1.1002,-1.0772,-1.0724,-1.0717,-1.0717,-1.0717,-1.0717,-1.0717,-1.0697,-1.0616,-1.048,-1.0473,-1.0412,-1.0347,-1.0405,-1.0473,-1.0473,-1.0609,-1.0744,-1.0793,-1.0691,-1.0691,-1.0799,-1.0652,-1.0658,-1.0738,-1.0659,-1.0563,-1.0454,-1.0431,-1.0437,-1.0455,-1.0119,-0.9966,-0.999,-0.9713,-0.9584,-0.9813,-1.0057,-1.0248,-1.0384,-1.0601,-1.0693,-1.0623,-1.0683,-1.0699,-1.0617,-1.0661,-1.0643,-1.0732,-1.0715,-1.0715,-1.0704,-1.0699,-1.065,-1.0503,-1.0291,-1.0182,-1.0275,-1.0193,-1.0101,-1.0068,-0.9664,-0.9478,-0.9322,-0.9455,-0.8939,-0.9036,-0.931,-0.9059,-0.8664,-0.7993,-0.7271,-0.7111,-0.5874,-0.4855,-0.4721,-0.4539,-0.3878,-0.2343,-0.1874,-0.1648,0.0165,0.099,0.1314,-1.3397,-1.3397,-1.3397,-1.3397,-1.3397,-1.3397,-1.3268,-1.3057,-1.3051,-1.2881,-1.2603,-1.2467,-1.2379,-1.2332,-1.2386,-1.2135,-1.1681,-1.1904,-1.1803,-1.1457,-1.1436,-1.1436,-1.1416,-1.124,-1.1234,-1.1234,-1.1295,-1.1267,-1.128,-1.1206,-1.1016,-1.0751,-1.0717,-1.0717,-1.0717,-1.0717,-1.0717,-1.0717,-1.0717,-1.069,-1.0636,-1.0629,-1.0595,-1.0555,-1.0595,-1.0629,-1.0629,-1.069,-1.0751,-1.0806,-1.0751,-1.0744,-1.0745,-1.0772,-1.0921,-1.107,-1.1161,-1.12,-1.1175,-1.0894,-1.0822,-1.0822,-1.0608,-1.0503,-1.0557,-1.0479,-1.0404,-1.033,-1.0302,-1.0275,-1.0465,-1.0639,-1.0715,-1.0677,-1.071,-1.0715,-1.0672,-1.0704,-1.0737,-1.0737,-1.0737,-1.0737,-1.0726,-1.0677,-1.0612,-1.0547,-1.0405,-1.0346,-1.0373,-1.028,-1.0215,-1.0177,-1.0008,-0.99,-0.9873,-0.9905,-0.9916,-0.9905,-0.9954,-0.9987,-0.9816,-0.9583,-0.8998,-0.892,-0.7513,-0.6577,-0.6499,-0.5548,-0.4738,-0.3866,-0.2918,-0.2207,-0.131,-0.0246,0.0572,-1.3397,-1.3397,-1.3397,-1.3397,-1.3397,-1.3397,-1.3281,-1.3098,-1.3085,-1.2929,-1.2698,-1.2644,-1.2603,-1.2562,-1.2522,-1.2277,-1.1959,-1.2128,-1.2013,-1.164,-1.1579,-1.1552,-1.1531,-1.1294,-1.1138,-1.1118,-1.1145,-1.1219,-1.1307,-1.1226,-1.105,-1.086,-1.0799,-1.0785,-1.0712,-1.0751,-1.0717,-1.0717,-1.0717,-1.0717,-1.0717,-1.0717,-1.0717,-1.0717,-1.0717,-1.0717,-1.0717,-1.0717,-1.0738,-1.0778,-1.0744,-1.0758,-1.0839,-1.0948,-1.1111,-1.1328,-1.1552,-1.1674,-1.1674,-1.1352,-1.1221,-1.1233,-1.118,-1.1064,-1.1064,-1.1057,-1.0962,-1.0843,-1.0639,-1.0616,-1.0525,-1.0666,-1.0721,-1.0699,-1.071,-1.0726,-1.0688,-1.071,-1.0737,-1.0737,-1.0737,-1.0737,-1.0721,-1.0639,-1.065,-1.059,-1.0509,-1.0433,-1.0416,-1.0335,-1.0248,-1.0204,-1.0095,-1.0019,-1.0019,-1.0008,-1.0019,-1.0019,-1.0019,-1.0019,-1.0019,-1.0019,-0.9942,-0.9392,-0.8608,-0.8301,-0.8228,-0.7114,-0.6059,-0.5513,-0.4502,-0.3318,-0.3153,-0.1783,-0.0813,-1.3397,-1.3403,-1.3397,-1.3397,-1.3397,-1.3397,-1.339,-1.3432,-1.3363,-1.3281,-1.3105,-1.3056,-1.2854,-1.2705,-1.264,-1.2415,-1.2081,-1.2088,-1.1945,-1.1647,-1.1569,-1.148,-1.1389,-1.124,-1.1159,-1.1328,-1.1474,-1.1413,-1.1303,-1.1227,-1.1227,-1.1186,-1.0975,-1.0853,-1.0826,-1.0778,-1.0717,-1.0717,-1.0717,-1.0717,-1.0717,-1.0717,-1.0717,-1.0717,-1.0717,-1.0717,-1.0717,-1.0717,-1.0778,-1.086,-1.0792,-1.0839,-1.1097,-1.1145,-1.1341,-1.1714,-1.1796,-1.1809,-1.1789,-1.1615,-1.1649,-1.1878,-1.1543,-1.1373,-1.1579,-1.1265,-1.1081,-1.1015,-1.1282,-1.1193,-1.0781,-1.0755,-1.0776,-1.0694,-1.0677,-1.0677,-1.0672,-1.0683,-1.0732,-1.0737,-1.0737,-1.0737,-1.0732,-1.0628,-1.0628,-1.0666,-1.0617,-1.0623,-1.0514,-1.0438,-1.0329,-1.021,-1.0106,-1.0019,-1.0019,-1.0019,-1.0019,-1.0019,-1.0019,-1.003,-1.0019,-1.0019,-1.0019,-1.0025,-0.9708,-0.9558,-0.9807,-0.9458,-0.873,-0.7731,-0.6088,-0.5145,-0.4873,-0.3465,-0.2504,-1.4235,-1.3818,-1.3818,-1.3818,-1.3901,-1.4142,-1.4059,-1.3901,-1.3818,-1.3562,-1.3247,-1.3104,-1.2874,-1.2718,-1.3641,-1.3381,-1.2299,-1.2298,-1.2182,-1.2052,-1.275,-1.3047,-1.3043,-1.3513,-1.3823,-1.3754,-1.3628,-1.3069,-1.2291,-1.2307,-1.1842,-1.1015,-1.0833,-1.0806,-1.0792,-1.0751,-1.0717,-1.0717,-1.0717,-1.0717,-1.0784,-1.0717,-1.0717,-1.0717,-1.0717,-1.0717,-1.0717,-1.0717,-1.0744,-1.0732,-1.0744,-1.0812,-1.1016,-1.1206,-1.1423,-1.1653,-1.1694,-1.1694,-1.1687,-1.1653,-1.166,-1.1769,-1.1837,-1.1757,-1.181,-1.1825,-1.1869,-1.1784,-1.1877,-1.1876,-1.1599,-1.1297,-1.1137,-1.1103,-1.087,-1.0721,-1.0688,-1.071,-1.0737,-1.0737,-1.0737,-1.0737,-1.0726,-1.0693,-1.0688,-1.0721,-1.0699,-1.0639,-1.0552,-1.046,-1.0346,-1.0221,-1.0101,-1.0019,-1.0019,-1.0019,-1.0019,-1.0019,-1.0025,-1.0079,-1.009,-1.0052,-1.0047,-1.0095,-1.0079,-1.0025,-0.9958,-0.9885,-0.9473,-0.9164,-0.7548,-0.6756,-0.6623,-0.5167,-0.4455,-1.4703,-1.4322,-1.4315,-1.4307,-1.4307,-1.4555,-1.4878,-1.5043,-1.5126,-1.5213,-1.5325,-1.524,-1.5066,-1.4971,-1.5795,-1.5608,-1.4402,-1.4152,-1.3824,-1.3752,-1.4481,-1.483,-1.4917,-1.5358,-1.5547,-1.5433,-1.5063,-1.4417,-1.3633,-1.3611,-1.3169,-1.2268,-1.214,-1.2109,-1.2102,-1.2056,-1.2025,-1.2033,-1.2025,-1.2099,-1.2099,-1.2099,-1.2025,-1.2025,-1.2033,-1.1571,-1.0784,-1.0717,-1.0717,-1.0717,-1.0717,-1.0833,-1.1084,-1.1369,-1.1579,-1.1674,-1.1694,-1.1667,-1.1626,-1.1619,-1.1701,-1.1891,-1.2033,-1.2108,-1.2128,-1.2406,-1.2427,-1.2292,-1.2456,-1.2505,-1.2358,-1.2038,-1.1736,-1.157,-1.1237,-1.0904,-1.0904,-1.082,-1.0737,-1.0737,-1.0737,-1.0737,-1.0737,-1.0737,-1.0732,-1.0737,-1.0737,-1.0677,-1.053,-1.0438,-1.0324,-1.0182,-1.0117,-1.0063,-1.0057,-1.0057,-1.0047,-1.0041,-1.0068,-1.0123,-1.015,-1.0106,-1.0101,-1.015,-1.0128,-1.0057,-1.0019,-1.0019,-0.9942,-0.9942,-0.9339,-0.8346,-0.7768,-0.6975,-0.621,-1.512,-1.5051,-1.4796,-1.5126,-1.5208,-1.5283,-1.5933,-1.7156,-1.7311,-1.8028,-1.8946,-1.9334,-1.8778,-1.8896,-1.8735,-1.8754,-1.8135,-1.7442,-1.6899,-1.661,-1.6477,-1.6538,-1.6686,-1.6551,-1.6362,-1.6177,-1.5395,-1.5147,-1.5073,-1.5101,-1.5052,-1.5066,-1.4691,-1.4524,-1.4911,-1.4528,-1.4642,-1.4511,-1.4446,-1.4577,-1.4838,-1.4577,-1.453,-1.467,-1.4604,-1.3498,-1.1063,-1.0989,-1.1115,-1.0982,-1.0864,-1.1002,-1.1321,-1.1619,-1.1736,-1.1789,-1.1809,-1.1748,-1.164,-1.1619,-1.1857,-1.223,-1.2332,-1.2359,-1.2522,-1.2678,-1.2619,-1.2539,-1.2748,-1.3057,-1.3037,-1.2827,-1.2484,-1.2152,-1.1653,-1.1403,-1.132,-1.0987,-1.0732,-1.0726,-1.0726,-1.0737,-1.0732,-1.0732,-1.0737,-1.0737,-1.0732,-1.0655,-1.0465,-1.0394,-1.028,-1.0134,-1.009,-1.009,-1.0095,-1.0106,-1.0085,-1.0074,-1.0117,-1.0161,-1.0193,-1.0177,-1.0193,-1.0226,-1.0161,-1.009,-1.0019,-1.0019,-1.0019,-0.9942,-0.9708,-0.9553,-0.9003,-0.8219,-0.7907,-1.9177,-1.8808,-1.9014,-1.8903,-1.8779,-1.9105,-1.943,-1.9582,-1.9582,-1.9745,-1.9866,-1.9754,-1.9531,-1.9532,-2.0165,-2.046,-2.0073,-2.0427,-1.9574,-1.7756,-1.8011,-1.8193,-1.8089,-1.8663,-1.8778,-1.8395,-1.8147,-1.7435,-1.6588,-1.6447,-1.602,-1.5205,-1.5044,-1.4932,-1.5091,-1.4941,-1.4903,-1.4903,-1.4903,-1.4903,-1.4903,-1.4912,-1.5044,-1.5167,-1.5186,-1.4657,-1.3918,-1.3673,-1.3604,-1.3538,-1.273,-1.2036,-1.1629,-1.1579,-1.1681,-1.1687,-1.1687,-1.1674,-1.1633,-1.1633,-1.1869,-1.2203,-1.2333,-1.2325,-1.2467,-1.2886,-1.2974,-1.2745,-1.3017,-1.3288,-1.3329,-1.3287,-1.2975,-1.2567,-1.2152,-1.1902,-1.1819,-1.1486,-1.1191,-1.1052,-1.0848,-1.0693,-1.065,-1.0666,-1.0715,-1.0715,-1.0721,-1.0634,-1.0449,-1.0378,-1.0335,-1.0188,-1.0161,-1.0123,-1.0144,-1.0172,-1.0177,-1.0172,-1.0193,-1.0253,-1.0275,-1.0275,-1.0286,-1.0259,-1.0193,-1.0123,-1.0057,-1.0019,-1.0019,-1.0025,-0.9874,-0.9869,-0.9942,-0.9558,-0.8949,-2.144,-2.1047,-2.1174,-2.11,-2.0888,-2.113,-2.1453,-2.1775,-2.1775,-2.2017,-2.2213,-2.2248,-2.2043,-2.1949,-2.2632,-2.2615,-2.219,-2.279,-2.1748,-1.9719,-1.9778,-1.9982,-1.9831,-2.0326,-2.041,-2.002,-1.9742,-1.9137,-1.8123,-1.8046,-1.7653,-1.6865,-1.664,-1.6726,-1.6692,-1.6567,-1.6535,-1.6681,-1.6716,-1.664,-1.6779,-1.6734,-1.6862,-1.6988,-1.7009,-1.7009,-1.6999,-1.6873,-1.6232,-1.5224,-1.4343,-1.3728,-1.3122,-1.3224,-1.3246,-1.3246,-1.3317,-1.3317,-1.3253,-1.3017,-1.2714,-1.3011,-1.2797,-1.2569,-1.2828,-1.3493,-1.4011,-1.3946,-1.418,-1.4295,-1.4295,-1.4354,-1.3941,-1.2986,-1.2535,-1.2312,-1.2069,-1.1819,-1.1594,-1.1435,-1.1282,-1.1012,-1.088,-1.0787,-1.0689,-1.0606,-1.0606,-1.0585,-1.0416,-1.0346,-1.0275,-1.0215,-1.0172,-1.0166,-1.0199,-1.0231,-1.0269,-1.028,-1.0286,-1.0362,-1.0416,-1.0384,-1.0378,-1.0302,-1.0237,-1.0155,-1.0085,-1.0036,-1.0019,-1.003,-1.0047,-1.0095,-1.0033,-1.0028,-0.9719,-2.2437,-2.2009,-2.1998,-2.203,-2.1797,-2.1786,-2.2671,-2.3804,-2.3896,-2.4694,-2.5819,-2.5714,-2.5793,-2.5763,-2.5124,-2.4753,-2.4536,-2.3805,-2.3253,-2.2403,-2.202,-2.1691,-2.1772,-2.1363,-2.1021,-2.0798,-2.0282,-1.9948,-1.9651,-1.9585,-1.9893,-1.9511,-1.922,-1.9561,-1.9326,-1.9309,-1.9072,-1.9314,-1.9328,-1.934,-1.9542,-1.9633,-1.9669,-1.9626,-1.9571,-1.9571,-1.9492,-1.9389,-1.8284,-1.5998,-1.5807,-1.58,-1.5816,-1.6027,-1.5778,-1.5707,-1.599,-1.5877,-1.5728,-1.4971,-1.4588,-1.4786,-1.4203,-1.3325,-1.4018,-1.5215,-1.5926,-1.586,-1.5934,-1.5958,-1.5975,-1.6073,-1.5354,-1.3711,-1.3068,-1.2637,-1.2222,-1.2127,-1.2041,-1.1855,-1.1749,-1.1643,-1.1126,-1.1039,-1.0895,-1.0659,-1.0583,-1.0648,-1.0517,-1.0445,-1.0226,-1.0188,-1.0161,-1.0204,-1.0231,-1.0231,-1.028,-1.0384,-1.0378,-1.0411,-1.0509,-1.0492,-1.04,-1.0329,-1.0291,-1.0199,-1.0117,-1.0068,-1.003,-1.0025,-1.0079,-1.0166,-1.0193,-1.0172,-1.0166,-2.6211,-2.5468,-2.5727,-2.5537,-2.505,-2.5012,-2.5251,-2.566,-2.566,-2.5898,-2.6386,-2.64,-2.6239,-2.6023,-2.5651,-2.5197,-2.4609,-2.4048,-2.3607,-2.316,-2.2799,-2.241,-2.2217,-2.183,-2.1596,-2.147,-2.0891,-2.0466,-2.0293,-2.0051,-2.0081,-2.0158,-2.0008,-1.9917,-2.0074,-1.9833,-1.9748,-1.9857,-1.9833,-1.9808,-1.9881,-1.9905,-1.9989,-2.0158,-2.0171,-2.0183,-2.0171,-2.0171,-1.9389,-1.7533,-1.7402,-1.6946,-1.6308,-1.6305,-1.6413,-1.6413,-1.6272,-1.6287,-1.6458,-1.6332,-1.6359,-1.6751,-1.6573,-1.6766,-1.6739,-1.7414,-1.7791,-1.7745,-1.7791,-1.7747,-1.7665,-1.7684,-1.6961,-1.5325,-1.4288,-1.3273,-1.2857,-1.2566,-1.2319,-1.2029,-1.1832,-1.1647,-1.142,-1.1352,-1.1406,-1.1246,-1.1154,-1.1068,-1.0839,-1.0628,-1.0566,-1.024,-1.0155,-1.0215,-1.0253,-1.0242,-1.0302,-1.0454,-1.0465,-1.0422,-1.0525,-1.059,-1.0454,-1.0318,-1.0351,-1.0297,-1.0182,-1.0095,-1.0063,-1.0036,-1.0134,-1.0221,-1.0215,-1.0204,-1.021,-2.7696,-2.7028,-2.7201,-2.6934,-2.6426,-2.64,-2.64,-2.64,-2.64,-2.64,-2.64,-2.64,-2.6293,-2.6119,-2.5825,-2.5291,-2.4636,-2.4168,-2.3661,-2.314,-2.2939,-2.2759,-2.2506,-2.2328,-2.2164,-2.1953,-2.147,-2.1182,-2.0989,-2.0613,-2.0625,-2.0727,-2.0408,-2.0352,-2.0569,-2.0231,-2.011,-2.0171,-2.0122,-2.0086,-2.0207,-2.0219,-2.0279,-2.0424,-2.0448,-2.0448,-2.0436,-2.0436,-2.0012,-1.9301,-1.9106,-1.8816,-1.8159,-1.804,-1.804,-1.804,-1.804,-1.8248,-1.8392,-1.833,-1.8261,-1.8461,-1.8661,-1.8309,-1.8394,-1.9069,-1.9684,-1.9614,-1.9614,-1.9554,-1.9354,-1.8911,-1.8465,-1.807,-1.6605,-1.4967,-1.3513,-1.3517,-1.3251,-1.2728,-1.2198,-1.1934,-1.1717,-1.1694,-1.1646,-1.1494,-1.1391,-1.1239,-1.1075,-1.1033,-1.0853,-1.0532,-1.0353,-1.0392,-1.0368,-1.03,-1.0242,-1.0389,-1.0492,-1.0454,-1.0492,-1.0596,-1.0552,-1.0438,-1.0433,-1.0378,-1.0253,-1.0144,-1.0095,-1.0112,-1.0204,-1.0275,-1.0297,-1.0302,-1.0302,-2.7859,-2.7255,-2.7228,-2.6894,-2.644,-2.64,-2.64,-2.64,-2.64,-2.64,-2.64,-2.64,-2.6373,-2.6373,-2.6026,-2.5504,-2.4743,-2.4356,-2.3647,-2.3153,-2.2981,-2.2897,-2.2789,-2.274,-2.2627,-2.2454,-2.21,-2.1872,-2.1671,-2.1352,-2.1401,-2.1406,-2.1086,-2.0938,-2.0974,-2.0683,-2.0541,-2.0602,-2.0412,-2.0412,-2.0545,-2.0569,-2.0581,-2.0605,-2.0617,-2.0629,-2.0629,-2.0641,-2.0572,-2.0653,-2.0665,-2.0433,-2.0457,-2.0608,-2.0551,-2.0435,-2.0355,-2.0674,-2.1186,-2.0284,-2.0103,-2.0371,-1.9732,-1.9138,-1.9624,-2.0691,-2.1377,-2.1344,-2.1399,-2.1257,-2.1101,-1.9933,-1.9754,-2.0258,-1.9452,-1.7521,-1.5035,-1.488,-1.509,-1.3793,-1.3418,-1.2956,-1.2626,-1.2263,-1.2198,-1.2688,-1.2206,-1.1679,-1.1529,-1.1426,-1.1203,-1.0919,-1.0739,-1.0626,-1.0448,-1.0346,-1.03,-1.0377,-1.0427,-1.0454,-1.0422,-1.0498,-1.0579,-1.0568,-1.0454,-1.0378,-1.0307,-1.0226,-1.0161,-1.0193,-1.028,-1.0384,-1.046,-1.0454,-1.0449,-2.7589,-2.7241,-2.7014,-2.672,-2.6426,-2.64,-2.64,-2.64,-2.64,-2.64,-2.64,-2.64,-2.64,-2.6373,-2.6106,-2.5705,-2.5197,-2.4529,-2.3714,-2.2979,-2.314,-2.306,-2.2926,-2.2911,-2.311,-2.3077,-2.2562,-2.2255,-2.2104,-2.1854,-2.1843,-2.1963,-2.1685,-2.1552,-2.1447,-2.118,-2.0869,-2.0723,-2.0674,-2.0662,-2.0641,-2.0665,-2.0665,-2.0665,-2.0665,-2.0665,-2.0665,-2.0665,-2.0665,-2.0665,-2.069,-2.0726,-2.0714,-2.0929,-2.0929,-2.0834,-2.11,-2.1438,-2.1703,-2.1719,-2.1853,-2.2023,-2.2063,-2.2314,-2.213,-2.2416,-2.2894,-2.2858,-2.2784,-2.2627,-2.263,-2.2484,-2.1896,-2.1486,-2.1656,-2.0894,-1.8215,-1.7331,-1.7072,-1.6694,-1.6293,-1.628,-1.6015,-1.4713,-1.433,-1.4022,-1.319,-1.2283,-1.2057,-1.1979,-1.1545,-1.1275,-1.1173,-1.1065,-1.0878,-1.0684,-1.0532,-1.0419,-1.0456,-1.0481,-1.0448,-1.0362,-1.0427,-1.0443,-1.0416,-1.0351,-1.0286,-1.0291,-1.0226,-1.0297,-1.0335,-1.0378,-1.0422,-1.0492,-1.052,-2.7655,-2.7268,-2.7094,-2.6787,-2.6426,-2.64,-2.64,-2.64,-2.64,-2.64,-2.64,-2.64,-2.64,-2.6386,-2.6213,-2.5945,-2.5344,-2.4462,-2.3768,-2.3313,-2.3233,-2.3166,-2.3233,-2.3006,-2.306,-2.3287,-2.2895,-2.2598,-2.2448,-2.2268,-2.219,-2.2377,-2.2153,-2.197,-2.1873,-2.1735,-2.1401,-2.1024,-2.0943,-2.0873,-2.0735,-2.0665,-2.0665,-2.0665,-2.0665,-2.0665,-2.0665,-2.0868,-2.0917,-2.0953,-2.1038,-2.0977,-2.082,-2.0919,-2.1038,-2.0979,-2.1354,-2.1848,-2.2162,-2.2455,-2.2621,-2.2983,-2.3309,-2.3321,-2.3333,-2.3478,-2.3544,-2.3495,-2.3363,-2.3309,-2.3363,-2.3519,-2.2976,-2.2749,-2.2987,-2.2669,-2.1213,-1.9854,-1.8661,-1.8145,-1.7433,-1.7292,-1.6922,-1.6541,-1.6236,-1.5854,-1.456,-1.3652,-1.3274,-1.3042,-1.2121,-1.1753,-1.1669,-1.1513,-1.1317,-1.1011,-1.0748,-1.0626,-1.0538,-1.0385,-1.0333,-1.0248,-1.0253,-1.0291,-1.034,-1.0286,-1.0242,-1.0259,-1.0264,-1.0264,-1.0275,-1.0307,-1.0373,-1.0471,-1.0481,-2.7805,-2.7255,-2.7175,-2.6841,-2.644,-2.64,-2.64,-2.64,-2.64,-2.636,-2.6346,-2.636,-2.636,-2.6319,-2.636,-2.6026,-2.5304,-2.4516,-2.3888,-2.3541,-2.3193,-2.3207,-2.3313,-2.3073,-2.2926,-2.2981,-2.2886,-2.2873,-2.2791,-2.2611,-2.2536,-2.2701,-2.2466,-2.2313,-2.2281,-2.2173,-2.1893,-2.137,-2.1276,-2.1151,-2.0873,-2.0804,-2.0804,-2.0665,-2.0665,-2.0714,-2.0856,-2.1001,-2.1135,-2.1207,-2.1354,-2.1209,-2.1074,-2.1098,-2.1219,-2.116,-2.1631,-2.2054,-2.2355,-2.2624,-2.2754,-2.3297,-2.3369,-2.3381,-2.3406,-2.3478,-2.3575,-2.3575,-2.3442,-2.3321,-2.3406,-2.3556,-2.3712,-2.3668,-2.3748,-2.384,-2.3468,-2.1894,-2.0326,-1.9372,-1.9259,-1.9153,-1.8678,-1.8214,-1.7986,-1.7531,-1.616,-1.5174,-1.479,-1.433,-1.3645,-1.2951,-1.2951,-1.2108,-1.1759,-1.1454,-1.1184,-1.0898,-1.0771,-1.0582,-1.0408,-1.0431,-1.0453,-1.0248,-1.0269,-1.021,-1.0188,-1.0199,-1.0199,-1.0193,-1.0237,-1.0291,-1.0373,-1.0465,-1.0443,-2.7362,-2.7228,-2.6734,-2.648,-2.64,-2.64,-2.64,-2.64,-2.64,-2.6253,-2.6171,-2.6279,-2.6253,-2.6159,-2.6306,-2.5932,-2.5264,-2.4636,-2.4075,-2.3594,-2.326,-2.326,-2.3033,-2.2979,-2.2979,-2.3126,-2.3046,-2.2913,-2.2926,-2.2886,-2.2921,-2.3081,-2.2865,-2.2714,-2.2597,-2.2462,-2.2125,-2.1785,-2.1691,-2.1484,-2.122,-2.1081,-2.0943,-2.0735,-2.0735,-2.0774,-2.1013,-2.111,-2.116,-2.139,-2.145,-2.1438,-2.1414,-2.1583,-2.1583,-2.1559,-2.197,-2.2283,-2.2467,-2.2467,-2.25,-2.2754,-2.3097,-2.3206,-2.314,-2.3188,-2.3321,-2.3273,-2.3237,-2.323,-2.3206,-2.3562,-2.3724,-2.384,-2.384,-2.384,-2.3652,-2.2953,-2.2252,-2.1567,-2.1368,-2.106,-2.048,-1.993,-1.9585,-1.9057,-1.791,-1.715,-1.677,-1.6312,-1.5778,-1.5089,-1.4483,-1.3337,-1.2192,-1.1889,-1.165,-1.1364,-1.1155,-1.0933,-1.0835,-1.0712,-1.0668,-1.0431,-1.0256,-1.0128,-1.0117,-1.0134,-1.015,-1.0155,-1.0215,-1.028,-1.0297,-1.0329,-1.0443,-2.7175,-2.7001,-2.672,-2.652,-2.64,-2.64,-2.64,-2.64,-2.6386,-2.6319,-2.6253,-2.6319,-2.6319,-2.6239,-2.6306,-2.6039,-2.5531,-2.4863,-2.4329,-2.3821,-2.3474,-2.3153,-2.2968,-2.2859,-2.2939,-2.306,-2.3073,-2.318,-2.337,-2.318,-2.3193,-2.3207,-2.302,-2.2871,-2.2812,-2.2664,-2.2379,-2.2104,-2.2035,-2.1897,-2.1496,-2.1346,-2.1081,-2.1012,-2.0828,-2.088,-2.1098,-2.1233,-2.1402,-2.1643,-2.1812,-2.1873,-2.1909,-2.1945,-2.1945,-2.1824,-2.215,-2.2527,-2.2576,-2.2636,-2.2782,-2.2757,-2.2963,-2.3109,-2.3169,-2.3176,-2.32,-2.3225,-2.3261,-2.3261,-2.3285,-2.3623,-2.3724,-2.384,-2.384,-2.384,-2.3731,-2.3333,-2.323,-2.3084,-2.2345,-2.1905,-2.215,-2.1639,-2.1222,-2.05,-1.951,-1.9057,-1.8668,-1.8138,-1.7607,-1.6617,-1.5778,-1.4483,-1.3259,-1.2726,-1.2185,-1.1753,-1.161,-1.1389,-1.1167,-1.1041,-1.0806,-1.0565,-1.0297,-1.0135,-1.0057,-1.0074,-1.0095,-1.0112,-1.0128,-1.015,-1.015,-1.0199,-1.0346,-2.7041,-2.6827,-2.676,-2.66,-2.6413,-2.64,-2.64,-2.64,-2.64,-2.6346,-2.6319,-2.636,-2.6346,-2.6319,-2.6319,-2.6213,-2.5983,-2.5184,-2.4703,-2.4128,-2.3754,-2.334,-2.2953,-2.2886,-2.2966,-2.3233,-2.3313,-2.3474,-2.342,-2.3434,-2.3394,-2.33,-2.306,-2.2953,-2.2979,-2.2857,-2.268,-2.2516,-2.2379,-2.2242,-2.1897,-2.1553,-2.1383,-2.1351,-2.1098,-2.1047,-2.1483,-2.1522,-2.1679,-2.1921,-2.2176,-2.2321,-2.2334,-2.2334,-2.2237,-2.2054,-2.2443,-2.26,-2.2685,-2.2757,-2.2733,-2.2636,-2.2879,-2.3,-2.306,-2.3056,-2.32,-2.3237,-2.3321,-2.3309,-2.3321,-2.3647,-2.3804,-2.384,-2.384,-2.3816,-2.3695,-2.3454,-2.3176,-2.2923,-2.2612,-2.2392,-2.2428,-2.2449,-2.1877,-2.166,-2.0737,-2.065,-2.0274,-1.9661,-1.8981,-1.791,-1.6846,-1.5625,-1.456,-1.3722,-1.2958,-1.2121,-1.1973,-1.1824,-1.1669,-1.1436,-1.1125,-1.0826,-1.0425,-1.0264,-1.0097,-1.0019,-1.0047,-1.0057,-1.003,-1.0036,-1.0074,-1.0199,-1.0362,-2.6854,-2.68,-2.6547,-2.6413,-2.64,-2.64,-2.64,-2.64,-2.64,-2.6239,-2.6092,-2.6266,-2.6253,-2.6146,-2.6293,-2.6199,-2.5972,-2.5665,-2.509,-2.4369,-2.4088,-2.3594,-2.2979,-2.2873,-2.3126,-2.3367,-2.3567,-2.3394,-2.33,-2.3514,-2.3541,-2.3354,-2.3247,-2.3247,-2.3126,-2.2953,-2.2873,-2.2791,-2.2791,-2.2654,-2.2255,-2.191,-2.1912,-2.19,-2.1732,-2.1719,-2.2029,-2.2044,-2.1982,-2.2225,-2.2309,-2.2346,-2.2346,-2.2346,-2.2259,-2.2309,-2.2346,-2.2307,-2.2343,-2.2552,-2.2539,-2.2527,-2.2685,-2.2757,-2.2842,-2.2766,-2.2766,-2.2428,-2.2826,-2.314,-2.3273,-2.3575,-2.3768,-2.376,-2.3748,-2.384,-2.3756,-2.3502,-2.3237,-2.3056,-2.273,-2.244,-2.2319,-2.2452,-2.2536,-2.2304,-2.2109,-2.196,-2.166,-2.106,-2.0586,-1.951,-1.8138,-1.6922,-1.5548,-1.4713,-1.3568,-1.2579,-1.2347,-1.2269,-1.2037,-1.1805,-1.1572,-1.1268,-1.0874,-1.0408,-1.0253,-1.0097,-1.0019,-1.003,-1.0047,-1.0036,-1.003,-1.0188,-1.0394,-2.6573,-2.6573,-2.6453,-2.64,-2.64,-2.64,-2.64,-2.64,-2.6386,-2.6319,-2.6239,-2.6319,-2.6306,-2.6213,-2.6199,-2.6172,-2.6079,-2.5745,-2.5251,-2.469,-2.4342,-2.3821,-2.3287,-2.3113,-2.3287,-2.3273,-2.3407,-2.3407,-2.3313,-2.346,-2.3621,-2.3354,-2.3166,-2.3033,-2.31,-2.2939,-2.2873,-2.2859,-2.2859,-2.2791,-2.2625,-2.2467,-2.2401,-2.2543,-2.2261,-2.2363,-2.242,-2.2386,-2.2227,-2.236,-2.2346,-2.2346,-2.2346,-2.2346,-2.2334,-2.2334,-2.2334,-2.2346,-2.2382,-2.26,-2.2552,-2.2503,-2.2585,-2.2891,-2.2782,-2.2733,-2.279,-2.2971,-2.2983,-2.3181,-2.3273,-2.3623,-2.3592,-2.364,-2.3712,-2.3828,-2.378,-2.3514,-2.3273,-2.3104,-2.2923,-2.2633,-2.238,-2.2467,-2.2576,-2.2464,-2.2355,-2.2256,-2.2181,-2.1956,-2.162,-2.1337,-1.9811,-1.829,-1.677,-1.5548,-1.403,-1.3112,-1.2579,-1.2501,-1.2347,-1.2192,-1.196,-1.1805,-1.1495,-1.1029,-1.0486,-1.0175,-1.0097,-1.0047,-1.0079,-1.0068,-1.0085,-1.0302,-1.0481,-2.64,-2.64,-2.64,-2.64,-2.64,-2.64,-2.64,-2.64,-2.64,-2.6386,-2.64,-2.64,-2.64,-2.636,-2.6199,-2.6213,-2.6333,-2.5692,-2.5291,-2.4983,-2.4596,-2.4022,-2.35,-2.3287,-2.3193,-2.2979,-2.3273,-2.3313,-2.3394,-2.35,-2.3514,-2.3327,-2.3166,-2.2979,-2.2886,-2.2873,-2.2859,-2.2859,-2.2859,-2.2859,-2.2844,-2.2875,-2.2964,-2.2994,-2.2918,-2.2841,-2.2875,-2.2779,-2.2695,-2.2509,-2.2483,-2.2483,-2.2334,-2.2346,-2.2346,-2.2346,-2.2346,-2.2346,-2.2418,-2.2564,-2.2648,-2.2612,-2.2524,-2.2745,-2.2661,-2.2673,-2.2681,-2.2959,-2.3188,-2.3225,-2.3369,-2.3611,-2.3664,-2.3664,-2.3676,-2.3724,-2.3804,-2.3562,-2.3381,-2.3261,-2.3056,-2.279,-2.2648,-2.2428,-2.2515,-2.2564,-2.2539,-2.2479,-2.2443,-2.243,-2.2244,-2.196,-2.1262,-1.9736,-1.829,-1.6694,-1.5097,-1.3722,-1.3267,-1.2733,-1.2656,-1.2501,-1.2269,-1.2114,-1.196,-1.165,-1.1107,-1.0641,-1.0103,-1.0114,-1.0057,-1.0106,-1.0188,-1.04,-1.0536,-2.64,-2.64,-2.64,-2.64,-2.64,-2.64,-2.64,-2.64,-2.64,-2.64,-2.64,-2.6386,-2.6386,-2.6346,-2.6293,-2.6279,-2.6346,-2.6319,-2.5718,-2.5237,-2.493,-2.4249,-2.3674,-2.3354,-2.3287,-2.322,-2.3247,-2.326,-2.3257,-2.3367,-2.338,-2.3313,-2.3207,-2.3073,-2.2966,-2.2899,-2.2873,-2.2859,-2.2859,-2.2859,-2.2966,-2.3124,-2.339,-2.3585,-2.3576,-2.3645,-2.3831,-2.3449,-2.3152,-2.2856,-2.2781,-2.2681,-2.2544,-2.2358,-2.2346,-2.2406,-2.2271,-2.2271,-2.2406,-2.2455,-2.2406,-2.2295,-2.2331,-2.2491,-2.2455,-2.2624,-2.2673,-2.2633,-2.308,-2.3261,-2.3345,-2.3478,-2.3756,-2.3652,-2.3652,-2.3736,-2.3712,-2.358,-2.3411,-2.3315,-2.3212,-2.2971,-2.2866,-2.2733,-2.2576,-2.2612,-2.2564,-2.2503,-2.2406,-2.237,-2.237,-2.2184,-2.2184,-2.1187,-1.9887,-1.8365,-1.7074,-1.5472,-1.4483,-1.3645,-1.2958,-1.2804,-1.2424,-1.2347,-1.2192,-1.196,-1.1727,-1.1184,-1.0641,-1.0175,-1.0063,-1.0177,-1.0259,-1.0405,-1.0514,-2.64,-2.64,-2.64,-2.64,-2.64,-2.64,-2.64,-2.64,-2.64,-2.64,-2.64,-2.6386,-2.6293,-2.6172,-2.6106,-2.6012,-2.5852,-2.5638,-2.5371,-2.5064,-2.4663,-2.4182,-2.3661,-2.3407,-2.3233,-2.3113,-2.3073,-2.318,-2.3313,-2.3313,-2.3474,-2.346,-2.3287,-2.3166,-2.306,-2.2953,-2.2873,-2.2873,-2.2941,-2.2928,-2.2966,-2.3354,-2.3661,-2.3781,-2.4203,-2.4035,-2.4018,-2.3883,-2.36,-2.329,-2.3005,-2.2855,-2.2717,-2.2481,-2.243,-2.2491,-2.2343,-2.2283,-2.2382,-2.2455,-2.2576,-2.2539,-2.2455,-2.2346,-2.237,-2.2588,-2.2782,-2.2874,-2.3152,-2.3381,-2.3393,-2.3599,-2.3724,-2.3628,-2.364,-2.3736,-2.3712,-2.3604,-2.3519,-2.3435,-2.3381,-2.3212,-2.3043,-2.2975,-2.2806,-2.2661,-2.26,-2.2539,-2.2455,-2.237,-2.2382,-2.2382,-2.2382,-2.1822,-2.0511,-1.9671,-1.8981,-1.7455,-1.5778,-1.479,-1.3876,-1.2811,-1.2501,-1.2424,-1.2347,-1.2192,-1.196,-1.165,-1.1184,-1.0641,-1.0392,-1.034,-1.0405,-1.0422,-1.0503,-2.64,-2.64,-2.64,-2.64,-2.64,-2.64,-2.64,-2.64,-2.64,-2.64,-2.6386,-2.6306,-2.6159,-2.5985,-2.5838,-2.5745,-2.5558,-2.5384,-2.5211,-2.4983,-2.4716,-2.4249,-2.3941,-2.3688,-2.3474,-2.3113,-2.3006,-2.3153,-2.3153,-2.3273,-2.3474,-2.3541,-2.3394,-2.3327,-2.318,-2.3046,-2.2873,-2.2941,-2.2966,-2.2981,-2.3048,-2.3527,-2.3808,-2.3888,-2.4243,-2.4435,-2.4253,-2.4193,-2.397,-2.3587,-2.3315,-2.3105,-2.2942,-2.2765,-2.2527,-2.2539,-2.2527,-2.2343,-2.2331,-2.2404,-2.2612,-2.2515,-2.2443,-2.2319,-2.2416,-2.2673,-2.2903,-2.2951,-2.3249,-2.3435,-2.3454,-2.3599,-2.37,-2.3664,-2.3688,-2.384,-2.384,-2.3688,-2.3628,-2.3544,-2.3526,-2.3466,-2.3249,-2.3092,-2.3036,-2.2842,-2.2709,-2.2648,-2.2576,-2.2503,-2.2367,-2.2367,-2.2443,-2.1707,-2.0834,-2.0661,-2.0274,-1.8971,-1.7455,-1.6083,-1.5012,-1.3876,-1.2733,-1.2501,-1.2424,-1.2347,-1.2114,-1.1882,-1.1417,-1.0952,-1.0707,-1.0514,-1.0362,-1.0378,-1.0498,-2.64,-2.64,-2.6386,-2.6373,-2.636,-2.6386,-2.64,-2.64,-2.64,-2.6373,-2.6319,-2.6106,-2.6023,-2.5838,-2.5598,-2.5464,-2.5398,-2.5371,-2.5251,-2.4997,-2.4796,-2.4583,-2.4315,-2.3995,-2.3701,-2.342,-2.3313,-2.322,-2.302,-2.3287,-2.3541,-2.3741,-2.3728,-2.3581,-2.334,-2.3033,-2.2954,-2.2926,-2.3207,-2.314,-2.3207,-2.3754,-2.3941,-2.4022,-2.4356,-2.4549,-2.4395,-2.4475,-2.424,-2.3892,-2.3574,-2.3353,-2.3042,-2.2914,-2.2676,-2.2479,-2.2624,-2.2564,-2.237,-2.2283,-2.2307,-2.2406,-2.2358,-2.243,-2.2609,-2.2891,-2.2988,-2.2975,-2.3321,-2.3466,-2.3466,-2.3502,-2.3707,-2.3724,-2.3748,-2.384,-2.384,-2.384,-2.3688,-2.3652,-2.3676,-2.3652,-2.3478,-2.3273,-2.3164,-2.3072,-2.2866,-2.2757,-2.2685,-2.2612,-2.2464,-2.2355,-2.2418,-2.2181,-2.1672,-2.1972,-2.1574,-2.0349,-1.9046,-1.7683,-1.6312,-1.502,-1.3953,-1.2958,-1.2501,-1.2424,-1.2269,-1.2198,-1.1765,-1.1401,-1.0808,-1.0582,-1.0453,-1.0346,-1.0476,-2.64,-2.6373,-2.6186,-2.6106,-2.6132,-2.6306,-2.6386,-2.64,-2.6386,-2.6279,-2.6119,-2.5985,-2.5692,-2.5451,-2.5291,-2.513,-2.497,-2.493,-2.4823,-2.4796,-2.4663,-2.4422,-2.4209,-2.4062,-2.3848,-2.3688,-2.3607,-2.3581,-2.35,-2.3581,-2.3781,-2.3995,-2.4035,-2.3888,-2.3688,-2.3487,-2.3544,-2.3487,-2.3581,-2.3581,-2.3611,-2.3928,-2.4168,-2.4062,-2.4422,-2.4543,-2.4409,-2.4529,-2.4422,-2.4182,-2.3853,-2.3651,-2.3404,-2.3228,-2.2973,-2.2797,-2.2854,-2.26,-2.2418,-2.2346,-2.2346,-2.2346,-2.2358,-2.2455,-2.2709,-2.2794,-2.2866,-2.3024,-2.3285,-2.3406,-2.3454,-2.3635,-2.3724,-2.3748,-2.384,-2.384,-2.384,-2.384,-2.3736,-2.3736,-2.3748,-2.3748,-2.3671,-2.355,-2.3442,-2.3309,-2.3128,-2.2838,-2.2782,-2.2697,-2.2624,-2.2443,-2.237,-2.237,-2.237,-2.2346,-2.2271,-2.1424,-2.0349,-1.9273,-1.7834,-1.6312,-1.502,-1.3953,-1.319,-1.2501,-1.2464,-1.2349,-1.2246,-1.1861,-1.1354,-1.087,-1.0816,-1.0583,-1.0476,-2.6239,-2.6199,-2.5919,-2.5798,-2.5825,-2.6012,-2.6079,-2.6079,-2.6079,-2.5972,-2.5812,-2.5705,-2.5464,-2.513,-2.4957,-2.4863,-2.4562,-2.4636,-2.4649,-2.4609,-2.4476,-2.4409,-2.4315,-2.4155,-2.4088,-2.3968,-2.3901,-2.3875,-2.3728,-2.3861,-2.4075,-2.4289,-2.4342,-2.4262,-2.4075,-2.3915,-2.3647,-2.3647,-2.3688,-2.3848,-2.3888,-2.4075,-2.4249,-2.4209,-2.4329,-2.4442,-2.4369,-2.4409,-2.4556,-2.4302,-2.4161,-2.39,-2.368,-2.3379,-2.3175,-2.2943,-2.2842,-2.2636,-2.2527,-2.2358,-2.2358,-2.2346,-2.2346,-2.2515,-2.2733,-2.2806,-2.2915,-2.3072,-2.3212,-2.3273,-2.3333,-2.3562,-2.364,-2.3652,-2.3736,-2.3736,-2.384,-2.384,-2.384,-2.384,-2.384,-2.384,-2.384,-2.3828,-2.3731,-2.3599,-2.3454,-2.3128,-2.2891,-2.2806,-2.2673,-2.2467,-2.2382,-2.243,-2.2406,-2.2346,-2.2271,-2.2259,-2.1424,-2.0425,-1.9057,-1.7455,-1.6236,-1.4859,-1.3645,-1.2754,-1.2688,-1.2592,-1.2502,-1.2285,-1.1858,-1.15,-1.1201,-1.0998,-1.0759,-2.5945,-2.5905,-2.5625,-2.5504,-2.5504,-2.5491,-2.5504,-2.5531,-2.5545,-2.5531,-2.5491,-2.5237,-2.5104,-2.501,-2.477,-2.4663,-2.4562,-2.4636,-2.4636,-2.4636,-2.4569,-2.4583,-2.4583,-2.4543,-2.4369,-2.4262,-2.4209,-2.4128,-2.3888,-2.4088,-2.4369,-2.4502,-2.4529,-2.4476,-2.4315,-2.4115,-2.3834,-2.3861,-2.4008,-2.4102,-2.4115,-2.4342,-2.4315,-2.4289,-2.4369,-2.4436,-2.4382,-2.4449,-2.4556,-2.4422,-2.424,-2.3822,-2.354,-2.333,-2.3052,-2.2809,-2.2733,-2.2709,-2.2648,-2.2467,-2.2406,-2.2406,-2.2283,-2.2648,-2.2806,-2.2794,-2.2794,-2.2927,-2.3019,-2.3097,-2.3145,-2.3309,-2.3459,-2.3556,-2.3676,-2.3712,-2.376,-2.384,-2.384,-2.384,-2.384,-2.384,-2.384,-2.384,-2.376,-2.3652,-2.355,-2.3273,-2.3072,-2.2927,-2.2757,-2.2443,-2.2406,-2.2503,-2.2455,-2.2358,-2.2346,-2.2259,-2.2259,-2.1337,-1.9962,-1.883,-1.7683,-1.616,-1.4022,-1.3021,-1.2862,-1.2807,-1.2868,-1.2556,-1.2342,-1.2029,-1.1694,-1.1423,-1.1213,-2.5638,-2.5611,-2.5331,-2.5211,-2.517,-2.4983,-2.5117,-2.5478,-2.5518,-2.5424,-2.5197,-2.5117,-2.4957,-2.4756,-2.4602,-2.4636,-2.4636,-2.4636,-2.4636,-2.4636,-2.4636,-2.4636,-2.4636,-2.4623,-2.4482,-2.4529,-2.4476,-2.4422,-2.4396,-2.4502,-2.4369,-2.4356,-2.4556,-2.4529,-2.4436,-2.4369,-2.4262,-2.4249,-2.4382,-2.4369,-2.4356,-2.4529,-2.4449,-2.4436,-2.4476,-2.4462,-2.4356,-2.4489,-2.4543,-2.4322,-2.4409,-2.4253,-2.3835,-2.3693,-2.3404,-2.2809,-2.2733,-2.2721,-2.2685,-2.2491,-2.2394,-2.2479,-2.2367,-2.2428,-2.2661,-2.2673,-2.2612,-2.2782,-2.2854,-2.2854,-2.2927,-2.3056,-2.3285,-2.3454,-2.3587,-2.3604,-2.3652,-2.3748,-2.3748,-2.384,-2.384,-2.384,-2.384,-2.384,-2.3748,-2.3688,-2.3611,-2.3333,-2.314,-2.306,-2.2794,-2.2467,-2.243,-2.2515,-2.2443,-2.2346,-2.2346,-2.2271,-2.2259,-2.2184,-2.1337,-2.0199,-1.9208,-1.7483,-1.5231,-1.3852,-1.302,-1.3022,-1.3024,-1.3112,-1.2895,-1.2518,-1.2174,-1.1924,-1.1582,-2.5344,-2.5304,-2.5024,-2.4903,-2.4877,-2.4716,-2.4789,-2.513,-2.517,-2.505,-2.4917,-2.489,-2.4796,-2.4676,-2.4636,-2.4636,-2.4636,-2.4636,-2.4636,-2.4636,-2.4636,-2.4636,-2.4636,-2.4636,-2.4623,-2.4636,-2.4636,-2.4583,-2.4636,-2.4549,-2.4516,-2.4449,-2.4509,-2.4516,-2.4462,-2.4516,-2.4596,-2.4583,-2.4609,-2.4636,-2.4636,-2.4623,-2.4583,-2.4529,-2.4569,-2.4476,-2.4302,-2.4502,-2.4502,-2.4396,-2.4596,-2.4401,-2.4009,-2.3693,-2.348,-2.2949,-2.2733,-2.2733,-2.2709,-2.2612,-2.2552,-2.2539,-2.2515,-2.2464,-2.2416,-2.2467,-2.2564,-2.2685,-2.2636,-2.2624,-2.2745,-2.2879,-2.3031,-2.3261,-2.3393,-2.3447,-2.3568,-2.37,-2.3736,-2.376,-2.384,-2.384,-2.384,-2.384,-2.3816,-2.3731,-2.3538,-2.3237,-2.3169,-2.3084,-2.2782,-2.243,-2.2455,-2.2527,-2.243,-2.2358,-2.2346,-2.2346,-2.2259,-2.2184,-2.196,-2.0962,-1.9434,-1.7988,-1.6481,-1.5104,-1.3771,-1.3327,-1.3193,-1.3247,-1.3261,-1.2968,-1.269,-1.249,-1.2148,-2.505,-2.5024,-2.4756,-2.4663,-2.4636,-2.4562,-2.4649,-2.4636,-2.469,-2.4649,-2.4589,-2.4649,-2.4649,-2.4636,-2.4636,-2.4636,-2.4636,-2.4636,-2.4636,-2.4636,-2.4636,-2.4636,-2.4636,-2.4636,-2.4636,-2.4636,-2.4636,-2.4636,-2.4636,-2.4623,-2.4549,-2.4636,-2.4623,-2.4583,-2.4583,-2.4596,-2.4636,-2.4636,-2.4636,-2.4636,-2.4636,-2.4596,-2.4529,-2.4369,-2.4449,-2.4529,-2.4396,-2.4462,-2.4636,-2.4636,-2.4562,-2.4414,-2.3974,-2.3704,-2.338,-2.3115,-2.2863,-2.2761,-2.2685,-2.2612,-2.2552,-2.2539,-2.2564,-2.2428,-2.243,-2.2382,-2.2479,-2.2539,-2.2503,-2.2503,-2.26,-2.2648,-2.2818,-2.2995,-2.3188,-2.3297,-2.3406,-2.3502,-2.355,-2.3562,-2.3562,-2.3575,-2.3599,-2.3575,-2.3599,-2.3599,-2.3454,-2.3206,-2.3072,-2.3024,-2.283,-2.2479,-2.2527,-2.2576,-2.2491,-2.2418,-2.2358,-2.2346,-2.2346,-2.2271,-2.2184,-2.0962,-1.951,-1.8131,-1.6753,-1.5722,-1.4654,-1.3828,-1.3125,-1.3214,-1.3234,-1.3281,-1.3137,-1.2897,-1.2592,-2.4743,-2.473,-2.4663,-2.4636,-2.4636,-2.4636,-2.4636,-2.4636,-2.4636,-2.4636,-2.4636,-2.4636,-2.4636,-2.4636,-2.4636,-2.4636,-2.4636,-2.4636,-2.4636,-2.4636,-2.4636,-2.4636,-2.4636,-2.4636,-2.4636,-2.4636,-2.4636,-2.4636,-2.4636,-2.4636,-2.4636,-2.4636,-2.4636,-2.4636,-2.4636,-2.4636,-2.4636,-2.4636,-2.4636,-2.4636,-2.4636,-2.4636,-2.4583,-2.4529,-2.4609,-2.4609,-2.4529,-2.4569,-2.4636,-2.4636,-2.4636,-2.4414,-2.4044,-2.39,-2.3553,-2.3105,-2.2905,-2.2778,-2.2688,-2.2588,-2.2527,-2.2539,-2.2539,-2.243,-2.2358,-2.2346,-2.2358,-2.2394,-2.2406,-2.2418,-2.243,-2.2467,-2.2539,-2.2806,-2.306,-2.3068,-2.3152,-2.3225,-2.3273,-2.3273,-2.3273,-2.3321,-2.3357,-2.3393,-2.3381,-2.3321,-2.32,-2.3097,-2.2963,-2.2903,-2.2927,-2.2673,-2.2648,-2.2661,-2.2552,-2.2455,-2.237,-2.2346,-2.2346,-2.2346,-2.2346,-2.1499,-2.05,-1.8527,-1.7005,-1.5983,-1.4759,-1.3354,-1.2908,-1.3098,-1.32,-1.3241,-1.3308,-1.3164,-1.2949,-2.4636,-2.4636,-2.4636,-2.4636,-2.4636,-2.4636,-2.4636,-2.4636,-2.4636,-2.4636,-2.4636,-2.4636,-2.4636,-2.4636,-2.4636,-2.4636,-2.4636,-2.4636,-2.4636,-2.4636,-2.4636,-2.4636,-2.4636,-2.4636,-2.4636,-2.4636,-2.4636,-2.4636,-2.4609,-2.4636,-2.4636,-2.4636,-2.4636,-2.4636,-2.4636,-2.4636,-2.4623,-2.4636,-2.4609,-2.4596,-2.4609,-2.4549,-2.4636,-2.4636,-2.4636,-2.4636,-2.4636,-2.4636,-2.4636,-2.4636,-2.4636,-2.4562,-2.4267,-2.4058,-2.3835,-2.3464,-2.3191,-2.2843,-2.2717,-2.2615,-2.2491,-2.2503,-2.2524,-2.2527,-2.2358,-2.2346,-2.2346,-2.237,-2.237,-2.2382,-2.2382,-2.2406,-2.2418,-2.25,-2.2806,-2.2963,-2.3084,-2.3193,-2.3218,-2.3218,-2.3212,-2.3381,-2.3454,-2.3599,-2.3587,-2.3575,-2.3381,-2.3188,-2.3019,-2.2794,-2.2806,-2.2806,-2.2733,-2.2612,-2.2467,-2.2394,-2.2358,-2.2346,-2.2346,-2.2346,-2.2271,-2.2259,-2.1499,-1.9218,-1.7454,-1.637,-1.5047,-1.3419,-1.2888,-1.3125,-1.318,-1.32,-1.3261,-1.3308,-1.3137,-2.4529,-2.4583,-2.4549,-2.4636,-2.4636,-2.4636,-2.4636,-2.4636,-2.4636,-2.4636,-2.4636,-2.4636,-2.4636,-2.4636,-2.4636,-2.4636,-2.4636,-2.4636,-2.4636,-2.4636,-2.4636,-2.4636,-2.4636,-2.4636,-2.4596,-2.4583,-2.4522,-2.4556,-2.4529,-2.4583,-2.4636,-2.4636,-2.4636,-2.4636,-2.4623,-2.4583,-2.4529,-2.4489,-2.4476,-2.4476,-2.4529,-2.4536,-2.4623,-2.4636,-2.4636,-2.4636,-2.4636,-2.4636,-2.4636,-2.4636,-2.4636,-2.4562,-2.4488,-2.4267,-2.4119,-2.3822,-2.3451,-2.3166,-2.2918,-2.2741,-2.253,-2.2467,-2.2612,-2.2576,-2.2382,-2.2346,-2.2346,-2.2346,-2.2346,-2.2346,-2.2346,-2.2346,-2.2271,-2.2295,-2.2588,-2.2782,-2.2927,-2.3012,-2.3,-2.3,-2.3068,-2.3249,-2.3406,-2.3575,-2.3647,-2.3671,-2.3611,-2.3478,-2.3261,-2.285,-2.2709,-2.2709,-2.2673,-2.2539,-2.243,-2.2358,-2.2346,-2.2346,-2.2346,-2.2346,-2.2271,-2.2259,-2.1424,-1.9531,-1.7941,-1.6481,-1.4999,-1.3397,-1.3221,-1.3071,-1.3105,-1.3105,-1.3139,-1.3173,-1.3173,-2.4075,-2.4302,-2.4529,-2.4623,-2.4623,-2.4623,-2.4636,-2.4636,-2.4636,-2.4636,-2.4636,-2.4636,-2.4636,-2.4636,-2.4636,-2.4636,-2.4636,-2.4636,-2.4636,-2.4636,-2.4583,-2.4609,-2.4583,-2.4476,-2.4449,-2.4422,-2.4422,-2.4462,-2.4342,-2.4476,-2.4609,-2.4569,-2.4509,-2.4509,-2.4569,-2.4462,-2.4275,-2.4249,-2.4115,-2.4048,-2.4142,-2.4302,-2.4596,-2.4636,-2.4636,-2.4636,-2.4636,-2.4636,-2.4636,-2.4636,-2.4636,-2.4636,-2.4562,-2.4488,-2.4341,-2.4119,-2.3748,-2.3451,-2.3204,-2.3017,-2.2744,-2.2445,-2.2542,-2.2443,-2.2334,-2.2346,-2.2346,-2.2346,-2.2346,-2.2346,-2.2346,-2.2346,-2.2346,-2.2346,-2.2467,-2.26,-2.2721,-2.2648,-2.2576,-2.26,-2.2609,-2.2766,-2.2911,-2.3056,-2.3176,-2.3188,-2.3188,-2.3092,-2.3225,-2.2899,-2.2648,-2.2636,-2.2636,-2.2636,-2.26,-2.2394,-2.2346,-2.2346,-2.2346,-2.2346,-2.2346,-2.2346,-2.1199,-1.8991,-1.755,-1.6136,-1.4671,-1.3113,-1.2947,-1.2854,-1.2949,-1.2996,-1.3024,-1.3037,-1.303]},{"header":{"parameterUnit":"m.s-1","parameterCategory":1,"la1":31.0,"la2":29.5877,"lo1":-88.7671,"lo2":-86.6584,"dy":0.0162,"dx":0.0185,"nx":115,"ny":88,"refTime":"2024-09-02T06:00:00:Z","depth":0,"parameterNumber":3,"parameterNumberName":"V-component_of_WINDS"},"data":[0.0,0.0,0.0,0.0,0.0,0.0,0.0,0.0,0.0,0.0,0.0,0.0,0.0,0.0,0.0,0.0,0.0,0.0,0.0,0.0,0.0,0.0,0.0,0.0,0.0,0.0,0.0,0.0,0.0,0.0,0.0,0.0,0.0,0.0,0.0,0.0,0.0,0.0,0.0,0.0,0.0,0.0,0.0,0.0,0.0,0.0,0.0,0.0,0.0,0.0,0.0,0.0,0.0,0.0,0.0,0.0,0.0,0.0,0.0,0.0,0.0,0.0,0.0,0.0,0.0,0.0,0.0,0.0,0.0,0.0,0.0,0.0,0.0,0.0,0.0,0.0,0.0,0.0,0.0,0.0,0.0,0.0,0.0,0.0,0.0,0.0,0.0,0.0,0.0,0.0,0.0,0.0,0.0,0.0,0.0,0.0,0.0,0.0,0.0,0.0,0.0,0.0,0.0,0.0,0.0,0.0,0.0,0.0,0.0,0.0,0.0,0.0,0.0,0.0,0.0,0.0,0.0,0.0,0.0,0.0,0.0,0.0,0.0,0.0,0.0,0.0,0.0,0.0,0.0,0.0,0.0,0.0,0.0,0.0,0.0,0.0,0.0,0.0,0.0,0.0,0.0,0.0,0.0,0.0,0.0,0.0,0.0,0.0,0.0,0.0,0.0,0.0,0.0,0.0,0.0,0.0,0.0,0.0,0.0,0.0,0.0,0.0,0.0,0.0,0.0,0.0,0.0,0.0,0.0,0.0,0.0,0.0,0.0,0.0,0.0,0.0,0.0,0.0,0.0,0.0,0.0,0.0,0.0,0.0,0.0,0.0,0.0,0.0,0.0,0.0,0.0,0.0,0.0,0.0,0.0,0.0,0.0,0.0,0.0,0.0,0.0,0.0,0.0,0.0,0.0,0.0,0.0,0.0,0.0,0.0,0.0,0.0,0.0,0.0,0.0,0.0,0.0,0.0,0.0,0.0,0.0,0.0,0.0,0.0,0.0,0.0,0.0,0.0,0.0,0.0,0.0,0.0,0.0,0.0,0.0,0.0,0.0,0.0,0.0,0.0,0.0,0.0,0.0,0.0,0.0,0.0,0.0,0.0,0.0,0.0,0.0,0.0,0.0,0.0,0.0,0.0,0.0,0.0,0.0,0.0,0.0,0.0,0.0,0.0,0.0,0.0,0.0,0.0,0.0,0.0,0.0,0.0,0.0,0.0,0.0,0.0,0.0,0.0,0.0,0.0,0.0,0.0,0.0,0.0,0.0,0.0,0.0,0.0,0.0,0.0,0.0,0.0,0.0,0.0,0.0,0.0,0.0,0.0,0.0,0.0,0.0,0.0,0.0,0.0,0.0,0.0,0.0,0.0,0.0,0.0,0.0,0.0,0.0,0.0,0.0,0.0,0.0,0.0,0.0,0.0,0.0,0.0,0.0,0.0,0.0,0.0,0.0,0.0,0.0,0.0,0.0,0.0,0.0,0.0,0.0,0.0,0.0,0.0,0.0,0.0,0.0,0.0,0.0,0.0,0.0,0.0,0.0,0.0,0.0,0.0,0.0,0.0,0.0,0.0,0.0,0.0,0.0,0.0,0.0,0.0,0.0,0.0,0.0,0.0,0.0,0.0,0.0,0.0,0.0,0.0,0.0,0.0,0.0,0.0,0.0,0.0,0.0,0.0,0.0,0.0,0.0,0.0,0.0,0.0,0.0,0.0,0.0,0.0,0.0,0.0,0.0,0.0,0.0,0.0,0.0,0.0,0.0,0.0,0.0,0.0,0.0,0.0,0.0,0.0,0.0,0.0,0.0,0.0,0.0,0.0,0.0,0.0,0.0,0.0,0.0,0.0,0.0,0.0,0.0,0.0,0.0,0.0,0.0,0.0,0.0,0.0,0.0,0.0,0.0,0.0,0.0,0.0,0.0,0.0,0.0,0.0,0.0,0.0,0.0,0.0,0.0,0.0,0.0,0.0,0.0,0.0,0.0,0.0,0.0,0.0,0.0,0.0,0.0,0.0,0.0,0.0,0.0,0.0,0.0,0.0,0.0,0.0,0.0,0.0,0.0,0.0,0.0,0.0,0.0,0.0,0.0,0.0,0.0,0.0,0.0,0.0,0.0,0.0,0.0,0.0,0.0,0.0,0.0,0.0,0.0,0.0,0.0,0.0,0.0,0.0,0.0,0.0,0.0,0.0,0.0,0.0,0.0,0.0,0.0,0.0,0.0,0.0,0.0,0.0,0.0,0.0,0.0,0.0,0.0,0.0,0.0,0.0,0.0,0.0,0.0,0.0,0.0,0.0,0.0,0.0,0.0,0.0,0.0,0.0,0.0,0.0,0.0,0.0,0.0,0.0,0.0,0.0,0.0,0.0,0.0,0.0,0.0,0.0,0.0,0.0,0.0,0.0,0.0,0.0,0.0,0.0,0.0,0.0,0.0,0.0,0.0,0.0,0.0,0.0,0.0,0.0,0.0,0.0,0.0,0.0,0.0,0.0,0.0,0.0,0.0,0.0,0.0,0.0,0.0,0.0,0.0,0.0,0.0,0.0,0.0,0.0,0.0,0.0,0.0,0.0,0.0,0.0,0.0,0.0,0.0,0.0,0.0,0.0,0.0,0.0,0.0,0.0,0.0,0.0,0.0,0.0,0.0,0.0,0.0,0.0,0.0,0.0,0.0,0.0,0.0,0.0,0.0,0.0,0.0,0.0,0.0,0.0,0.0,0.0,0.0,0.0,0.0,0.0,0.0,0.0,0.0,0.0,0.0,0.0,0.0,0.0,0.0,0.0,0.0,0.0,0.0,0.0,0.0,0.0,0.0,0.0,0.0,0.0,0.0,0.0,0.0,0.0,0.0,0.0,0.0,0.0,0.0,0.0,0.0,0.0,0.0,0.0,0.0,0.0,0.0,0.0,0.0,0.0,0.0,0.0,0.0,0.0,0.0,0.0,0.0,0.0,0.0,0.0,0.0,0.0,0.0,0.0,0.0,0.0,0.0,0.0,0.0,0.0,0.0,0.0,0.0,0.0,0.0,0.0,0.0,0.0,0.0,0.0,0.0,0.0,0.0,0.0,0.0,0.0,0.0,0.0,0.0,0.0,0.0,0.0,0.0,0.0,0.0,0.0,0.0,0.0,0.0,0.0,0.0,0.0,0.0,0.0,0.0,0.0,0.0,0.0,0.0,0.0,0.0,0.0,0.0,0.0,0.0,0.0,0.0,0.0,0.0,0.0,0.0,0.0,0.0,0.0,0.0,0.0,0.0,0.0,0.0,0.0,0.0,0.0,0.0,0.0,0.0,0.0,0.0,0.0,0.0,0.0,0.0,0.0,0.0,0.0,0.0,0.0,0.0,0.0,0.0,0.0,0.0,0.0,0.0,0.0,0.0,0.0,0.0,0.0,0.0,0.0,0.0,0.0,0.0,0.0,0.0,0.0,0.0,0.0,0.0,0.0,0.0,0.0,0.0,0.0,0.0,0.0,0.0,0.0,0.0,0.0,0.0,0.0,0.0,0.0,0.0,0.0,0.0,0.0,0.0,0.0,0.0,0.0,0.0,0.0,0.0,0.0,0.0,0.0,0.0,0.0,0.0,0.0,0.0,0.0,0.0,0.0,0.0,0.0,0.0,0.0,0.0,0.0,0.0,0.0,0.0,0.0,0.0,0.0,0.0,0.0,0.0,0.0,0.0,0.0,0.0,0.0,0.0,0.0,0.0,0.0,0.0,0.0,0.0,0.0,0.0,0.0,0.0,0.0,0.0,0.0,0.0,0.0,0.0,0.0,0.0,0.0,0.0,0.0,0.0,0.0,0.0,0.0,0.0,0.0,0.0,0.0,0.0,0.0,0.0,0.0,0.0,0.0,0.0,0.0,0.0,0.0,0.0,0.0,0.0,0.0,0.0,0.0,0.0,0.0,0.0,0.0,0.0,0.0,0.0,0.0,0.0,0.0,0.0,0.0,0.0,0.0,0.0,0.0,0.0,0.0,0.0,0.0,0.0,0.0,0.0,0.0,0.0,0.0,0.0,0.0,0.0,0.0,0.0,0.0,0.0,0.0,0.0,0.0,0.0,0.0,0.0,0.0,0.0,0.0,0.0,0.0,0.0,0.0,0.0,0.0,0.0,0.0,0.0,0.0,0.0,0.0,0.0,0.0,0.0,0.0,0.0,0.0,0.0,0.0,0.0,0.0,0.0,0.0,0.0,0.0,0.0,0.0,0.0,0.0,0.0,0.0,0.0,0.0,0.0,0.0,0.0,0.0,0.0,0.0,0.0,0.0,0.0,0.0,2.7978,0.0,0.0,0.0,0.0,0.0,0.0,0.0,0.0,0.0,0.0,0.0,0.0,0.0,0.0,0.0,0.0,0.0,0.0,0.0,0.0,0.0,0.0,0.0,0.0,0.0,0.0,0.0,0.0,0.0,0.0,0.0,0.0,0.0,0.0,0.0,0.0,0.0,0.0,0.0,0.0,0.0,0.0,0.0,0.0,0.0,0.0,0.0,0.0,0.0,0.0,0.0,0.0,0.0,0.0,0.0,0.0,0.0,0.0,0.0,0.0,0.0,0.0,0.0,0.0,0.0,0.0,0.0,0.0,0.0,0.0,0.0,0.0,0.0,0.0,0.0,0.0,0.0,0.0,0.0,0.0,0.0,0.0,0.0,0.0,0.0,0.0,0.0,0.0,0.0,0.0,0.0,0.0,0.0,0.0,0.0,0.0,0.0,0.0,0.0,0.0,0.0,0.0,0.0,0.0,0.0,0.0,0.0,0.0,0.0,0.0,3.0552,3.0441,3.0469,2.9638,2.7972,0.0,0.0,0.0,0.0,0.0,0.0,0.0,0.0,0.0,0.0,0.0,0.0,0.0,0.0,0.0,0.0,0.0,0.0,0.0,0.0,0.0,0.0,0.0,0.0,0.0,0.0,0.0,0.0,0.0,0.0,0.0,0.0,0.0,0.0,0.0,0.0,0.0,0.0,0.0,0.0,0.0,0.0,0.0,0.0,0.0,0.0,0.0,0.0,0.0,0.0,0.0,0.0,0.0,0.0,0.0,0.0,0.0,0.0,0.0,0.0,0.0,0.0,0.0,0.0,0.0,0.0,0.0,0.0,0.0,0.0,0.0,0.0,0.0,0.0,0.0,0.0,0.0,0.0,0.0,0.0,0.0,0.0,0.0,0.0,0.0,0.0,0.0,0.0,0.0,0.0,0.0,0.0,0.0,0.0,0.0,0.0,0.0,0.0,0.0,0.0,0.0,0.0,0.0,0.0,0.0,0.0,0.0,0.0,0.0,0.0,0.0,0.0,3.1334,3.0551,2.8839,0.0,0.0,0.0,0.0,0.0,0.0,0.0,0.0,0.0,0.0,0.0,0.0,0.0,0.0,0.0,0.0,0.0,0.0,0.0,0.0,0.0,0.0,0.0,0.0,0.0,0.0,0.0,0.0,0.0,0.0,0.0,0.0,0.0,0.0,0.0,0.0,0.0,0.0,0.0,0.0,0.0,0.0,0.0,0.0,0.0,0.0,0.0,0.0,0.0,0.0,0.0,0.0,0.0,0.0,0.0,0.0,0.0,0.0,0.0,0.0,0.0,0.0,0.0,0.0,0.0,0.0,0.0,0.0,0.0,0.0,0.0,0.0,0.0,0.0,0.0,0.0,0.0,0.0,0.0,0.0,0.0,0.0,0.0,0.0,0.0,0.0,0.0,0.0,0.0,0.0,0.0,0.0,0.0,0.0,0.0,0.0,0.0,0.0,0.0,0.0,0.0,0.0,0.0,0.0,0.0,0.0,0.0,0.0,0.0,0.0,3.1804,3.4035,3.4109,0.0,3.1529,0.0,0.0,0.0,0.0,0.0,0.0,0.0,0.0,0.0,0.0,0.0,0.0,0.0,0.0,0.0,0.0,0.0,0.0,0.0,0.0,0.0,0.0,0.0,0.0,0.0,0.0,0.0,0.0,0.0,0.0,0.0,0.0,0.0,0.0,0.0,0.0,0.0,0.0,0.0,0.0,0.0,0.0,0.0,0.0,0.0,0.0,0.0,0.0,0.0,0.0,0.0,0.0,0.0,0.0,0.0,0.0,0.0,0.0,0.0,0.0,0.0,0.0,0.0,0.0,0.0,0.0,0.0,0.0,0.0,0.0,0.0,0.0,0.0,0.0,0.0,0.0,0.0,0.0,0.0,0.0,0.0,0.0,0.0,0.0,0.0,0.0,0.0,0.0,0.0,0.0,0.0,0.0,0.0,0.0,0.0,0.0,0.0,0.0,0.0,0.0,0.0,0.0,0.0,0.0,0.0,0.0,0.0,0.0,0.0,0.0,3.3493,3.4485,3.3471,3.259,0.0,0.0,0.0,0.0,0.0,0.0,0.0,0.0,0.0,0.0,0.0,0.0,0.0,0.0,0.0,0.0,0.0,0.0,0.0,0.0,0.0,0.0,0.0,0.0,0.0,0.0,0.0,0.0,0.0,0.0,0.0,0.0,0.0,0.0,0.0,0.0,0.0,0.0,0.0,0.0,0.0,0.0,0.0,0.0,0.0,0.0,0.0,0.0,0.0,0.0,0.0,0.0,0.0,0.0,0.0,0.0,0.0,0.0,0.0,0.0,0.0,0.0,0.0,0.0,0.0,0.0,0.0,0.0,0.0,0.0,0.0,0.0,0.0,0.0,0.0,0.0,0.0,0.0,0.0,0.0,0.0,0.0,0.0,0.0,0.0,0.0,0.0,0.0,0.0,0.0,0.0,0.0,0.0,0.0,0.0,0.0,0.0,0.0,0.0,0.0,0.0,0.0,0.0,0.0,0.0,0.0,0.0,0.0,0.0,0.0,3.3928,0.0,3.5201,3.4244,3.3011,3.1569,0.0,0.0,0.0,0.0,0.0,0.0,0.0,0.0,0.0,0.0,0.0,0.0,0.0,0.0,0.0,0.0,0.0,0.0,0.0,0.0,0.0,0.0,0.0,0.0,0.0,0.0,0.0,0.0,0.0,0.0,0.0,0.0,0.0,0.0,0.0,0.0,0.0,0.0,0.0,0.0,0.0,0.0,0.0,0.0,0.0,0.0,0.0,0.0,0.0,0.0,0.0,0.0,0.0,0.0,0.0,0.0,0.0,0.0,0.0,0.0,0.0,0.0,0.0,0.0,0.0,0.0,0.0,0.0,0.0,0.0,0.0,0.0,0.0,0.0,0.0,0.0,0.0,0.0,0.0,0.0,0.0,0.0,0.0,0.0,0.0,0.0,0.0,0.0,0.0,0.0,0.0,0.0,0.0,0.0,0.0,0.0,0.0,0.0,0.0,0.0,0.0,0.0,0.0,0.0,0.0,0.0,0.0,0.0,0.0,3.5446,3.5485,3.7159,3.7773,3.5833,0.0,0.0,0.0,0.0,0.0,0.0,0.0,0.0,0.0,0.0,0.0,0.0,0.0,0.0,0.0,0.0,0.0,0.0,0.0,0.0,0.0,0.0,0.0,0.0,0.0,0.0,0.0,0.0,0.0,0.0,0.0,0.0,0.0,0.0,0.0,0.0,0.0,0.0,0.0,0.0,0.0,0.0,0.0,0.0,0.0,0.0,0.0,0.0,0.0,0.0,0.0,0.0,0.0,0.0,0.0,0.0,0.0,0.0,0.0,0.0,0.0,0.0,0.0,0.0,0.0,0.0,0.0,0.0,0.0,0.0,0.0,0.0,0.0,0.0,0.0,0.0,0.0,0.0,0.0,0.0,0.0,0.0,0.0,0.0,0.0,0.0,0.0,0.0,0.0,0.0,0.0,0.0,0.0,0.0,0.0,0.0,0.0,0.0,0.0,0.0,0.0,0.0,0.0,0.0,0.0,0.0,0.0,0.0,0.0,3.2286,3.3886,3.6579,4.0208,3.6563,3.4246,0.0,0.0,0.0,0.0,0.0,0.0,0.0,0.0,0.0,0.0,0.0,0.0,0.0,0.0,0.0,0.0,0.0,0.0,0.0,0.0,0.0,0.0,0.0,0.0,0.0,0.0,0.0,0.0,0.0,0.0,0.0,0.0,0.0,0.0,0.0,0.0,0.0,0.0,0.0,0.0,0.0,0.0,0.0,0.0,0.0,0.0,0.0,0.0,0.0,0.0,0.0,0.0,0.0,0.0,0.0,0.0,0.0,0.0,0.0,0.0,0.0,0.0,0.0,0.0,0.0,0.0,0.0,0.0,0.0,0.0,0.0,0.0,0.0,0.0,0.0,0.0,0.0,0.0,0.0,0.0,0.0,0.0,0.0,0.0,0.0,0.0,0.0,0.0,0.0,0.0,0.0,0.0,0.0,0.0,0.0,0.0,0.0,0.0,0.0,0.0,0.0,0.0,0.0,0.0,0.0,0.0,0.0,0.0,0.0,3.2091,0.0,3.8375,0.0,3.6228,3.3566,0.0,0.0,0.0,0.0,0.0,0.0,0.0,0.0,0.0,0.0,0.0,0.0,0.0,0.0,0.0,0.0,0.0,0.0,0.0,0.0,0.0,0.0,0.0,0.0,0.0,0.0,0.0,0.0,0.0,0.0,0.0,0.0,0.0,0.0,0.0,0.0,0.0,0.0,0.0,0.0,0.0,0.0,0.0,0.0,0.0,0.0,0.0,0.0,0.0,0.0,0.0,0.0,0.0,0.0,0.0,0.0,0.0,0.0,0.0,0.0,0.0,0.0,0.0,0.0,0.0,0.0,0.0,0.0,0.0,0.0,0.0,0.0,0.0,0.0,0.0,0.0,0.0,0.0,0.0,0.0,0.0,0.0,0.0,0.0,0.0,0.0,0.0,0.0,0.0,0.0,0.0,0.0,0.0,0.0,0.0,0.0,0.0,0.0,0.0,0.0,0.0,0.0,0.0,0.0,0.0,0.0,0.0,0.0,3.127,3.697,4.0366,4.0599,3.7555,3.7204,3.4042,0.0,0.0,0.0,0.0,0.0,0.0,0.0,0.0,0.0,0.0,0.0,0.0,0.0,0.0,0.0,0.0,0.0,0.0,0.0,0.0,0.0,0.0,0.0,0.0,0.0,0.0,0.0,0.0,0.0,0.0,0.0,0.0,0.0,0.0,0.0,0.0,0.0,0.0,0.0,0.0,0.0,0.0,0.0,0.0,0.0,0.0,0.0,0.0,0.0,0.0,0.0,0.0,0.0,0.0,0.0,0.0,0.0,0.0,0.0,0.0,0.0,0.0,0.0,0.0,0.0,0.0,0.0,0.0,0.0,0.0,0.0,0.0,0.0,0.0,0.0,0.0,0.0,0.0,0.0,0.0,0.0,0.0,0.0,0.0,0.0,0.0,0.0,0.0,0.0,0.0,0.0,0.0,0.0,0.0,0.0,0.0,0.0,0.0,0.0,0.0,0.0,0.0,0.0,0.0,0.0,0.0,0.0,0.0,0.0,3.4666,3.7985,4.0406,4.1498,3.7087,3.4471,0.0,0.0,0.0,0.0,0.0,0.0,0.0,0.0,0.0,0.0,0.0,0.0,0.0,0.0,0.0,0.0,0.0,0.0,0.0,0.0,0.0,0.0,0.0,0.0,0.0,0.0,0.0,0.0,0.0,0.0,0.0,0.0,0.0,0.0,0.0,0.0,0.0,0.0,0.0,0.0,0.0,0.0,0.0,0.0,0.0,0.0,0.0,0.0,0.0,0.0,0.0,0.0,0.0,0.0,0.0,0.0,0.0,0.0,0.0,0.0,0.0,0.0,0.0,0.0,0.0,0.0,0.0,0.0,0.0,0.0,0.0,0.0,0.0,0.0,0.0,0.0,0.0,0.0,0.0,0.0,0.0,0.0,0.0,0.0,0.0,0.0,0.0,0.0,0.0,0.0,0.0,0.0,0.0,0.0,0.0,0.0,0.0,0.0,0.0,0.0,0.0,0.0,0.0,0.0,0.0,0.0,0.0,0.0,0.0,3.7399,4.0327,4.2515,4.3686,3.857,3.5798,3.572,0.0,0.0,0.0,0.0,0.0,0.0,0.0,0.0,0.0,0.0,0.0,0.0,0.0,0.0,0.0,0.0,0.0,0.0,0.0,0.0,0.0,0.0,0.0,0.0,0.0,0.0,0.0,0.0,0.0,0.0,0.0,0.0,0.0,0.0,0.0,0.0,0.0,0.0,0.0,0.0,0.0,0.0,0.0,0.0,0.0,0.0,0.0,0.0,0.0,0.0,0.0,0.0,0.0,0.0,0.0,0.0,0.0,0.0,0.0,0.0,0.0,0.0,0.0,0.0,0.0,0.0,0.0,0.0,0.0,0.0,0.0,0.0,0.0,0.0,0.0,0.0,0.0,0.0,0.0,0.0,0.0,0.0,0.0,0.0,0.0,0.0,0.0,0.0,0.0,0.0,0.0,0.0,0.0,0.0,0.0,0.0,0.0,0.0,0.0,0.0,0.0,0.0,0.0,0.0,0.0,0.0,0.0,0.0,4.3725,4.6378,4.6534,4.4075,4.1303,3.7946,0.0,0.0,0.0,0.0,0.0,0.0,0.0,0.0,0.0,0.0,0.0,0.0,0.0,0.0,0.0,0.0,0.0,0.0,0.0,0.0,0.0,0.0,0.0,0.0,0.0,0.0,0.0,0.0,0.0,0.0,0.0,0.0,0.0,0.0,0.0,0.0,0.0,0.0,0.0,0.0,0.0,0.0,0.0,0.0,0.0,0.0,0.0,0.0,0.0,0.0,0.0,0.0,0.0,0.0,0.0,0.0,0.0,0.0,0.0,0.0,0.0,0.0,0.0,0.0,0.0,0.0,0.0,0.0,0.0,0.0,0.0,0.0,0.0,0.0,0.0,0.0,0.0,0.0,0.0,0.0,0.0,0.0,0.0,0.0,0.0,0.0,0.0,0.0,0.0,0.0,0.0,0.0,0.0,0.0,0.0,0.0,0.0,0.0,0.0,0.0,0.0,0.0,0.0,0.0,0.0,0.0,0.0,0.0,0.0,4.466,4.7781,4.8796,4.7432,4.3099,3.9663,0.0,0.0,0.0,0.0,0.0,0.0,0.0,0.0,0.0,0.0,0.0,0.0,0.0,0.0,0.0,0.0,0.0,0.0,0.0,0.0,0.0,0.0,0.0,0.0,0.0,0.0,0.0,0.0,0.0,0.0,0.0,0.0,0.0,0.0,0.0,0.0,0.0,0.0,0.0,0.0,0.0,0.0,0.0,0.0,0.0,0.0,0.0,0.0,0.0,0.0,0.0,0.0,0.0,0.0,0.0,0.0,0.0,0.0,0.0,0.0,0.0,0.0,0.0,0.0,0.0,0.0,0.0,0.0,0.0,0.0,0.0,0.0,0.0,0.0,0.0,0.0,0.0,0.0,0.0,0.0,0.0,0.0,0.0,0.0,0.0,0.0,0.0,0.0,0.0,0.0,0.0,0.0,0.0,0.0,0.0,0.0,0.0,0.0,0.0,0.0,0.0,0.0,0.0,0.0,0.0,0.0,0.0,0.0,4.3606,4.6534,4.9226,5.0243,4.9345,4.5753,4.2357,0.0,0.0,0.0,0.0,0.0,0.0,0.0,0.0,0.0,0.0,0.0,0.0,0.0,0.0,0.0,0.0,0.0,0.0,0.0,0.0,0.0,0.0,0.0,0.0,0.0,0.0,0.0,0.0,0.0,0.0,0.0,0.0,0.0,0.0,0.0,0.0,0.0,0.0,0.0,0.0,0.0,0.0,0.0,0.0,0.0,0.0,0.0,0.0,0.0,0.0,0.0,0.0,0.0,0.0,0.0,0.0,0.0,0.0,0.0,0.0,0.0,0.0,0.0,0.0,0.0,0.0,0.0,0.0,0.0,0.0,0.0,0.0,0.0,0.0,0.0,0.0,0.0,0.0,0.0,0.0,0.0,0.0,0.0,0.0,0.0,0.0,0.0,0.0,0.0,0.0,0.0,0.0,0.0,0.0,0.0,0.0,0.0,0.0,0.0,0.0,0.0,0.0,0.0,0.0,0.0,0.0,0.0,0.0,4.5519,4.8603,5.0438,5.1023,5.0241,4.8445,4.5088,0.0,0.0,0.0,0.0,0.0,0.0,0.0,0.0,0.0,0.0,0.0,0.0,0.0,0.0,0.0,0.0,0.0,0.0,0.0,0.0,0.0,0.0,0.0,0.0,0.0,0.0,0.0,0.0,0.0,0.0,0.0,0.0,0.0,0.0,0.0,0.0,0.0,0.0,0.0,0.0,0.0,0.0,0.0,0.0,0.0,0.0,0.0,0.0,0.0,0.0,0.0,0.0,0.0,0.0,0.0,0.0,0.0,0.0,0.0,0.0,0.0,0.0,0.0,0.0,0.0,0.0,0.0,0.0,0.0,0.0,0.0,0.0,0.0,0.0,0.0,0.0,0.0,0.0,0.0,0.0,0.0,0.0,0.0,0.0,0.0,0.0,0.0,0.0,0.0,0.0,0.0,0.0,0.0,0.0,0.0,0.0,0.0,0.0,0.0,0.0,0.0,0.0,0.0,0.0,0.0,0.0,0.0,0.0,4.6417,4.7859,5.0165,5.1297,5.1102,4.8174,4.4777,0.0,0.0,0.0,0.0,0.0,0.0,0.0,0.0,0.0,0.0,0.0,0.0,0.0,0.0,0.0,0.0,0.0,0.0,0.0,0.0,0.0,0.0,0.0,0.0,0.0,0.0,0.0,0.0,0.0,0.0,0.0,0.0,0.0,0.0,0.0,0.0,0.0,0.0,0.0,0.0,0.0,0.0,0.0,0.0,0.0,0.0,0.0,0.0,3.5115,0.0,0.0,0.0,0.0,0.0,0.0,0.0,0.0,0.0,0.0,0.0,0.0,0.0,0.0,0.0,0.0,0.0,0.0,0.0,0.0,0.0,0.0,0.0,0.0,0.0,0.0,0.0,0.0,0.0,0.0,0.0,0.0,0.0,0.0,0.0,0.0,0.0,0.0,0.0,0.0,0.0,0.0,0.0,0.0,0.0,0.0,0.0,0.0,0.0,0.0,0.0,0.0,0.0,0.0,0.0,0.0,0.0,0.0,0.0,4.751,4.8757,5.0516,5.1375,5.1297,4.8837,4.5675,0.0,0.0,0.0,0.0,0.0,0.0,0.0,0.0,0.0,0.0,0.0,0.0,0.0,0.0,0.0,0.0,0.0,0.0,0.0,0.0,0.0,0.0,0.0,0.0,0.0,0.0,0.0,0.0,0.0,0.0,0.0,0.0,0.0,0.0,0.0,0.0,0.0,0.0,0.0,0.0,0.0,0.0,0.0,0.0,0.0,0.0,0.0,0.0,0.0,0.0,0.0,0.0,0.0,0.0,0.0,0.0,0.0,0.0,0.0,0.0,0.0,0.0,0.0,0.0,0.0,0.0,0.0,0.0,0.0,0.0,0.0,0.0,0.0,0.0,0.0,0.0,0.0,0.0,0.0,0.0,0.0,0.0,0.0,0.0,0.0,0.0,0.0,0.0,0.0,0.0,0.0,0.0,0.0,0.0,0.0,0.0,0.0,0.0,0.0,0.0,0.0,0.0,0.0,0.0,0.0,0.0,0.0,4.5166,4.8328,5.0241,5.1023,5.1375,5.1375,4.9696,4.6768,4.2552,0.0,0.0,0.0,0.0,0.0,0.0,0.0,0.0,0.0,0.0,0.0,0.0,0.0,0.0,0.0,0.0,0.0,0.0,0.0,0.0,0.0,0.0,0.0,0.0,0.0,0.0,0.0,0.0,0.0,0.0,0.0,0.0,0.0,0.0,0.0,0.0,0.0,0.0,3.3699,3.5853,0.0,0.0,0.0,0.0,0.0,0.0,0.0,0.0,3.8238,0.0,0.0,0.0,0.0,0.0,0.0,0.0,0.0,0.0,0.0,0.0,0.0,0.0,0.0,0.0,0.0,0.0,0.0,0.0,0.0,0.0,0.0,0.0,0.0,0.0,0.0,0.0,0.0,0.0,0.0,0.0,0.0,0.0,0.0,0.0,0.0,0.0,0.0,0.0,0.0,0.0,0.0,0.0,0.0,0.0,0.0,0.0,0.0,0.0,0.0,0.0,0.0,0.0,0.0,0.0,0.0,4.5129,4.6105,4.8017,5.1102,5.1336,5.1375,5.1336,4.9696,4.6807,4.2511,0.0,0.0,0.0,0.0,0.0,0.0,0.0,0.0,0.0,0.0,0.0,0.0,0.0,0.0,0.0,0.0,0.0,0.0,0.0,0.0,0.0,0.0,0.0,0.0,0.0,0.0,0.0,0.0,0.0,0.0,0.0,0.0,0.0,0.0,0.0,0.0,0.0,0.0,0.0,3.9207,4.0162,0.0,0.0,0.0,0.0,0.0,0.0,0.0,0.0,3.8584,0.0,0.0,0.0,0.0,0.0,0.0,0.0,0.0,0.0,0.0,0.0,0.0,0.0,0.0,0.0,0.0,0.0,0.0,0.0,0.0,0.0,0.0,0.0,0.0,0.0,0.0,0.0,0.0,0.0,0.0,0.0,0.0,0.0,0.0,0.0,0.0,0.0,0.0,0.0,0.0,0.0,0.0,0.0,0.0,0.0,0.0,0.0,0.0,0.0,0.0,0.0,0.0,0.0,0.0,0.0,4.3491,4.627,4.8849,5.1306,5.1382,5.1382,5.1306,4.7982,4.4972,0.0,0.0,0.0,0.0,0.0,0.0,0.0,0.0,0.0,0.0,0.0,0.0,0.0,0.0,0.0,0.0,0.0,0.0,0.0,0.0,0.0,0.0,0.0,0.0,0.0,0.0,0.0,0.0,0.0,0.0,0.0,0.0,0.0,0.0,0.0,0.0,0.0,0.0,0.0,0.0,4.0015,4.0977,4.2277,0.0,0.0,0.0,0.0,0.0,0.0,3.9554,3.9554,0.0,0.0,0.0,0.0,0.0,0.0,0.0,0.0,0.0,0.0,0.0,0.0,0.0,0.0,0.0,0.0,0.0,0.0,0.0,0.0,0.0,0.0,0.0,0.0,0.0,0.0,0.0,0.0,0.0,0.0,0.0,0.0,0.0,0.0,0.0,0.0,0.0,0.0,0.0,0.0,0.0,0.0,0.0,0.0,0.0,0.0,0.0,0.0,0.0,0.0,0.0,0.0,0.0,0.0,0.0,4.1636,4.6053,4.9335,5.1247,5.1365,5.1286,5.1012,4.6945,4.3737,0.0,0.0,0.0,0.0,0.0,0.0,0.0,0.0,0.0,0.0,0.0,0.0,0.0,0.0,0.0,0.0,0.0,0.0,0.0,0.0,0.0,0.0,0.0,0.0,0.0,0.0,0.0,0.0,0.0,0.0,0.0,0.0,0.0,0.0,0.0,0.0,0.0,0.0,0.0,0.0,0.0,4.2133,4.2978,4.2656,0.0,0.0,0.0,0.0,4.1062,4.1309,0.0,0.0,0.0,0.0,0.0,0.0,0.0,0.0,0.0,0.0,0.0,0.0,0.0,0.0,0.0,0.0,0.0,0.0,0.0,0.0,0.0,0.0,0.0,0.0,0.0,0.0,0.0,0.0,0.0,0.0,0.0,0.0,0.0,0.0,0.0,0.0,0.0,0.0,0.0,0.0,0.0,0.0,0.0,0.0,0.0,0.0,0.0,0.0,0.0,0.0,0.0,0.0,0.0,0.0,0.0,0.0,4.3084,4.5343,4.7996,5.1006,5.124,5.0852,5.0074,4.8815,4.5231,0.0,0.0,0.0,0.0,0.0,0.0,0.0,0.0,0.0,0.0,0.0,0.0,0.0,0.0,0.0,0.0,0.0,0.0,0.0,0.0,0.0,0.0,0.0,0.0,0.0,0.0,0.0,0.0,0.0,0.0,0.0,0.0,0.0,0.0,0.0,0.0,0.0,0.0,0.0,0.0,0.0,4.5549,4.3418,4.3697,4.3866,0.0,0.0,4.3643,4.302,4.4076,0.0,0.0,0.0,0.0,0.0,0.0,0.0,0.0,0.0,0.0,0.0,0.0,0.0,0.0,0.0,0.0,0.0,0.0,0.0,0.0,0.0,0.0,0.0,0.0,0.0,0.0,0.0,0.0,0.0,0.0,0.0,0.0,0.0,0.0,0.0,0.0,0.0,0.0,0.0,0.0,0.0,0.0,0.0,0.0,0.0,0.0,0.0,0.0,0.0,0.0,0.0,0.0,0.0,0.0,0.0,3.9068,4.271,4.5891,4.8695,5.1089,5.1206,5.0777,4.9923,4.7214,4.3448,0.0,0.0,0.0,0.0,0.0,0.0,0.0,0.0,0.0,0.0,0.0,0.0,0.0,0.0,0.0,0.0,0.0,0.0,0.0,0.0,0.0,0.0,0.0,0.0,0.0,0.0,0.0,0.0,0.0,0.0,0.0,0.0,0.0,0.0,0.0,0.0,0.0,0.0,0.0,0.0,0.0,0.0,4.5387,4.5701,0.0,0.0,0.0,4.5115,4.5367,0.0,0.0,0.0,0.0,0.0,0.0,0.0,0.0,0.0,0.0,0.0,0.0,0.0,0.0,0.0,0.0,0.0,0.0,0.0,0.0,0.0,0.0,0.0,0.0,0.0,0.0,0.0,0.0,0.0,0.0,0.0,0.0,0.0,0.0,0.0,0.0,0.0,0.0,0.0,0.0,0.0,0.0,0.0,0.0,0.0,0.0,0.0,0.0,0.0,0.0,0.0,0.0,0.0,0.0,0.0,0.0,0.0,4.2493,4.6476,4.9391,5.1044,5.1122,5.0616,4.9491,4.6427,0.0,0.0,0.0,0.0,0.0,0.0,0.0,0.0,0.0,0.0,0.0,0.0,0.0,0.0,0.0,0.0,0.0,0.0,0.0,0.0,0.0,0.0,0.0,0.0,0.0,0.0,0.0,2.6976,0.0,0.0,0.0,0.0,0.0,0.0,0.0,0.0,0.0,0.0,0.0,0.0,0.0,0.0,4.6206,4.6745,4.7572,4.8016,0.0,0.0,4.6785,4.7087,4.6862,4.5723,0.0,0.0,0.0,0.0,0.0,0.0,0.0,0.0,0.0,0.0,0.0,0.0,0.0,0.0,0.0,0.0,0.0,0.0,0.0,0.0,0.0,0.0,0.0,0.0,0.0,0.0,0.0,0.0,0.0,0.0,0.0,0.0,0.0,0.0,0.0,0.0,0.0,0.0,0.0,0.0,0.0,0.0,0.0,0.0,0.0,0.0,0.0,0.0,0.0,0.0,0.0,0.0,0.0,0.0,0.0,4.3163,4.6647,4.9241,5.0859,5.0937,5.0162,4.8544,4.8275,4.4681,0.0,0.0,0.0,0.0,0.0,0.0,0.0,0.0,0.0,0.0,0.0,0.0,0.0,0.0,0.0,0.0,0.0,0.0,0.0,0.0,0.0,0.0,0.0,0.0,0.0,0.0,0.0,0.0,0.0,0.0,0.0,0.0,0.0,0.0,0.0,0.0,0.0,0.0,0.0,0.0,0.0,4.8764,4.6421,4.8855,5.0342,0.0,0.0,4.8982,4.7428,4.8406,4.7643,4.2694,0.0,0.0,0.0,0.0,0.0,0.0,0.0,0.0,0.0,0.0,0.0,0.0,0.0,0.0,0.0,0.0,0.0,0.0,0.0,0.0,0.0,0.0,0.0,0.0,0.0,0.0,0.0,0.0,0.0,0.0,0.0,0.0,0.0,0.0,0.0,0.0,0.0,0.0,0.0,0.0,0.0,0.0,0.0,0.0,0.0,0.0,0.0,0.0,0.0,0.0,0.0,0.0,0.0,3.9533,4.3279,4.6689,4.9204,5.0821,5.0898,5.0357,4.9243,4.8713,4.5589,0.0,0.0,0.0,0.0,0.0,0.0,0.0,0.0,0.0,0.0,0.0,0.0,0.0,0.0,0.0,0.0,0.0,0.0,0.0,0.0,0.0,0.0,0.0,0.0,0.0,0.0,0.0,0.0,3.3807,3.4861,3.572,0.0,0.0,0.0,0.0,0.0,0.0,0.0,0.0,0.0,0.0,4.9845,4.9278,5.0342,0.0,0.0,5.004,4.9764,4.9668,4.9232,4.8063,4.5479,4.402,0.0,0.0,0.0,0.0,0.0,0.0,0.0,0.0,0.0,0.0,0.0,0.0,0.0,0.0,0.0,0.0,0.0,0.0,0.0,0.0,0.0,0.0,0.0,0.0,0.0,0.0,0.0,0.0,0.0,0.0,0.0,0.0,0.0,0.0,0.0,0.0,0.0,0.0,0.0,0.0,0.0,0.0,0.0,0.0,0.0,0.0,0.0,0.0,0.0,0.0,0.0,0.0,3.9991,4.3627,4.7038,4.9475,5.0859,5.0898,5.0511,4.9707,4.8856,4.6253,0.0,0.0,0.0,0.0,0.0,0.0,0.0,0.0,0.0,0.0,0.0,0.0,0.0,0.0,0.0,0.0,0.0,0.0,0.0,0.0,0.0,0.0,0.0,0.0,0.0,0.0,0.0,0.0,3.6462,3.7282,3.7672,0.0,0.0,0.0,0.0,0.0,0.0,0.0,0.0,0.0,0.0,5.1364,5.1603,5.1869,5.1885,5.1449,5.0764,5.0391,5.0809,4.9984,4.8816,4.7378,0.0,0.0,0.0,0.0,0.0,0.0,0.0,0.0,0.0,0.0,0.0,0.0,0.0,0.0,0.0,0.0,0.0,0.0,0.0,0.0,0.0,0.0,0.0,0.0,0.0,0.0,0.0,3.1652,0.0,0.0,2.6776,0.0,0.0,0.0,0.0,0.0,0.0,0.0,0.0,0.0,0.0,0.0,0.0,0.0,0.0,0.0,0.0,0.0,0.0,0.0,0.0,0.0,0.0,4.0339,4.4523,4.7889,5.0055,5.0859,5.0898,5.0511,4.9745,4.8856,4.6767,4.3292,0.0,0.0,0.0,0.0,0.0,0.0,0.0,0.0,0.0,0.0,0.0,0.0,0.0,0.0,0.0,0.0,0.0,0.0,0.0,0.0,0.0,0.0,0.0,0.0,0.0,0.0,3.7127,3.8726,3.939,0.0,0.0,0.0,0.0,0.0,0.0,0.0,0.0,0.0,0.0,5.1771,5.3639,5.2819,5.3405,5.3325,5.1687,5.1412,5.1084,5.0286,5.0669,5.0252,0.0,0.0,0.0,0.0,0.0,0.0,0.0,0.0,0.0,0.0,0.0,0.0,0.0,0.0,0.0,0.0,0.0,0.0,0.0,0.0,0.0,0.0,0.0,0.0,0.0,0.0,0.0,3.8745,3.616,0.0,0.0,0.0,0.0,0.0,0.0,0.0,0.0,0.0,0.0,0.0,4.4987,4.5606,0.0,0.0,0.0,0.0,0.0,0.0,0.0,0.0,0.0,0.0,0.0,0.0,4.1467,4.4594,4.7966,5.0094,5.0859,5.0898,5.0782,5.0511,4.9707,4.7115,4.2589,0.0,0.0,0.0,0.0,0.0,0.0,0.0,0.0,0.0,0.0,0.0,0.0,0.0,0.0,0.0,0.0,0.0,0.0,0.0,0.0,0.0,0.0,0.0,0.0,0.0,3.7955,0.0,0.0,0.0,0.0,0.0,0.0,0.0,0.0,0.0,0.0,0.0,5.0536,5.2841,5.4637,5.5416,5.4557,5.4673,5.4437,0.0,0.0,0.0,0.0,0.0,0.0,0.0,0.0,0.0,0.0,0.0,0.0,0.0,0.0,5.4163,4.6783,4.5144,4.4984,4.5254,0.0,0.0,0.0,0.0,0.0,0.0,0.0,0.0,0.0,0.0,0.0,0.0,0.0,0.0,4.3659,0.0,4.0703,0.0,0.0,0.0,0.0,0.0,0.0,0.0,0.0,4.6844,4.9049,5.0635,5.1486,5.1447,0.0,4.9204,4.5955,0.0,0.0,0.0,0.0,0.0,0.0,0.0,0.0,4.3208,4.549,4.8539,5.0395,5.0859,5.0898,5.0898,5.0898,5.0132,4.7811,4.3904,4.2164,4.0462,0.0,0.0,0.0,0.0,0.0,0.0,0.0,0.0,0.0,0.0,0.0,0.0,0.0,0.0,0.0,0.0,0.0,0.0,0.0,0.0,0.0,0.0,0.0,4.0694,0.0,0.0,0.0,0.0,0.0,0.0,0.0,0.0,0.0,4.9016,5.1399,5.4056,5.6362,5.6868,5.6945,5.6672,0.0,0.0,0.0,0.0,0.0,0.0,0.0,5.3865,5.4651,5.4567,5.4635,5.5368,5.6952,5.8077,5.8038,0.0,0.0,5.2557,5.0996,5.0927,5.147,5.2616,5.358,5.3881,5.5504,5.6693,0.0,0.0,0.0,0.0,0.0,0.0,0.0,0.0,4.8856,4.8314,0.0,4.5761,0.0,0.0,0.0,0.0,0.0,4.4878,0.0,0.0,5.3149,5.489,5.5006,5.5664,5.5664,5.5045,5.5586,5.4147,5.0705,4.3595,0.0,0.0,0.0,0.0,0.0,0.0,4.5529,4.7115,4.9668,5.0937,5.0898,5.0898,5.0898,5.0898,5.0132,4.8894,4.7231,4.5529,4.3866,4.2125,3.8141,0.0,0.0,0.0,0.0,0.0,0.0,0.0,0.0,0.0,0.0,0.0,0.0,0.0,0.0,0.0,0.0,0.0,0.0,0.0,0.0,4.2222,0.0,0.0,0.0,0.0,0.0,0.0,0.0,0.0,0.0,0.0,5.2108,5.4644,5.7339,5.9021,0.0,0.0,0.0,0.0,5.6712,5.6673,5.6667,5.6663,5.6662,5.7278,5.7504,5.6877,0.0,0.0,5.9414,6.0625,6.1208,5.9649,6.0817,6.1722,6.1361,6.0197,5.9678,5.9756,5.9128,5.9173,5.9944,6.0649,6.1349,5.714,0.0,0.0,0.0,0.0,5.3962,5.52,5.7443,5.6824,5.5432,5.342,5.2956,0.0,0.0,0.0,0.0,0.0,0.0,5.1757,5.4194,5.52,5.6631,5.841,5.8023,5.8062,5.841,5.7404,5.6429,5.5307,5.1447,4.7354,4.3169,0.0,0.0,0.0,0.0,4.754,4.8121,5.0519,5.1525,5.0898,5.0898,5.0898,5.0898,5.0132,4.9475,4.8933,4.7308,4.5877,4.4724,4.1816,0.0,0.0,0.0,0.0,0.0,0.0,0.0,0.0,0.0,0.0,0.0,0.0,0.0,0.0,0.0,0.0,0.0,0.0,0.0,4.136,4.2845,4.4294,0.0,0.0,0.0,0.0,0.0,0.0,0.0,0.0,0.0,5.875,5.9062,5.9726,0.0,0.0,6.0273,5.9296,5.8749,5.8436,5.8435,5.8472,0.0,5.8381,5.8064,5.8373,5.9963,6.1876,6.3089,6.2852,6.3243,6.3594,6.3633,6.414,6.4598,6.4961,6.2916,6.1466,6.1806,6.2178,6.262,6.3461,6.4309,6.4853,6.3642,6.0717,5.8731,5.823,5.8645,5.8153,5.8925,6.0548,6.0394,5.9428,5.7998,5.8307,5.6366,5.2812,5.1485,0.0,0.0,0.0,5.504,5.7496,5.7457,5.85,6.0239,5.9785,5.9814,6.0249,5.8925,5.8269,5.823,5.6027,5.2782,4.8639,0.0,0.0,4.638,4.8701,4.9745,4.9513,5.1602,5.2105,5.0937,5.0898,5.0898,5.0898,5.0434,5.0016,4.9707,4.8353,4.7192,4.6348,4.3866,4.1274,0.0,0.0,0.0,0.0,0.0,0.0,0.0,0.0,0.0,0.0,0.0,3.5652,3.2956,0.0,0.0,0.0,3.9737,4.2835,4.5094,4.7069,0.0,0.0,0.0,0.0,0.0,0.0,0.0,5.8945,6.1406,6.3164,6.3672,6.3281,6.3047,6.3203,6.2656,6.1953,6.1289,0.0,6.0195,6.0195,6.0506,6.0699,6.0655,6.0495,6.1035,6.2939,6.4072,6.4928,6.5236,6.5273,6.5468,6.5936,6.6092,6.6209,6.6719,6.5286,6.4127,6.4357,6.4705,6.5172,6.5673,6.6174,6.648,6.8693,6.8257,6.3565,6.1582,6.1516,6.1527,6.1064,6.037,6.1113,6.1334,6.1373,6.199,6.145,5.9819,5.6782,0.0,5.6406,5.6445,5.768,5.9791,5.9791,6.0226,6.0987,6.0987,6.0987,6.0948,6.0187,5.9791,5.9724,5.8094,5.6474,5.4853,5.255,5.1277,5.1045,5.1904,5.1981,5.1122,5.2708,5.2754,5.1045,5.1014,5.0937,5.0782,5.0821,5.0395,4.9591,4.874,4.7927,4.7076,4.4794,4.2744,4.1009,0.0,0.0,0.0,0.0,0.0,0.0,0.0,0.0,0.0,0.0,0.0,0.0,0.0,0.0,0.0,4.5066,0.0,5.0144,5.3153,0.0,0.0,0.0,5.6946,5.7068,6.0066,6.242,6.328,0.0,0.0,6.7069,6.7031,6.668,6.5898,6.4297,6.3476,6.418,6.289,6.1914,6.1914,6.2577,6.3084,6.2966,6.3587,6.4362,6.5176,6.5643,6.5952,6.6529,6.6719,6.6759,6.6759,6.6834,6.6915,6.6912,6.7495,6.7966,6.7066,6.6988,6.6988,6.706,6.7021,6.694,7.0912,7.0194,6.8347,6.7268,6.6773,6.6773,6.6272,6.5473,6.4999,6.4458,6.3852,6.3378,6.2954,6.253,6.1769,6.1152,6.0678,6.0699,6.0689,6.0689,6.0678,6.0794,6.0987,6.0987,6.0987,6.0987,6.0794,6.0678,6.064,5.9598,5.8557,5.7476,5.631,5.4389,5.1957,5.327,5.3579,5.2729,5.381,5.3519,5.1854,5.1824,5.1214,5.0008,4.997,4.9591,4.874,4.7889,4.7308,4.7076,4.5884,4.4446,4.2783,4.0739,0.0,0.0,0.0,0.0,0.0,0.0,0.0,0.0,0.0,4.2911,3.8014,0.0,4.5615,0.0,4.7391,5.0377,5.3417,5.3886,0.0,0.0,5.9001,6.0309,6.2912,6.445,6.571,6.6572,6.7785,6.8565,6.8565,6.8072,6.7668,6.7434,6.6011,6.4805,6.4375,6.3984,6.3672,6.3672,6.3828,6.3984,6.406,6.4721,6.5341,6.5575,6.612,6.6664,6.6772,6.6809,6.6805,6.6837,6.7381,6.7732,6.7771,6.8513,6.8981,6.8825,6.8786,6.8786,6.8786,6.8239,6.7771,7.2283,7.1475,7.1398,7.0708,6.9541,6.8436,6.7665,6.7126,6.5931,6.5353,6.5276,6.4775,6.4351,6.4004,6.4028,6.3515,6.2721,6.2717,6.2293,6.15,6.15,6.1269,6.0922,6.0922,6.0922,6.0922,6.0922,6.0922,6.0883,6.0421,5.9766,5.8869,5.8445,5.6904,5.441,5.4873,5.4776,5.3889,5.3966,5.3753,5.3202,5.2468,5.1481,5.0294,5.0201,4.9436,4.7889,4.7719,4.7294,4.6573,4.6078,4.5374,4.4446,4.3169,4.1893,0.0,0.0,0.0,0.0,0.0,0.0,0.0,0.0,0.0,0.0,0.0,4.9088,4.983,5.2182,5.4923,5.7939,5.9219,6.0815,6.3153,6.4163,6.53,6.6776,6.7675,6.841,6.8883,6.9741,7.0097,6.9746,6.9401,6.8861,6.812,6.7297,6.6289,6.5156,6.4883,6.4726,6.4375,6.4648,6.5039,6.539,6.5858,6.6169,6.6205,6.6557,6.6866,6.6859,6.6815,6.6926,6.7312,6.7776,6.8239,6.863,6.9372,6.9957,7.0035,7.0309,7.027,6.9567,6.902,6.8669,7.3129,7.2437,7.3053,7.2399,7.0706,6.8398,6.7436,6.7321,6.5743,6.532,6.5743,6.5743,6.532,6.4628,6.4754,6.4369,6.3474,6.3534,6.3072,6.2293,6.2255,6.1858,6.1127,6.1012,6.0973,6.0973,6.0858,6.0781,6.0781,6.0781,6.0358,5.955,5.9511,5.8742,5.7214,5.6529,5.5721,5.4757,5.3986,5.3909,5.4535,5.3147,5.194,5.0941,5.0722,4.9542,4.7262,4.789,4.7619,4.6264,4.6341,4.6387,4.631,4.5645,4.4865,0.0,4.4794,0.0,0.0,0.0,0.0,0.0,0.0,0.0,0.0,5.2058,5.3265,5.5432,5.783,6.0228,6.2665,6.5804,6.773,6.7841,6.9539,7.0304,6.9367,7.0056,7.0635,7.0518,7.1297,7.1491,7.0628,7.0619,7.0082,6.8674,6.8136,6.7461,6.6211,6.582,6.5508,6.4726,6.5273,6.6015,6.6601,6.6836,6.6836,6.6873,6.6873,6.695,6.7101,6.7056,6.7285,6.8064,6.8447,6.875,6.9452,7.0272,7.0855,7.0855,7.1402,7.1402,7.023,6.9684,6.9567,7.3976,7.3206,7.2668,7.186,7.0821,6.9706,6.9206,6.9129,6.8129,6.6628,6.4859,6.4859,6.4743,6.4666,6.5371,6.5179,6.4359,6.4371,6.3909,6.3051,6.3089,6.2974,6.2781,6.2166,6.187,6.1793,6.1139,6.0781,6.0781,6.0781,6.0358,5.9511,5.9511,5.9011,5.8088,0.0,0.0,0.0,5.5312,5.5024,5.4554,5.4207,5.3003,5.0898,5.0117,0.0,4.7249,4.7867,4.8199,4.7966,4.9204,0.0,0.0,0.0,0.0,0.0,0.0,0.0,0.0,0.0,0.0,0.0,5.5509,5.4186,5.5036,5.8217,6.0151,5.9996,6.1621,6.3487,6.5296,6.668,6.8044,6.9445,7.1133,7.1823,7.1007,7.1629,7.192,7.1223,7.1881,7.2075,7.1291,7.1223,7.0944,6.9837,6.8689,6.7812,6.743,6.6893,6.6601,6.6445,6.6445,6.668,6.6875,6.6875,6.6914,6.6914,6.6914,6.7187,6.7732,6.7886,6.8196,6.9013,6.9747,7.0208,7.0442,7.1175,7.1675,7.1753,7.187,7.1909,7.1558,7.0933,7.0465,7.4861,0.0,7.4091,7.336,0.0,7.1745,7.1091,7.0167,6.8475,6.7051,6.582,6.5436,6.5474,6.582,6.5436,6.5243,6.5243,6.5243,6.4782,6.3974,6.3935,6.3705,6.3269,6.2897,6.2474,6.2101,6.1639,6.1204,6.0819,6.0781,6.0589,6.0165,6.0127,5.9704,5.8896,5.8511,5.7665,5.6368,5.5895,5.5521,5.5081,5.4706,5.3725,5.2107,5.1587,0.0,0.0,0.0,0.0,0.0,0.0,0.0,0.0,0.0,0.0,5.2763,5.3614,5.4465,5.5316,5.6515,5.8372,6.0886,6.1079,6.0344,5.8681,6.1311,6.3052,6.3091,6.4599,6.6263,6.7926,6.9628,7.1175,7.2375,7.3303,7.3651,7.3226,7.28,7.2607,7.2607,7.2568,7.2413,7.1988,7.2056,7.1581,7.0432,6.9584,6.8767,6.7925,6.7177,6.6756,6.6759,6.6779,6.6797,6.6788,6.6875,6.6914,6.6914,6.6914,6.7265,6.8046,6.8201,6.859,6.9759,7.0419,7.0803,7.1266,7.1729,7.1995,7.199,7.1987,7.1987,7.1987,7.1636,7.1324,7.5592,7.5014,7.5707,7.513,7.3692,7.3553,7.2514,7.0744,0.0,0.0,0.0,6.6474,6.632,6.6551,6.5513,6.5282,6.5667,6.582,6.5513,6.482,6.482,6.4436,6.3782,6.3577,6.3166,6.2563,6.2409,6.187,6.105,6.1012,6.0935,6.0819,6.0781,6.0435,5.9704,5.8934,5.8165,5.7434,5.6588,5.6088,5.5934,5.528,5.4493,5.3522,5.3454,5.2743,5.1325,5.2136,5.2367,5.1767,5.2661,5.3451,5.403,5.4916,5.6063,5.7407,5.8315,5.902,5.9484,6.1263,6.2549,6.282,6.4948,6.4948,6.2008,6.3245,6.4493,6.5373,6.6843,6.839,7.0092,7.2413,7.4231,7.5005,7.5237,7.5276,7.5044,7.3922,7.3303,7.3728,7.338,7.2993,7.2839,7.3064,7.2586,7.109,7.0588,6.9954,6.8325,6.7231,6.6693,6.6853,6.6826,6.6703,6.6709,6.6965,6.6986,6.6875,6.7109,6.7572,6.8159,6.8514,6.9219,7.0625,7.0896,7.124,7.1858,7.2127,7.2202,7.2232,7.2346,7.2464,7.2461,7.2461,7.2383,7.5938,7.5822,7.5938,7.5438,7.4476,7.3783,7.2514,7.0706,6.8205,6.7513,6.8167,6.7321,6.6205,6.5013,6.6205,6.6051,6.4859,6.5551,6.582,6.5705,6.5705,6.5667,6.5513,6.4782,6.4359,6.4205,6.3512,6.2704,6.1973,6.1908,6.1562,6.0896,6.0781,6.0704,6.055,5.9742,5.9281,5.9127,5.8357,5.7588,5.683,5.6714,5.5906,5.4406,5.4357,5.3887,5.3013,5.4438,5.5229,5.5239,5.6676,5.7255,5.6638,5.7381,5.7998,5.8278,5.9138,6.0587,6.2673,6.2597,6.3052,6.4522,6.5605,6.5682,6.4599,6.5296,6.6224,6.7075,6.8081,6.9319,7.0982,7.2839,7.4309,7.5044,7.5779,7.5933,7.5237,7.4889,7.4463,7.4077,7.4425,7.4425,7.3883,7.4265,7.4027,7.2545,7.1378,7.0515,6.8983,6.7461,6.6969,6.7369,6.7034,6.6693,6.6853,6.7248,6.7391,6.675,6.789,6.8682,6.896,6.9592,7.0399,7.1455,7.1637,7.1795,7.2028,7.2648,7.2956,7.3031,7.3498,7.4045,7.4037,7.4035,7.3681,7.5976,7.5976,7.5976,7.5784,7.5322,7.4038,7.2514,7.0783,6.9206,6.8975,6.959,6.8398,6.7667,6.7359,6.7167,6.6436,6.5359,6.6167,6.6051,6.5282,6.5705,6.5897,6.5859,6.5474,6.5051,6.4589,6.4205,6.3551,6.2781,6.2332,6.1908,6.1485,6.105,6.0781,6.0781,6.0396,6.0204,6.0165,5.8934,5.8088,5.7703,5.7703,5.7319,5.6549,5.6549,5.6406,5.6043,5.6774,5.718,5.7202,5.8389,5.8862,5.8515,5.9318,5.9984,6.0447,6.0864,6.1801,6.346,6.3668,6.4278,6.5526,6.6397,6.6766,6.6379,6.6688,6.7268,6.8158,6.9783,7.1369,7.2607,7.4231,7.5392,7.574,7.6165,7.6243,7.5817,7.5353,7.516,7.5198,7.516,7.4966,7.4618,7.4889,7.4463,7.2839,7.1523,7.044,7.0131,6.881,6.7922,6.8233,6.803,6.7885,6.7852,6.8187,6.8294,6.7993,6.8572,6.9234,6.9673,7.0264,7.0789,7.1542,7.1836,7.1904,7.191,7.2656,7.3159,7.3387,7.4012,7.4518,7.4593,7.4593,7.4275,7.5976,7.5976,7.5976,7.5976,7.5899,7.463,7.3168,7.1745,7.1129,7.0975,7.0937,6.9436,6.8975,6.9244,6.8167,6.6936,6.582,6.6436,6.5897,6.4474,6.5013,6.532,6.532,6.532,6.4974,6.4397,6.4474,6.4166,6.332,6.2666,6.2166,6.1793,6.1127,6.0781,6.0781,6.0781,6.0781,6.0704,5.9511,5.8781,5.8588,5.8588,5.8473,5.8308,5.8473,5.8588,5.8588,5.8781,5.8973,5.9165,5.9634,5.9964,6.0157,6.0663,6.134,6.2073,6.2354,6.2943,6.3968,6.4734,6.5423,6.6041,6.6752,6.7248,6.7441,6.749,6.7926,6.9125,7.1137,7.2877,7.3844,7.5353,7.632,7.6165,7.6281,7.6281,7.6088,7.5662,7.5624,7.6204,7.5817,7.5392,7.5392,7.5392,7.485,7.3419,7.1678,7.0982,7.1485,7.0595,6.9744,6.9544,6.9265,6.8804,6.8899,6.9135,6.9162,6.9111,6.9409,6.9784,7.0226,7.0415,7.0835,7.1516,7.1711,7.1767,7.1867,7.2752,7.3434,7.3672,7.4336,7.4882,7.4953,7.4951,7.4749,7.5976,7.5976,7.5976,7.5976,7.5976,7.5784,7.513,7.4284,7.4245,7.3399,7.186,7.0321,6.9206,6.8706,6.9206,6.7744,6.5051,6.5628,6.5166,6.3654,6.3512,6.3551,6.3705,6.3628,6.3512,6.3551,6.4205,6.4128,6.3435,6.3243,6.2397,6.1089,6.0819,6.0781,6.0781,6.0781,6.0781,6.0781,6.0666,6.0204,5.9435,5.9396,5.905,5.8308,5.9011,5.9396,5.9396,6.0165,6.0935,6.1601,6.1023,6.1023,6.1639,6.1189,6.1228,6.2086,6.2852,6.3978,6.5539,6.5859,6.5897,6.6013,6.6223,6.6681,6.7349,6.7508,6.8197,6.9821,7.1562,7.2916,7.3883,7.543,7.6088,7.5585,7.6011,7.6127,7.5546,7.5856,7.6332,7.6359,7.6243,7.6243,7.6165,7.6127,7.5779,7.4734,7.3226,7.2452,7.3109,7.2529,7.1872,7.164,7.0434,6.9079,6.9061,6.9477,6.9663,6.9217,7.0127,7.0593,7.0564,7.0839,7.1428,7.1404,7.1634,7.1672,7.2033,7.2906,7.4,7.4025,7.4664,7.5529,7.5703,7.5618,7.5301,7.5976,7.5976,7.5976,7.5976,7.5976,7.5976,7.5245,7.4053,7.4014,7.3053,7.1475,7.0706,7.0206,6.9937,7.0244,6.8821,6.6244,6.7513,6.6936,6.4974,6.4859,6.4859,6.4743,6.3743,6.3308,6.3308,6.3654,6.3897,6.3974,6.3551,6.2474,6.0973,6.0781,6.0781,6.0781,6.0781,6.0781,6.0781,6.0781,6.0627,6.0319,6.0281,6.0089,5.9858,6.0089,6.0281,6.0281,6.0627,6.0973,6.1281,6.0973,6.0935,6.1331,6.1485,6.1935,6.2781,6.4114,6.5177,6.5895,6.5982,6.5993,6.5993,6.6977,6.7745,6.8093,6.8579,6.9617,7.1247,7.2159,7.3109,7.4463,7.5701,7.6243,7.5972,7.6204,7.6243,7.5933,7.6165,7.6397,7.6397,7.6397,7.6397,7.632,7.5972,7.5508,7.5044,7.4038,7.3612,7.3806,7.3148,7.2684,7.2413,7.1214,7.044,7.0247,7.0479,7.0556,7.0479,7.0827,7.1059,7.0965,7.0997,7.1349,7.1359,7.1481,7.1573,7.158,7.2522,7.3519,7.3766,7.4278,7.4928,7.5027,7.5078,7.492,7.5976,7.5976,7.5976,7.5976,7.5976,7.5976,7.5322,7.4284,7.4207,7.3322,7.2014,7.1706,7.1475,7.1245,7.1014,6.9629,6.7821,6.8783,6.8129,6.6013,6.5667,6.5513,6.5397,6.4051,6.3166,6.3051,6.3205,6.3628,6.4128,6.3666,6.2666,6.1589,6.1243,6.1166,6.1139,6.0973,6.0781,6.0781,6.0781,6.0781,6.0781,6.0781,6.0781,6.0781,6.0781,6.0781,6.0781,6.0781,6.0896,6.1127,6.0935,6.1012,6.1473,6.2089,6.3012,6.4243,6.5513,6.6205,6.6205,6.6063,6.6165,6.6677,6.7716,6.8408,6.8883,6.9319,7.0204,7.1487,7.2268,7.3219,7.4889,7.5895,7.6281,7.6127,7.6204,7.632,7.6049,7.6204,7.6397,7.6397,7.6397,7.6397,7.6281,7.5701,7.5187,7.5353,7.4773,7.4231,7.4115,7.3535,7.2916,7.2607,7.1833,7.1291,7.1291,7.1214,7.1291,7.1291,7.1291,7.1291,7.1291,7.1291,7.1302,7.1337,7.1397,7.1472,7.152,7.2228,7.2913,7.3113,7.3612,7.4144,7.4073,7.4275,7.4527,7.5976,7.6015,7.5976,7.5976,7.5976,7.5976,7.5938,7.5692,7.5784,7.5322,7.4322,7.3577,7.2899,7.2052,7.1231,6.9962,6.8513,6.8552,6.7744,6.6051,6.5192,6.4692,6.4589,6.3743,6.2885,6.2259,6.2669,6.3117,6.3295,6.3269,6.3269,6.3038,6.2243,6.1947,6.1793,6.1127,6.0781,6.0781,6.0781,6.0781,6.0781,6.0781,6.0781,6.0781,6.0781,6.0781,6.0781,6.0781,6.1127,6.1985,6.1204,6.1473,6.2935,6.3205,6.432,6.6436,6.6898,6.6974,6.6859,6.6295,6.6487,6.7795,6.7615,6.7961,6.9194,6.9167,6.9473,7.0037,7.1735,7.3251,7.4931,7.5922,7.6076,7.5496,7.5972,7.5972,7.5341,7.6011,7.6359,7.6397,7.6397,7.6397,7.6359,7.5624,7.5624,7.5895,7.5546,7.4993,7.4811,7.427,7.3496,7.2645,7.191,7.1291,7.1291,7.1291,7.1291,7.1291,7.1291,7.1369,7.1291,7.1291,7.1291,7.133,7.1334,7.1394,7.1479,7.1841,7.2405,7.2794,7.3263,7.357,7.3119,7.3825,7.402,7.634,7.594,7.594,7.594,7.5925,7.5841,7.5856,7.5925,7.594,7.5471,7.4654,7.3846,7.3014,7.2129,7.1006,7.0062,6.9308,6.9744,6.909,6.7487,6.6364,6.559,6.4834,6.2901,6.1713,6.1408,6.1156,6.1158,6.1439,6.1874,6.2004,6.168,6.1435,6.1281,6.1204,6.0973,6.0781,6.0781,6.0781,6.0781,6.0769,6.0781,6.0781,6.0781,6.0781,6.0781,6.0781,6.0781,6.0935,6.1254,6.0935,6.132,6.2474,6.3551,6.4782,6.609,6.632,6.632,6.6282,6.609,6.6128,6.6744,6.7564,6.7975,6.8283,6.9271,7.0452,7.1377,7.2431,7.3935,7.5362,7.6159,7.6222,7.599,7.6142,7.6281,7.6049,7.6204,7.6397,7.6397,7.6397,7.6397,7.632,7.6088,7.6049,7.6281,7.6127,7.5701,7.5082,7.4425,7.3612,7.2723,7.1872,7.1291,7.1291,7.1291,7.1291,7.1291,7.133,7.1717,7.1794,7.1523,7.1485,7.1833,7.1717,7.133,7.1418,7.1468,7.1957,7.2036,7.2577,7.2655,7.2079,7.2746,7.2832,7.653,7.5887,7.5848,7.581,7.581,7.5763,7.566,7.5628,7.5611,7.5195,7.4494,7.3674,7.2833,7.1975,7.0879,7.004,6.962,6.995,6.9498,6.8357,6.7048,6.6211,6.5591,6.336,6.2067,6.1612,6.0416,6.0051,6.0555,6.108,6.1297,6.1324,6.1031,6.0878,6.0839,6.0609,6.0456,6.0494,6.0456,6.0481,6.0481,6.0481,6.0456,6.0456,6.0494,6.0585,6.0769,6.0781,6.0781,6.0781,6.0781,6.1435,6.2858,6.4474,6.5667,6.6205,6.632,6.6167,6.5936,6.5897,6.6359,6.7436,6.8244,6.8667,6.8783,7.036,7.1387,7.2005,7.2968,7.4227,7.5361,7.6006,7.625,7.6276,7.6326,7.6374,7.6374,7.6386,7.6397,7.6397,7.6397,7.6397,7.6397,7.6397,7.6359,7.6397,7.6397,7.5972,7.4928,7.427,7.3458,7.2452,7.1988,7.1601,7.1562,7.1562,7.1485,7.1446,7.164,7.2026,7.222,7.191,7.1872,7.222,7.2065,7.1562,7.1291,7.1291,7.1302,7.1302,7.1541,7.1861,7.165,7.1614,7.1881,7.6449,7.5666,7.5676,7.5611,7.5595,7.554,7.5365,7.5056,7.4981,7.4731,7.4262,7.3435,7.2611,7.1773,7.0846,6.9992,6.9186,6.8679,6.8412,6.8202,6.6706,6.6329,6.6614,6.4875,6.3552,6.2834,6.0897,6.0194,6.0736,6.0849,6.1224,6.1864,6.1191,6.0789,6.0936,6.0225,5.9836,5.9868,5.9884,5.9852,5.9788,5.9852,5.9944,5.995,5.9966,6.0264,6.0798,6.0772,6.071,6.0734,6.0834,6.2,6.4205,6.5897,6.6987,6.6859,6.6974,6.6628,6.6013,6.5897,6.7244,6.936,6.9937,7.009,7.1014,7.1898,7.2028,7.1566,7.2759,7.4053,7.4889,7.5639,7.6131,7.6185,7.6263,7.6301,7.6313,7.6362,7.6359,7.632,7.632,7.6397,7.6359,7.6359,7.6397,7.6397,7.6359,7.5817,7.4463,7.396,7.3148,7.2104,7.1794,7.1794,7.1833,7.191,7.1756,7.1678,7.1988,7.2297,7.2529,7.2413,7.2529,7.2761,7.2297,7.1794,7.1291,7.1291,7.1291,7.1302,7.1334,7.1355,7.1388,7.1443,7.1478,7.5856,7.474,7.5212,7.5119,7.4626,7.4544,7.446,7.4379,7.4379,7.4336,7.4142,7.3404,7.2574,7.1643,7.0615,6.9349,6.8038,6.7076,6.6882,6.7145,6.6065,6.5326,6.495,6.377,6.2392,6.112,6.0297,5.9815,5.9813,5.9811,6.0048,6.0421,6.034,6.0167,6.0248,5.9923,5.9772,5.9772,5.9772,5.9772,5.9772,5.9809,6.0058,6.0551,6.0627,6.0757,6.089,6.0425,6.0121,6.0135,6.087,6.2285,6.4308,6.5667,6.6244,6.6282,6.6282,6.6205,6.5974,6.5974,6.6885,6.8769,6.95,6.9898,7.0706,7.2615,7.3115,7.2283,7.3822,7.5361,7.5592,7.5837,7.601,7.6118,7.6185,7.6225,7.6238,7.6288,7.6016,7.5642,7.5987,7.6088,7.5779,7.5895,7.6243,7.6243,7.6281,7.5662,7.4347,7.3844,7.3535,7.2491,7.2297,7.2026,7.2181,7.2375,7.2413,7.2375,7.2529,7.2955,7.3109,7.3109,7.3187,7.2993,7.2529,7.2026,7.1562,7.1291,7.1291,7.133,7.139,7.1352,7.1302,7.1394,7.1591,7.6019,7.4628,7.5079,7.4816,7.4064,7.3995,7.3902,7.3808,7.3808,7.3736,7.3514,7.3054,7.2382,7.1512,7.0438,6.9088,6.7542,6.6186,6.5713,6.578,6.4946,6.4352,6.4112,6.326,6.2124,6.0936,6.0534,6.0236,5.9978,5.996,6.0077,6.0303,6.0001,6.0058,6.0189,5.9737,5.9624,6.0151,6.002,6.0001,6.0246,6.034,6.0547,6.0999,6.1074,6.1074,6.1036,6.0585,6.0315,6.0497,6.1514,6.2894,6.414,6.4996,6.547,6.547,6.5456,6.5456,6.5509,6.6193,6.7365,6.8939,7.0329,7.1283,7.1832,7.3697,7.3799,7.3453,7.4244,7.5295,7.5295,7.5602,7.568,7.5572,7.5925,7.612,7.6198,7.6238,7.5877,7.5388,7.549,7.5371,7.5036,7.497,7.5457,7.5469,7.5469,7.5314,7.4115,7.3612,7.3109,7.2684,7.2375,7.2336,7.2568,7.28,7.3071,7.3148,7.3187,7.3728,7.4115,7.3883,7.3844,7.3303,7.2839,7.2258,7.1756,7.1407,7.1291,7.1369,7.1485,7.1833,7.196,7.1921,7.2003,7.6667,7.5205,7.5167,7.467,7.3883,7.3845,7.3579,7.3261,7.3272,7.3007,7.2658,7.2613,7.2087,7.1267,7.0459,6.9181,6.764,6.6077,6.4988,6.4377,6.3725,6.3672,6.414,6.3618,6.2826,6.216,6.1508,6.1165,6.0933,6.0954,6.1224,6.1183,6.0497,6.0428,6.0832,5.9648,5.9806,6.0795,6.038,6.0417,6.105,6.1103,6.1215,6.131,6.1369,6.1369,6.1353,6.1263,6.1235,6.1306,6.2525,6.3372,6.3731,6.4282,6.4786,6.4803,6.4734,6.4882,6.52,6.65,6.8263,6.9938,7.1812,7.3688,7.3837,7.3959,7.4129,7.3823,7.4167,7.4281,7.4358,7.4816,7.5047,7.4888,7.5558,7.6027,7.6095,7.6031,7.5491,7.4848,7.4707,7.4565,7.3893,7.3867,7.4007,7.4081,7.4131,7.4003,7.3667,7.3164,7.2761,7.2491,7.2297,7.2607,7.28,7.28,7.3148,7.3883,7.3844,7.4077,7.4773,7.4657,7.3999,7.3496,7.3226,7.2568,7.1988,7.164,7.1369,7.133,7.1717,7.2336,7.2529,7.2375,7.2336,7.6121,7.4229,7.4718,7.4164,7.3009,7.2899,7.2816,7.2714,7.2714,7.263,7.2496,7.2532,7.2092,7.1256,7.0477,6.9229,6.7614,6.6072,6.4861,6.4067,6.3284,6.3505,6.407,6.3625,6.3168,6.2798,6.2211,6.1612,6.1093,6.1255,6.1574,6.2041,6.1351,6.1298,6.1781,6.1038,6.0778,6.1113,6.1038,6.0964,6.1187,6.1261,6.1521,6.2041,6.2079,6.2116,6.2079,6.2079,6.2204,6.2428,6.2749,6.352,6.4211,6.4494,6.4628,6.4628,6.4664,6.5022,6.5704,6.6742,6.8142,6.9775,7.1784,7.2621,7.2868,7.3954,7.4105,7.3915,7.4105,7.4276,7.3934,7.4372,7.458,7.4494,7.5257,7.576,7.5317,7.5089,7.4615,7.3356,7.3665,7.3536,7.3137,7.3227,7.3574,7.3599,7.3534,7.3507,7.3068,7.2743,7.2318,7.2286,7.2258,7.2684,7.2955,7.2877,7.3303,7.4386,7.4463,7.4154,7.4889,7.5353,7.4386,7.3419,7.3651,7.3264,7.2452,7.1833,7.1601,7.1407,7.2104,7.2723,7.2684,7.2607,7.2645,7.6093,7.4258,7.4735,7.4001,7.2606,7.2532,7.2532,7.2532,7.2532,7.2532,7.2532,7.2532,7.2239,7.1762,7.0954,6.9486,6.7687,6.6402,6.5007,6.3576,6.3025,6.3174,6.3555,6.3493,6.3468,6.3086,6.2798,6.2401,6.2054,6.2056,6.2546,6.3088,6.2576,6.2636,6.3305,6.2264,6.1893,6.2079,6.193,6.1819,6.219,6.2227,6.2413,6.2859,6.2933,6.2933,6.2896,6.2896,6.2991,6.3131,6.3231,6.3522,6.4119,6.4233,6.4233,6.4233,6.4233,6.4702,6.6041,6.7233,6.8749,7.0433,7.2157,7.3093,7.3434,7.4069,7.411,7.3846,7.4169,7.3942,7.351,7.3787,7.4061,7.4198,7.49,7.5244,7.4725,7.4288,7.3741,7.3119,7.2893,7.2778,7.1943,7.2302,7.2508,7.2572,7.243,7.2493,7.2479,7.2209,7.2078,7.2086,7.1954,7.2225,7.2623,7.2711,7.2877,7.3922,7.4657,7.4386,7.4657,7.5392,7.5082,7.427,7.4231,7.3844,7.2955,7.2181,7.1833,7.1949,7.2607,7.3109,7.3264,7.3303,7.3303,7.6283,7.4882,7.4808,7.3891,7.2642,7.2532,7.2532,7.2532,7.2532,7.2532,7.2532,7.2532,7.2459,7.2459,7.1505,7.0073,6.7981,6.6916,6.4971,6.3613,6.2927,6.3124,6.3038,6.3554,6.3677,6.3407,6.3283,6.3073,6.2936,6.3127,6.3729,6.3975,6.3711,6.3965,6.4076,6.3185,6.2985,6.3171,6.2822,6.2822,6.323,6.3305,6.3342,6.3416,6.3453,6.349,6.349,6.3527,6.355,6.3565,6.3602,6.3595,6.3669,6.3661,6.3721,6.384,6.4071,6.483,6.6184,6.7935,6.9535,7.1043,7.3005,7.4334,7.3883,7.3673,7.364,7.3527,7.3715,7.3227,7.2987,7.3113,7.3404,7.3672,7.4212,7.441,7.4314,7.3549,7.2948,7.3085,7.24,7.165,7.1154,7.09,7.0991,7.15,7.1505,7.1711,7.1775,7.1633,7.1748,7.1989,7.1858,7.1638,7.2059,7.2468,7.2711,7.3253,7.4193,7.4386,7.4154,7.4695,7.5276,7.5198,7.4386,7.3844,7.3342,7.2761,7.2297,7.2529,7.3148,7.3883,7.4425,7.4386,7.4347,7.5799,7.4845,7.4221,7.3413,7.2606,7.2532,7.2532,7.2532,7.2532,7.2532,7.2532,7.2532,7.2532,7.2459,7.1725,7.0624,6.9229,6.7393,6.5154,6.3135,6.3576,6.3356,6.2989,6.316,6.3711,6.4056,6.3493,6.3063,6.3075,6.3245,6.3662,6.424,6.3881,6.3719,6.4331,6.3762,6.3288,6.3542,6.3393,6.3356,6.3527,6.3602,6.3602,6.3602,6.3602,6.3602,6.3602,6.3602,6.3602,6.3602,6.3676,6.3788,6.375,6.4173,6.4173,6.4122,6.4939,6.5979,6.7043,6.8105,6.9046,7.0385,7.1885,7.2421,7.1824,7.2472,7.2609,7.2497,7.1988,7.2038,7.2323,7.241,7.2753,7.3119,7.311,7.3169,7.3398,7.289,7.2148,7.1595,7.0926,7.0167,7.0068,7.0353,7.0432,7.0494,7.0734,7.1016,7.1094,7.1107,7.1377,7.1697,7.1555,7.1374,7.1719,7.2024,7.2086,7.2418,7.3242,7.3988,7.3756,7.3728,7.4193,7.4309,7.4115,7.3651,7.3187,7.3226,7.2761,7.3264,7.3535,7.3844,7.4154,7.4657,7.485,7.5983,7.4918,7.4441,7.3597,7.2606,7.2532,7.2532,7.2532,7.2532,7.2532,7.2532,7.2532,7.2532,7.2496,7.2018,7.1284,6.9633,6.721,6.5301,6.4053,6.3833,6.3649,6.3833,6.3209,6.3356,6.398,6.3332,6.2941,6.2953,6.31,6.3541,6.4303,6.3885,6.4031,6.4435,6.4029,6.3729,6.3525,6.3511,6.3534,6.3579,6.3602,6.3602,6.3602,6.3602,6.3602,6.3602,6.3988,6.4136,6.4248,6.4508,6.4322,6.3839,6.4382,6.4508,6.4568,6.5719,6.7243,6.8208,6.8853,6.962,7.0735,7.1738,7.1775,7.1812,7.2258,7.2729,7.2581,7.2172,7.1738,7.2172,7.2655,7.287,7.2982,7.2907,7.3007,7.3077,7.2203,7.1511,7.112,7.0574,7.0005,6.9814,6.9905,6.9977,7.0064,7.0385,7.0646,7.0758,7.0801,7.1004,7.1185,7.1159,7.1184,7.1453,7.154,7.1383,7.1638,7.2125,7.2739,7.2944,7.2916,7.2955,7.3226,7.3574,7.3187,7.2877,7.2993,7.3032,7.3032,7.3109,7.3342,7.3806,7.4502,7.4579,7.6136,7.4882,7.4661,7.3744,7.2642,7.2532,7.2532,7.2532,7.2532,7.2422,7.2386,7.2422,7.2422,7.2312,7.2422,7.1505,6.9522,6.7357,6.5632,6.4677,6.3723,6.3759,6.4053,6.3392,6.2989,6.2927,6.2879,6.2842,6.283,6.2978,6.3419,6.4107,6.4107,6.4119,6.4254,6.4168,6.3809,6.341,6.3359,6.3442,6.3534,6.3557,6.3557,6.3602,6.3602,6.375,6.3951,6.4396,6.4805,6.5028,6.5719,6.5274,6.4619,6.4693,6.5065,6.5125,6.6574,6.7874,6.8803,6.9373,7.0029,7.1701,7.1923,7.1961,7.2035,7.2258,7.2555,7.2555,7.2146,7.1775,7.2035,7.2767,7.325,7.3387,7.3361,7.3372,7.3041,7.1611,7.1178,7.1363,7.0341,6.9357,6.9405,6.9488,6.9548,6.9664,6.9995,7.0255,7.0337,7.0432,7.0608,7.0738,7.0738,7.0927,7.1223,7.1312,7.1118,7.1321,7.1537,7.1881,7.2341,7.2495,7.265,7.2916,7.3071,7.2645,7.2491,7.2568,7.2568,7.2529,7.2839,7.3226,7.3806,7.4463,7.4309,7.5175,7.4808,7.345,7.2753,7.2532,7.2532,7.2532,7.2532,7.2532,7.2129,7.166,7.2202,7.2129,7.1872,7.2275,7.1248,6.9412,6.7687,6.6145,6.4824,6.3906,6.3906,6.3282,6.3135,6.3135,6.3539,6.3319,6.2952,6.2989,6.2879,6.3406,6.3847,6.3468,6.3481,6.3812,6.3653,6.3357,6.3268,6.3218,6.3289,6.3419,6.3465,6.3511,6.3579,6.3579,6.3936,6.4433,6.473,6.5125,6.5831,6.6017,6.5979,6.5905,6.6425,6.6425,6.6351,6.7367,6.858,6.889,6.889,6.9249,7.0029,7.0821,7.1155,7.1218,7.1366,7.1775,7.1626,7.1515,7.1229,7.1155,7.2518,7.3287,7.3372,7.3372,7.3372,7.3064,7.1975,7.0845,7.1098,6.9892,6.8884,6.914,6.9219,6.9155,6.9303,6.9567,6.9758,6.9851,6.9959,7.0082,7.0233,7.04,7.0666,7.0952,7.1043,7.1043,7.1248,7.1439,7.1552,7.1962,7.2217,7.2461,7.2495,7.2402,7.2065,7.1988,7.2104,7.222,7.2258,7.2684,7.3148,7.3264,7.3496,7.4309,7.4661,7.4184,7.3413,7.2863,7.2532,7.2532,7.2532,7.2532,7.2496,7.2312,7.2129,7.2312,7.2312,7.2092,7.2275,7.1541,7.0146,6.8311,6.6843,6.5448,6.4494,6.3613,6.289,6.2805,6.3025,6.3356,6.3392,6.3686,6.3991,6.3686,6.3723,6.3759,6.3246,6.305,6.3321,6.3125,6.2978,6.3075,6.3099,6.3147,6.3326,6.3336,6.3465,6.3488,6.3631,6.4025,6.4693,6.5348,6.5868,6.6611,6.7131,6.7317,6.7428,6.754,6.754,6.7168,6.8171,6.9076,6.9224,6.941,6.9855,6.9781,7.0412,7.0858,7.1044,7.1329,7.1403,7.1478,7.1589,7.1589,7.1663,7.2704,7.3287,7.3372,7.3372,7.3372,7.3038,7.1812,7.1229,7.0784,6.9545,6.8948,6.9197,6.9154,6.8875,6.893,6.9176,6.9303,6.9368,6.9508,6.9645,6.9887,7.0082,7.04,7.0681,7.0819,7.0914,7.1185,7.1287,7.1402,7.1516,7.1733,7.1769,7.1765,7.1568,7.1551,7.1562,7.1678,7.1833,7.1949,7.2065,7.222,7.222,7.2568,7.3612,7.4294,7.3707,7.3523,7.3083,7.2569,7.2532,7.2532,7.2532,7.2532,7.2386,7.2312,7.2422,7.2386,7.2312,7.2312,7.2018,7.1146,6.9192,6.7871,6.6292,6.5264,6.4127,6.3062,6.2879,6.3099,6.3833,6.4053,6.4494,6.4347,6.4383,6.4273,6.4016,6.3356,6.3062,6.3135,6.3014,6.2953,6.2929,6.2978,6.3026,6.3147,6.3265,6.3447,6.3581,6.3748,6.4299,6.5389,6.5993,6.6722,6.7465,6.7999,6.8444,6.8481,6.8481,6.8184,6.7874,6.8816,6.9298,6.9558,6.9781,6.9707,6.941,7.0152,7.0524,7.071,7.0958,7.1403,7.1515,7.1775,7.1738,7.1775,7.2778,7.3261,7.3372,7.3372,7.3298,7.2927,7.2184,7.1329,7.0549,6.9335,6.8914,6.9026,6.9347,6.912,6.8697,6.89,6.8885,6.8997,6.9134,6.9323,6.9567,6.9833,7.0116,7.0385,7.0593,7.0777,7.1004,7.1069,7.1133,7.1159,7.1197,7.1246,7.1371,7.1352,7.1336,7.128,7.1291,7.1485,7.1562,7.1369,7.1407,7.1678,7.2568,7.3728,7.378,7.3634,7.2936,7.2569,7.2532,7.2532,7.2532,7.2532,7.2532,7.2092,7.1688,7.2165,7.2129,7.1835,7.2239,7.1982,7.1358,7.0513,6.8935,6.6953,6.6182,6.4824,6.3135,6.2842,6.3539,6.42,6.4751,6.4273,6.4016,6.4604,6.4677,6.4163,6.387,6.387,6.3539,6.3062,6.2842,6.283,6.283,6.288,6.3063,6.3184,6.3638,6.4055,6.4483,6.5147,6.632,6.685,6.7404,6.8147,6.8407,6.8518,6.8518,6.8518,6.8506,6.8407,6.8518,6.8654,6.8766,6.915,6.9113,6.9076,6.9558,6.9781,7.0041,7.0066,7.0066,6.9026,7.0252,7.1218,7.1626,7.2555,7.3149,7.3398,7.3361,7.3372,7.3112,7.2332,7.1515,7.0958,6.9955,6.9063,6.8691,6.91,6.936,6.8902,6.8554,6.8602,6.8697,6.8884,6.8945,6.9176,6.9508,6.9814,7.0133,7.0353,7.0622,7.0885,7.0925,7.0939,7.0979,7.1018,7.1056,7.1144,7.1166,7.1236,7.1258,7.128,7.1291,7.1369,7.1485,7.1407,7.1369,7.2491,7.396,7.301,7.301,7.2679,7.2532,7.2532,7.2532,7.2532,7.2532,7.2496,7.2312,7.2092,7.2312,7.2275,7.2018,7.1982,7.1908,7.1651,7.0734,6.9376,6.7834,6.688,6.5448,6.398,6.3503,6.398,6.3943,6.431,6.431,6.4053,6.4457,6.4897,6.4163,6.3649,6.3282,6.3466,6.3025,6.2842,6.2805,6.2805,6.283,6.3015,6.3444,6.3923,6.4328,6.4881,6.5878,6.6766,6.7148,6.7653,6.8308,6.8518,6.8518,6.8518,6.8518,6.8481,6.8481,6.8481,6.8518,6.863,6.9298,6.915,6.9001,6.9509,7.019,6.9855,6.9707,7.014,7.0698,7.0735,7.1081,7.1626,7.2704,7.2878,7.3027,7.325,7.3335,7.3187,7.2369,7.1626,7.1106,7.0549,6.9657,6.8877,6.889,6.9224,6.9137,6.8803,6.8753,6.8777,6.8849,6.8833,6.8717,6.9091,6.9468,6.9851,7.0133,7.0532,7.0748,7.0885,7.0898,7.0925,7.0952,7.0992,7.1018,7.1068,7.1142,7.1224,7.1269,7.128,7.1485,7.1717,7.164,7.1756,7.3303,7.4579,7.2532,7.2532,7.2532,7.2532,7.2532,7.2532,7.2532,7.2532,7.2532,7.2496,7.2532,7.2532,7.2532,7.2422,7.1982,7.2018,7.2349,7.0587,6.9486,6.8641,6.7577,6.5999,6.4567,6.398,6.3723,6.3135,6.3943,6.4053,6.4273,6.4567,6.4604,6.409,6.3649,6.3135,6.2879,6.2842,6.2805,6.2805,6.2805,6.2805,6.2977,6.3713,6.4179,6.4708,6.5397,6.6334,6.7148,6.7346,6.7827,6.8259,6.8432,6.8432,6.8481,6.8518,6.8518,6.8518,6.8518,6.8518,6.8741,6.9187,6.9447,6.9335,6.9323,6.9744,6.9484,6.9521,6.9806,7.066,7.1366,7.1478,7.1923,7.2666,7.3101,7.3101,7.3138,7.3287,7.3261,7.2518,7.1961,7.1589,7.0958,7.014,6.9447,6.9026,6.9038,6.9187,6.9113,6.8927,6.8816,6.8778,6.8716,6.8602,6.874,6.9112,6.9468,6.9869,7.0271,7.0593,7.0719,7.0857,7.0871,7.0898,7.0939,7.0965,7.0992,7.1043,7.113,7.1201,7.1319,7.1396,7.1562,7.191,7.2491,7.3999,7.4966,7.2532,7.2532,7.2532,7.2532,7.2532,7.2532,7.2532,7.2532,7.2532,7.2532,7.2532,7.2496,7.2496,7.2386,7.2239,7.2202,7.2386,7.2312,7.066,6.9339,6.8495,6.6623,6.5044,6.4163,6.398,6.3796,6.387,6.3906,6.4115,6.42,6.4237,6.4053,6.3759,6.3392,6.3099,6.2915,6.2842,6.2805,6.2805,6.2805,6.3099,6.3748,6.4482,6.5243,6.6118,6.7005,6.7768,6.786,6.7961,6.8309,6.8334,6.8532,6.8618,6.8556,6.8518,6.8704,6.8543,6.8543,6.8704,6.8853,6.8704,6.8617,6.8729,6.8964,6.8853,6.9373,6.9521,6.9657,7.1032,7.1589,7.1849,7.2258,7.3112,7.3064,7.3064,7.3324,7.325,7.2841,7.2321,7.2023,7.1441,7.0698,7.0115,6.9707,6.9224,6.9335,6.9187,6.9001,6.8704,6.8593,6.8593,6.853,6.853,6.8763,6.9069,6.9448,6.9777,7.015,7.04,7.0608,7.0777,7.0805,7.0912,7.0925,7.0952,7.0992,7.103,7.1118,7.1201,7.1269,7.1601,7.2413,7.2993,7.4038,7.4811,7.2532,7.2532,7.2532,7.2532,7.2532,7.2532,7.2532,7.2532,7.2532,7.2532,7.2532,7.2496,7.2239,7.1908,7.1725,7.1468,7.1027,7.044,6.9706,6.8862,6.776,6.6439,6.5007,6.431,6.3833,6.3503,6.3392,6.3686,6.4053,6.4053,6.4494,6.4457,6.398,6.3649,6.3356,6.3062,6.2842,6.2842,6.2817,6.278,6.3099,6.4163,6.5007,6.5338,6.6722,6.7405,6.7826,6.7915,6.8055,6.8121,6.8259,6.8556,6.889,6.868,6.8778,6.8964,6.8766,6.858,6.863,6.8853,6.9224,6.9113,6.8853,6.8518,6.8593,6.9261,6.9855,7.04,7.1255,7.1961,7.1998,7.2629,7.3287,7.299,7.3027,7.3324,7.325,7.2915,7.2655,7.2395,7.1961,7.1441,7.092,7.045,6.993,6.9484,6.9298,6.9113,6.8853,6.8593,6.863,6.863,6.863,6.8687,6.8968,6.9171,6.9323,6.9683,7.0082,7.0337,7.0563,7.0843,7.0898,7.0912,7.0925,7.0952,7.0992,7.1043,7.1118,7.1201,7.2225,7.3574,7.4038,7.4154,7.4734,7.2532,7.2532,7.2532,7.2532,7.2532,7.2532,7.2532,7.2532,7.2532,7.2532,7.2496,7.2275,7.1872,7.1394,7.0991,7.0734,7.022,6.9743,6.9265,6.8641,6.7907,6.6623,6.5778,6.5081,6.4494,6.3503,6.3209,6.3613,6.3613,6.3943,6.4494,6.4677,6.4273,6.409,6.3686,6.3319,6.2842,6.2817,6.3099,6.2927,6.311,6.464,6.5411,6.5632,6.6833,6.7594,6.7784,6.7847,6.7926,6.8018,6.8195,6.8555,6.8815,6.9039,6.9076,6.9113,6.9076,6.8766,6.8729,6.8951,6.9335,6.9038,6.8816,6.8691,6.8989,6.9521,7.0227,7.0375,7.1552,7.2395,7.2184,7.2629,7.3212,7.3101,7.3175,7.3372,7.3372,7.3175,7.299,7.2729,7.2406,7.2221,7.1552,7.1069,7.0635,7.0041,6.9633,6.9447,6.9224,6.9001,6.884,6.884,6.8816,6.8846,6.8952,6.8923,6.8997,6.9286,6.9683,7.0012,7.025,7.0563,7.0857,7.0898,7.0912,7.0925,7.0965,7.1005,7.1081,7.1154,7.2179,7.3075,7.3728,7.3844,7.4695,7.2532,7.2532,7.2496,7.2459,7.2422,7.2496,7.2532,7.2532,7.2532,7.2459,7.2312,7.1725,7.1256,7.0991,7.033,6.9963,6.9779,6.9706,6.9376,6.8678,6.8128,6.754,6.6806,6.5925,6.5118,6.4347,6.4053,6.3796,6.3246,6.398,6.4677,6.5228,6.5191,6.4787,6.4127,6.3282,6.2853,6.2989,6.3759,6.3576,6.3759,6.5264,6.5778,6.5999,6.6916,6.7677,6.7484,6.7704,6.7747,6.7705,6.7982,6.8306,6.8617,6.9236,6.9274,6.8927,6.9373,6.9187,6.8593,6.858,6.8654,6.8704,6.8556,6.8778,6.9583,7.019,7.0487,7.045,7.1775,7.2221,7.2221,7.2332,7.2964,7.3287,7.3361,7.3372,7.3372,7.3372,7.3175,7.3064,7.3138,7.3064,7.2258,7.1626,7.1292,7.0747,7.0115,6.9781,6.9558,6.9335,6.9137,6.8803,6.8741,6.8777,6.8735,6.8639,6.8684,6.8975,6.9265,6.9625,6.9959,7.0288,7.0547,7.0777,7.0898,7.0912,7.0939,7.0991,7.1262,7.1479,7.1255,7.1881,7.265,7.3612,7.4541,7.2532,7.2459,7.1945,7.1725,7.1798,7.2275,7.2496,7.2532,7.2496,7.2202,7.1762,7.1394,7.0587,6.9926,6.9486,6.9045,6.8605,6.8495,6.8201,6.8128,6.776,6.71,6.6512,6.6109,6.5521,6.5081,6.4861,6.4787,6.4567,6.4787,6.5338,6.5925,6.6035,6.5632,6.5081,6.453,6.4468,6.453,6.4787,6.4787,6.4651,6.5742,6.6402,6.6109,6.71,6.743,6.7063,6.7393,6.7557,6.7353,6.7594,6.8203,6.8701,6.942,6.9669,6.9645,7.0078,6.9298,6.8741,6.8518,6.8518,6.8518,6.8556,6.8853,6.9633,6.9893,7.0115,7.0598,7.1663,7.2035,7.2184,7.2741,7.3287,7.3361,7.3372,7.3372,7.3372,7.3372,7.3324,7.3324,7.3361,7.3361,7.2852,7.2481,7.2146,7.1738,7.118,7.0289,6.9855,6.9595,6.9373,6.8816,6.8593,6.8593,6.8593,6.8518,6.8543,6.873,6.8975,6.9202,6.9587,6.9959,7.0288,7.0547,7.0734,7.0898,7.1143,7.1401,7.1736,7.184,7.1684,7.2194,7.3466,7.4131,7.4541,7.2092,7.1982,7.1211,7.0881,7.0954,7.1468,7.1651,7.1651,7.1651,7.1358,7.0917,7.0624,6.9963,6.9045,6.8568,6.8311,6.7714,6.7687,6.7724,6.7614,6.7247,6.7063,6.6806,6.6366,6.6182,6.5852,6.5668,6.5595,6.5191,6.5558,6.6145,6.6733,6.688,6.6659,6.6145,6.5705,6.4971,6.4971,6.5081,6.5521,6.5632,6.6145,6.6623,6.6512,6.6843,6.7383,6.6953,6.7063,6.7467,6.7226,6.7526,6.8199,6.8772,6.9369,6.9767,7.009,7.0041,6.941,6.9076,6.8556,6.8556,6.8518,6.8518,6.9038,6.9707,6.993,7.0264,7.0747,7.1441,7.1626,7.1812,7.2518,7.3027,7.3064,7.3324,7.3324,7.3372,7.3372,7.3372,7.3372,7.3372,7.3372,7.3372,7.3335,7.3038,7.2629,7.2184,7.118,7.019,6.993,6.9521,6.889,6.863,6.8778,6.8704,6.8518,6.8543,6.8506,6.873,6.8952,6.9303,6.9683,6.9977,7.0282,7.0608,7.0972,7.15,7.1874,7.2286,7.2442,7.2315,7.3125,7.4396,7.4702,7.4777,7.1284,7.1174,7.0403,7.0073,7.0073,7.0036,7.0073,7.0146,7.0183,7.0146,7.0036,6.9339,6.8972,6.8715,6.8054,6.776,6.7714,6.7687,6.7687,6.7687,6.7504,6.754,6.754,6.743,6.6953,6.6659,6.6512,6.6292,6.5632,6.6182,6.6953,6.732,6.7393,6.7247,6.6806,6.6256,6.5485,6.5558,6.5962,6.6219,6.6256,6.688,6.6806,6.6733,6.6953,6.7136,6.699,6.7173,6.7467,6.7557,6.7747,6.7978,6.8365,6.8974,6.9396,6.9682,6.9707,6.9633,6.9447,6.889,6.8704,6.8704,6.858,6.9447,6.993,6.9893,6.9893,7.0301,7.0846,7.0821,7.097,7.1738,7.2469,7.2767,7.3138,7.325,7.3398,7.3372,7.3372,7.3372,7.3372,7.3372,7.3372,7.3372,7.3398,7.3064,7.2481,7.1626,7.0747,7.0301,6.9781,6.8816,6.8704,6.9001,6.8853,6.8556,6.8518,6.8506,6.8506,6.8717,6.9047,6.9365,6.9625,6.9995,7.0494,7.1122,7.2024,7.2629,7.2976,7.307,7.3264,7.3356,7.4359,7.4757,7.5026,7.044,7.0367,6.9596,6.9265,6.9155,6.8641,6.9009,7.0,7.011,6.9853,6.9229,6.9009,6.8568,6.8017,6.7824,6.7687,6.7687,6.7687,6.7687,6.7687,6.7687,6.7687,6.7687,6.765,6.7494,6.7393,6.7247,6.71,6.7026,6.732,6.6953,6.6916,6.7467,6.7393,6.7136,6.6953,6.6659,6.6623,6.699,6.6953,6.6916,6.7393,6.7173,6.7136,6.7247,6.721,6.6916,6.7283,6.743,6.7053,6.752,6.7784,6.8015,6.8808,6.9443,6.9682,6.9707,6.967,6.9558,6.8964,6.8667,6.8927,6.884,6.9026,6.9484,6.9521,6.9335,6.9855,7.0078,7.0078,7.0301,7.0958,7.1663,7.2184,7.2592,7.2915,7.3064,7.3361,7.3361,7.3372,7.3372,7.3372,7.3372,7.3372,7.3361,7.3175,7.2666,7.1812,7.1218,7.071,6.9893,6.889,6.8778,6.9038,6.8816,6.8518,6.8518,6.8543,6.8506,6.853,6.8717,6.9019,6.9261,6.9797,7.0522,7.1681,7.2909,7.3385,7.386,7.4361,7.4557,7.4304,7.4243,7.4758,7.5247,6.9633,6.9522,6.8752,6.8421,6.8348,6.7907,6.8338,6.9045,6.9155,6.8825,6.8458,6.8385,6.8128,6.7797,6.7687,6.7687,6.7687,6.7687,6.7687,6.7687,6.7687,6.7687,6.7687,6.7687,6.765,6.7687,6.7687,6.754,6.7687,6.7677,6.7357,6.7173,6.7567,6.7357,6.721,6.7357,6.7577,6.754,6.7614,6.7687,6.7687,6.765,6.754,6.7393,6.7504,6.7247,6.6769,6.732,6.732,6.7026,6.7577,6.7731,6.8036,6.8808,6.9418,6.9595,6.9707,6.9707,6.9633,6.9335,6.915,6.9113,6.9038,6.9137,6.8989,6.889,6.9187,6.9558,6.941,6.9373,6.9744,7.0152,7.0883,7.1589,7.1998,7.2432,7.2804,7.3212,7.3324,7.3398,7.3372,7.3372,7.3372,7.3372,7.3298,7.3038,7.2444,7.1515,7.1044,7.0784,6.9855,6.8778,6.8853,6.9076,6.8778,6.8556,6.8518,6.8518,6.8506,6.853,6.8602,6.8832,6.9198,6.987,7.0682,7.1827,7.297,7.4163,7.4822,7.513,7.5207,7.498,7.483,7.5141,7.5632,6.8825,6.8752,6.8017,6.776,6.7687,6.7714,6.7724,6.7687,6.7834,6.7724,6.7787,6.7724,6.7724,6.7687,6.7687,6.7687,6.7687,6.7687,6.7687,6.7687,6.7687,6.7687,6.7687,6.7687,6.7687,6.7687,6.7687,6.7687,6.7687,6.765,6.7677,6.7687,6.765,6.754,6.754,6.7577,6.7687,6.7687,6.7687,6.7687,6.7687,6.7577,6.7393,6.6953,6.7173,6.7393,6.7026,6.721,6.7687,6.7687,6.7714,6.7767,6.8173,6.8598,6.9122,6.9334,6.9335,6.9534,6.9558,6.9335,6.915,6.9113,6.9187,6.9026,6.8778,6.863,6.8927,6.9113,6.9001,6.9001,6.9298,6.9447,6.9967,7.0772,7.1366,7.1701,7.2035,7.2332,7.2481,7.2518,7.2518,7.2555,7.2629,7.2555,7.2629,7.2629,7.2184,7.1155,7.0747,7.0598,7.0004,6.8927,6.9076,6.9224,6.8964,6.8741,6.8556,6.8518,6.8518,6.8543,6.853,6.8832,6.9176,6.9793,7.0457,7.1655,7.2837,7.3714,7.4437,7.4938,7.5053,7.5322,7.5466,7.5548,7.5757,6.7981,6.7944,6.776,6.7687,6.7687,6.7687,6.7687,6.7687,6.7687,6.7687,6.7687,6.7687,6.7687,6.7687,6.7687,6.7687,6.7687,6.7687,6.7687,6.7687,6.7687,6.7687,6.7687,6.7687,6.7687,6.7687,6.7687,6.7687,6.7687,6.7687,6.7687,6.7687,6.7687,6.7687,6.7687,6.7687,6.7687,6.7687,6.7687,6.7687,6.7687,6.7687,6.754,6.7393,6.7614,6.7614,6.7393,6.7504,6.7687,6.7687,6.7687,6.7767,6.7899,6.8199,6.8402,6.8555,6.8704,6.9076,6.9311,6.9261,6.9076,6.9113,6.9113,6.8778,6.8556,6.8518,6.8556,6.8667,6.8704,6.8741,6.8778,6.889,6.9113,6.993,7.071,7.0995,7.1255,7.1478,7.1626,7.1626,7.1626,7.1775,7.1886,7.1998,7.1961,7.1775,7.1403,7.0821,7.0412,7.0227,7.0301,6.9521,6.9447,6.9484,6.915,6.8853,6.8593,6.8518,6.8518,6.8518,6.8518,6.8707,6.893,6.9446,7.0156,7.1357,7.2138,7.2491,7.3206,7.4284,7.4861,7.5091,7.5476,7.562,7.5856,6.7687,6.7687,6.7687,6.7687,6.7687,6.7687,6.7687,6.7687,6.7687,6.7687,6.7687,6.7687,6.7687,6.7687,6.7687,6.7687,6.7687,6.7687,6.7687,6.7687,6.7687,6.7687,6.7687,6.7687,6.7687,6.7687,6.7687,6.7687,6.7614,6.7687,6.7687,6.7687,6.7687,6.7687,6.7687,6.7687,6.765,6.7687,6.7614,6.7577,6.7614,6.7677,6.7687,6.7687,6.7687,6.7687,6.7687,6.7687,6.7687,6.7687,6.7687,6.7714,6.782,6.7936,6.8015,6.8144,6.8319,6.8519,6.889,6.9088,6.8964,6.9001,6.9323,6.9076,6.8556,6.8518,6.8518,6.8593,6.8593,6.863,6.863,6.8704,6.8741,6.9249,6.993,7.0412,7.0784,7.1118,7.1192,7.1192,7.1441,7.1961,7.2184,7.2629,7.2592,7.2555,7.1961,7.1366,7.0846,6.9893,6.993,6.993,6.9707,6.9335,6.889,6.8667,6.8556,6.8518,6.8518,6.8518,6.8543,6.8506,6.8707,6.9298,7.0005,7.0908,7.156,7.1963,7.3091,7.4437,7.4745,7.4861,7.5207,7.5476,7.5466,6.7393,6.754,6.7677,6.7687,6.7687,6.7687,6.7687,6.7687,6.7687,6.7687,6.7687,6.7687,6.7687,6.7687,6.7687,6.7687,6.7687,6.7687,6.7687,6.7687,6.7687,6.7687,6.7687,6.7687,6.7577,6.754,6.7604,6.7467,6.7393,6.754,6.7687,6.7687,6.7687,6.7687,6.765,6.754,6.7393,6.7283,6.7247,6.7247,6.7393,6.764,6.765,6.7687,6.7687,6.7687,6.7687,6.7687,6.7687,6.7687,6.7687,6.7714,6.7741,6.782,6.7873,6.7978,6.8107,6.8245,6.8494,6.8964,6.8828,6.889,6.9335,6.9224,6.863,6.8518,6.8518,6.8518,6.8518,6.8518,6.8518,6.8518,6.8543,6.8617,6.9261,6.9855,7.0301,7.0561,7.0524,7.0524,7.0995,7.1552,7.2035,7.2555,7.2778,7.2852,7.2666,7.2258,7.1589,7.0326,6.9633,6.9633,6.9521,6.9113,6.8778,6.8556,6.8518,6.8518,6.8518,6.8518,6.8543,6.8506,6.873,6.9251,7.0003,7.0682,7.1331,7.1847,7.3111,7.413,7.4322,7.4322,7.4514,7.4707,7.4707,6.6145,6.6769,6.7393,6.765,6.765,6.765,6.7687,6.7687,6.7687,6.7687,6.7687,6.7687,6.7687,6.7687,6.7687,6.7687,6.7687,6.7687,6.7687,6.7687,6.754,6.7614,6.754,6.7247,6.7173,6.71,6.71,6.721,6.688,6.7247,6.7614,6.7504,6.7567,6.7567,6.7504,6.721,6.6696,6.6623,6.6256,6.6072,6.6329,6.6769,6.7577,6.7687,6.7687,6.7687,6.7687,6.7687,6.7687,6.7687,6.7687,6.7687,6.7714,6.7741,6.7794,6.7873,6.8004,6.8107,6.8356,6.8543,6.847,6.8568,6.8865,6.8816,6.8481,6.8518,6.8518,6.8518,6.8518,6.8518,6.8518,6.8518,6.8518,6.8518,6.889,6.9298,6.967,6.9447,6.9224,6.9298,6.9583,7.0066,7.0512,7.0958,7.1329,7.1366,7.1366,7.1069,7.1478,7.0475,6.9447,6.941,6.941,6.941,6.9298,6.8667,6.8518,6.8518,6.8518,6.8518,6.8518,6.8518,6.88,6.9361,6.974,7.0241,7.092,7.1622,7.2049,7.2899,7.3437,7.3707,7.386,7.3937,7.3899]}]]